[[{"header":{"parameterUnit":"m.s-1","parameterCategory":1,"la1":30.6,"la2":29.2853,"lo1":-89.7004,"lo2":-87.6739,"dy":0.0162,"dx":0.0183,"nx":112,"ny":82,"refTime":"2024-03-08T06:00:00:Z","depth":0,"parameterNumber":2,"parameterNumberName":"U-component_of_WINDS"},"data":[0.0,0.0,0.0,0.0,0.0,0.0,0.0,0.0,0.0,0.0,0.0,0.0,0.0,0.0,0.0,0.0,0.0,0.0,0.0,0.0,0.0,0.0,0.0,0.0,0.0,0.0,0.0,0.0,0.0,0.0,0.0,0.0,0.0,0.0,0.0,0.0,0.0,0.0,0.0,0.0,0.0,0.0,0.0,0.0,0.0,0.0,0.0,0.0,0.0,0.0,0.0,0.0,0.0,0.0,0.0,0.0,0.0,0.0,0.0,0.0,0.0,0.0,0.0,0.0,0.0,0.0,0.0,0.0,0.0,0.0,0.0,0.0,0.0,0.0,0.0,0.0,0.0,0.0,0.0,0.0,0.0,0.0,0.0,0.0,0.0,0.0,0.0,0.0,0.0,0.0,-7.334,-7.5102,-7.7892,-8.0204,-8.1709,-8.2957,-8.292,-8.1122,0.0,0.0,0.0,0.0,0.0,0.0,0.0,0.0,0.0,0.0,0.0,0.0,0.0,0.0,0.0,0.0,0.0,0.0,0.0,0.0,0.0,0.0,0.0,0.0,0.0,0.0,0.0,0.0,0.0,0.0,0.0,0.0,0.0,0.0,0.0,0.0,0.0,0.0,0.0,0.0,0.0,0.0,0.0,0.0,0.0,0.0,0.0,0.0,0.0,0.0,0.0,0.0,0.0,0.0,0.0,0.0,0.0,0.0,0.0,0.0,0.0,0.0,0.0,0.0,0.0,0.0,0.0,0.0,0.0,0.0,0.0,0.0,0.0,0.0,0.0,0.0,0.0,0.0,0.0,0.0,0.0,0.0,0.0,0.0,0.0,0.0,0.0,0.0,0.0,0.0,0.0,0.0,0.0,0.0,0.0,0.0,0.0,0.0,0.0,0.0,0.0,0.0,0.0,0.0,-7.4404,-7.6686,-7.8038,-7.914,-8.0094,-7.9764,-7.9947,-8.0938,0.0,0.0,0.0,0.0,0.0,0.0,0.0,0.0,0.0,0.0,0.0,0.0,0.0,0.0,0.0,0.0,0.0,0.0,0.0,0.0,0.0,0.0,0.0,0.0,0.0,0.0,0.0,0.0,0.0,0.0,0.0,0.0,0.0,0.0,0.0,0.0,0.0,0.0,0.0,0.0,0.0,0.0,0.0,0.0,0.0,0.0,0.0,0.0,0.0,0.0,0.0,0.0,0.0,0.0,0.0,0.0,0.0,0.0,0.0,0.0,0.0,0.0,0.0,0.0,0.0,0.0,0.0,0.0,0.0,0.0,0.0,0.0,0.0,0.0,0.0,0.0,0.0,0.0,0.0,0.0,0.0,0.0,0.0,0.0,0.0,0.0,0.0,0.0,0.0,0.0,0.0,0.0,0.0,0.0,0.0,0.0,0.0,0.0,0.0,0.0,0.0,0.0,0.0,-7.3377,-7.5102,-7.709,-7.8075,-7.8919,-7.9727,-7.9433,-7.9727,-8.0938,-8.0534,0.0,0.0,0.0,0.0,0.0,0.0,0.0,0.0,0.0,0.0,0.0,0.0,0.0,0.0,0.0,0.0,0.0,0.0,0.0,0.0,0.0,0.0,0.0,0.0,0.0,0.0,0.0,0.0,0.0,0.0,0.0,0.0,0.0,0.0,0.0,0.0,0.0,0.0,0.0,0.0,0.0,0.0,0.0,0.0,0.0,0.0,0.0,0.0,0.0,0.0,0.0,0.0,0.0,0.0,0.0,0.0,0.0,0.0,0.0,0.0,0.0,0.0,0.0,0.0,0.0,0.0,0.0,0.0,0.0,0.0,0.0,0.0,0.0,0.0,0.0,0.0,0.0,0.0,0.0,0.0,0.0,0.0,0.0,0.0,0.0,0.0,0.0,0.0,0.0,0.0,0.0,0.0,0.0,0.0,0.0,0.0,0.0,0.0,0.0,0.0,0.0,0.0,-7.3817,-7.5102,-7.709,-7.7892,-7.8453,-7.8849,-7.8853,-7.9182,-8.0023,-7.8743,0.0,0.0,0.0,0.0,0.0,0.0,0.0,0.0,0.0,0.0,0.0,0.0,0.0,0.0,0.0,0.0,0.0,0.0,0.0,0.0,0.0,0.0,0.0,0.0,0.0,0.0,0.0,0.0,0.0,0.0,0.0,0.0,0.0,0.0,0.0,0.0,0.0,0.0,0.0,0.0,0.0,0.0,0.0,0.0,0.0,0.0,0.0,0.0,0.0,0.0,0.0,0.0,0.0,0.0,0.0,0.0,0.0,0.0,0.0,0.0,0.0,0.0,0.0,0.0,0.0,0.0,0.0,0.0,0.0,0.0,0.0,0.0,0.0,0.0,0.0,0.0,0.0,0.0,0.0,0.0,0.0,0.0,0.0,0.0,0.0,0.0,0.0,0.0,0.0,0.0,0.0,0.0,0.0,0.0,0.0,0.0,0.0,0.0,0.0,0.0,0.0,0.0,-7.3523,-7.3854,-7.6943,-7.7347,-7.7066,-7.6174,-7.607,-7.6431,-7.7225,-7.6467,0.0,0.0,0.0,0.0,0.0,0.0,0.0,0.0,0.0,0.0,0.0,0.0,0.0,0.0,0.0,0.0,0.0,0.0,0.0,0.0,0.0,0.0,0.0,0.0,0.0,0.0,0.0,0.0,0.0,0.0,0.0,0.0,0.0,0.0,0.0,0.0,0.0,0.0,0.0,0.0,0.0,0.0,0.0,0.0,0.0,0.0,0.0,0.0,0.0,0.0,0.0,0.0,0.0,0.0,0.0,0.0,0.0,0.0,0.0,0.0,0.0,0.0,0.0,0.0,0.0,0.0,0.0,0.0,0.0,0.0,0.0,0.0,0.0,0.0,0.0,0.0,0.0,0.0,0.0,0.0,0.0,0.0,0.0,0.0,0.0,0.0,0.0,0.0,0.0,0.0,0.0,0.0,0.0,0.0,0.0,0.0,0.0,0.0,0.0,0.0,0.0,0.0,-7.4074,-7.4661,-7.6387,-7.6432,-7.6231,-7.5821,-7.5263,-7.5188,-7.601,0.0,0.0,0.0,0.0,0.0,0.0,0.0,0.0,0.0,0.0,0.0,0.0,0.0,0.0,0.0,0.0,0.0,0.0,0.0,0.0,0.0,0.0,0.0,0.0,0.0,0.0,0.0,0.0,0.0,0.0,0.0,0.0,0.0,0.0,0.0,0.0,0.0,0.0,0.0,0.0,0.0,0.0,0.0,0.0,0.0,0.0,0.0,0.0,0.0,0.0,0.0,0.0,0.0,0.0,0.0,0.0,0.0,0.0,0.0,0.0,0.0,0.0,0.0,0.0,0.0,0.0,0.0,0.0,0.0,0.0,0.0,0.0,0.0,0.0,0.0,0.0,0.0,0.0,0.0,0.0,0.0,0.0,0.0,0.0,0.0,0.0,0.0,0.0,0.0,0.0,0.0,0.0,0.0,0.0,0.0,0.0,0.0,0.0,0.0,0.0,0.0,0.0,-7.3523,-7.3964,-7.4661,-7.5946,-7.5923,-7.5684,-7.5369,-7.421,-7.3811,-7.4589,0.0,0.0,0.0,0.0,0.0,0.0,0.0,0.0,0.0,0.0,0.0,0.0,0.0,0.0,0.0,0.0,0.0,0.0,0.0,0.0,0.0,0.0,0.0,0.0,0.0,0.0,0.0,0.0,0.0,0.0,0.0,0.0,0.0,0.0,0.0,0.0,0.0,0.0,0.0,0.0,0.0,0.0,0.0,0.0,0.0,0.0,0.0,0.0,0.0,0.0,0.0,0.0,0.0,0.0,0.0,0.0,0.0,0.0,0.0,0.0,0.0,0.0,0.0,0.0,0.0,0.0,0.0,0.0,0.0,0.0,0.0,0.0,0.0,0.0,0.0,0.0,0.0,0.0,0.0,0.0,0.0,0.0,0.0,0.0,0.0,0.0,0.0,0.0,0.0,0.0,0.0,0.0,0.0,0.0,0.0,0.0,0.0,0.0,0.0,0.0,0.0,0.0,-7.3377,-7.2973,-7.3413,-7.5836,-7.5923,-7.5369,-7.4385,-7.2674,-7.2,0.0,0.0,0.0,0.0,0.0,0.0,0.0,0.0,0.0,0.0,0.0,0.0,0.0,0.0,0.0,0.0,0.0,0.0,0.0,0.0,0.0,0.0,0.0,0.0,0.0,0.0,0.0,0.0,0.0,0.0,0.0,0.0,0.0,0.0,0.0,0.0,0.0,0.0,0.0,0.0,0.0,0.0,0.0,0.0,0.0,0.0,0.0,0.0,0.0,0.0,0.0,0.0,0.0,0.0,0.0,0.0,0.0,0.0,0.0,0.0,0.0,0.0,0.0,0.0,0.0,0.0,0.0,0.0,0.0,0.0,0.0,0.0,0.0,0.0,0.0,0.0,0.0,0.0,0.0,0.0,0.0,0.0,0.0,0.0,0.0,0.0,0.0,0.0,0.0,0.0,0.0,0.0,0.0,0.0,0.0,0.0,0.0,0.0,0.0,0.0,0.0,0.0,0.0,-7.2532,-7.1651,-7.1945,-7.4955,-7.442,-7.3792,-7.3533,-7.1751,-7.0754,-7.0958,0.0,0.0,0.0,0.0,0.0,0.0,0.0,0.0,0.0,0.0,0.0,0.0,0.0,0.0,0.0,0.0,0.0,0.0,0.0,0.0,0.0,0.0,0.0,0.0,0.0,0.0,0.0,0.0,0.0,0.0,0.0,0.0,0.0,0.0,0.0,0.0,0.0,0.0,0.0,0.0,0.0,0.0,0.0,0.0,0.0,0.0,0.0,0.0,0.0,0.0,0.0,0.0,0.0,0.0,0.0,0.0,0.0,0.0,0.0,0.0,0.0,0.0,0.0,0.0,0.0,0.0,0.0,0.0,0.0,0.0,0.0,0.0,0.0,0.0,0.0,0.0,0.0,0.0,0.0,0.0,0.0,0.0,0.0,0.0,0.0,0.0,0.0,0.0,0.0,0.0,0.0,0.0,0.0,0.0,0.0,0.0,0.0,0.0,0.0,0.0,0.0,0.0,-7.1762,-7.0917,-7.1321,-7.4588,-7.357,-7.2823,-7.3179,-7.0808,-6.9282,-6.9282,0.0,0.0,0.0,0.0,0.0,0.0,0.0,0.0,0.0,0.0,0.0,0.0,0.0,0.0,0.0,0.0,0.0,0.0,0.0,0.0,0.0,0.0,0.0,0.0,0.0,0.0,0.0,0.0,0.0,0.0,0.0,0.0,0.0,0.0,0.0,0.0,0.0,0.0,0.0,0.0,0.0,0.0,0.0,0.0,0.0,0.0,0.0,0.0,0.0,0.0,0.0,0.0,0.0,0.0,0.0,0.0,0.0,0.0,0.0,0.0,0.0,0.0,0.0,0.0,0.0,0.0,0.0,0.0,0.0,0.0,0.0,0.0,0.0,0.0,0.0,0.0,0.0,0.0,0.0,0.0,0.0,0.0,0.0,0.0,0.0,0.0,0.0,0.0,0.0,0.0,0.0,0.0,0.0,0.0,0.0,0.0,0.0,0.0,0.0,0.0,0.0,0.0,-7.1073,-7.0477,-7.1174,-7.4551,-7.3168,-7.2331,-7.3074,-6.9923,-6.7921,-6.7793,0.0,0.0,0.0,0.0,0.0,0.0,0.0,0.0,0.0,0.0,0.0,0.0,0.0,0.0,0.0,0.0,0.0,0.0,0.0,0.0,0.0,0.0,0.0,0.0,0.0,0.0,0.0,0.0,0.0,0.0,0.0,0.0,0.0,0.0,0.0,0.0,0.0,0.0,0.0,0.0,0.0,0.0,0.0,0.0,0.0,0.0,0.0,0.0,0.0,0.0,0.0,0.0,0.0,0.0,0.0,0.0,0.0,0.0,0.0,0.0,-8.0386,-8.054,0.0,0.0,0.0,0.0,0.0,0.0,0.0,0.0,0.0,0.0,0.0,0.0,0.0,0.0,0.0,0.0,0.0,0.0,0.0,0.0,0.0,0.0,0.0,0.0,0.0,0.0,0.0,0.0,0.0,0.0,0.0,0.0,0.0,0.0,0.0,0.0,0.0,0.0,0.0,0.0,-7.0999,-6.9486,-6.9926,-7.4441,-7.3261,-7.2221,-7.2332,-6.9725,-6.7822,-6.7091,-6.6181,0.0,0.0,0.0,0.0,0.0,0.0,0.0,0.0,0.0,0.0,0.0,0.0,0.0,0.0,0.0,0.0,0.0,0.0,0.0,0.0,0.0,0.0,0.0,0.0,0.0,0.0,0.0,0.0,0.0,0.0,0.0,0.0,0.0,0.0,0.0,0.0,0.0,0.0,0.0,0.0,0.0,0.0,0.0,0.0,0.0,0.0,0.0,0.0,0.0,0.0,0.0,0.0,0.0,0.0,0.0,0.0,0.0,0.0,0.0,-7.9996,-7.984,0.0,0.0,0.0,0.0,0.0,0.0,0.0,0.0,0.0,0.0,0.0,0.0,0.0,0.0,0.0,0.0,0.0,0.0,0.0,0.0,0.0,0.0,0.0,0.0,0.0,0.0,0.0,0.0,0.0,0.0,0.0,0.0,0.0,0.0,0.0,0.0,0.0,0.0,0.0,0.0,-7.0403,-6.8935,-6.9376,-7.3854,-7.2725,-7.1801,-7.2185,-6.9411,-6.7299,-6.6439,-6.527,0.0,0.0,0.0,0.0,0.0,0.0,0.0,0.0,0.0,0.0,0.0,0.0,0.0,0.0,0.0,0.0,0.0,0.0,0.0,0.0,0.0,0.0,0.0,0.0,0.0,0.0,0.0,0.0,0.0,0.0,0.0,0.0,0.0,0.0,0.0,0.0,0.0,0.0,0.0,0.0,0.0,0.0,0.0,0.0,0.0,0.0,0.0,0.0,0.0,0.0,0.0,0.0,0.0,-7.9275,-7.954,-8.0403,-8.0201,-7.9748,-7.9079,-7.9908,-7.9459,-7.8201,-8.0348,0.0,0.0,0.0,0.0,0.0,0.0,0.0,0.0,0.0,0.0,0.0,0.0,0.0,0.0,0.0,0.0,0.0,0.0,0.0,0.0,0.0,0.0,-7.323,-7.312,-7.3046,-7.2899,-7.2239,0.0,0.0,0.0,0.0,0.0,0.0,0.0,0.0,0.0,0.0,0.0,-6.9412,-6.8641,-6.9339,-7.3083,-7.2225,-7.1612,-7.2247,-6.9141,-6.682,-6.6046,-6.4776,-6.3869,0.0,0.0,0.0,0.0,0.0,0.0,0.0,0.0,0.0,0.0,0.0,0.0,0.0,0.0,0.0,0.0,0.0,0.0,0.0,0.0,0.0,0.0,0.0,0.0,0.0,0.0,0.0,0.0,0.0,0.0,0.0,0.0,-7.7734,-7.8711,0.0,0.0,0.0,0.0,0.0,0.0,0.0,0.0,0.0,0.0,0.0,0.0,0.0,-8.1153,-8.1688,-8.0824,-8.0746,-8.1337,-7.9843,-7.9571,-8.0388,-7.9437,-7.8934,-7.8873,-7.9571,0.0,-7.8718,-7.9022,0.0,0.0,0.0,0.0,0.0,0.0,0.0,0.0,0.0,0.0,0.0,0.0,0.0,0.0,0.0,0.0,0.0,0.0,0.0,0.0,0.0,0.0,-7.1431,-7.0734,-7.055,-7.055,-7.044,-7.2789,-7.4698,-7.4001,-7.3377,-7.2936,0.0,0.0,0.0,0.0,0.0,0.0,-6.8008,-6.8421,-6.9743,-7.2386,-7.2446,-7.231,-7.2279,-6.9269,-6.6989,-6.6049,-6.3341,-6.2279,-6.3463,-6.2888,0.0,0.0,0.0,0.0,0.0,0.0,0.0,0.0,0.0,0.0,0.0,0.0,0.0,0.0,0.0,0.0,0.0,0.0,0.0,0.0,0.0,0.0,0.0,0.0,0.0,0.0,0.0,0.0,0.0,-7.7692,-7.7695,-7.9023,-7.9492,-7.9842,0.0,0.0,0.0,0.0,0.0,0.0,0.0,0.0,0.0,-8.1265,-8.0791,-8.0575,-8.0624,-7.976,-7.9528,-7.9888,-8.0135,-8.0406,-8.0793,-8.1296,-8.1228,-8.079,-8.1092,-8.0799,-8.0057,-7.9569,-7.9505,-7.975,0.0,0.0,0.0,0.0,-8.0912,-8.1242,-8.1242,-8.1167,-8.1093,-8.1093,0.0,0.0,0.0,0.0,0.0,0.0,0.0,-7.5537,-7.3986,-7.2788,-7.1762,-7.0991,-7.1138,-7.1468,-7.1468,-7.2202,-7.2789,-7.2422,-7.2422,-7.2349,-7.1908,-7.011,0.0,0.0,0.0,-6.6659,-6.7577,-6.8017,-6.8972,-7.0954,-7.1138,-7.1142,-7.1046,-6.8382,-6.6527,-6.6145,-6.3474,-6.2212,-6.2854,-6.2956,-6.3835,0.0,0.0,0.0,0.0,0.0,0.0,0.0,0.0,0.0,0.0,0.0,0.0,0.0,0.0,0.0,0.0,0.0,0.0,0.0,0.0,0.0,0.0,0.0,0.0,0.0,0.0,0.0,0.0,-7.793,-7.789,-7.8945,-7.9453,-7.9805,0.0,0.0,0.0,0.0,0.0,0.0,-8.0738,-8.1127,-8.1385,-8.1455,-8.1204,-8.0786,-8.0218,-7.9961,-7.9669,-7.9477,-8.1016,-8.1747,-8.1785,-8.3016,-8.3131,-8.2285,-8.2285,-8.1823,-8.1016,-8.0169,-7.9554,-7.9131,-7.89,-7.9361,-8.0131,-8.0131,-8.0554,-8.1093,-8.1093,-8.1093,-8.1093,-8.1093,-8.1093,-8.1093,-8.1093,0.0,0.0,0.0,0.0,-7.5328,-7.4065,-7.3083,-7.2349,-7.1762,-7.1908,-7.2202,-7.2202,-7.1578,-7.0991,-7.0991,-7.1321,-7.1321,-7.0513,-6.8715,0.0,-6.71,-6.6256,-6.5962,-6.6953,-6.7614,-6.8458,-6.9669,-6.9963,-7.011,-7.011,-6.793,-6.6568,-6.6568,-6.4135,-6.2702,-6.2702,-6.308,-6.3565,-6.4309,0.0,0.0,0.0,0.0,0.0,0.0,0.0,0.0,0.0,0.0,0.0,0.0,0.0,0.0,0.0,0.0,0.0,0.0,0.0,0.0,0.0,0.0,0.0,0.0,0.0,0.0,0.0,0.0,0.0,-7.7422,-7.8711,0.0,0.0,0.0,0.0,-8.0976,-8.0937,-8.0937,-8.0976,-8.1797,-8.1788,-8.0774,-8.2117,-8.2377,-8.1306,-8.2675,-8.2939,-8.2131,-8.3016,-8.3478,-8.3478,-8.3555,-8.3131,-8.2285,-8.2285,-8.1823,-8.1016,-8.0169,-8.0246,-8.09,-8.0054,-8.0285,-8.1016,-8.1016,-8.1054,-8.1093,-8.1093,-8.1093,-8.1093,-8.1093,-8.1093,-8.1093,-8.1093,-8.024,0.0,0.0,-7.6562,-7.4757,-7.3891,-7.3083,-7.2496,-7.2459,-7.1908,-7.1329,-7.1329,-7.0734,-7.0146,-7.0146,-6.9596,-6.8825,-6.8017,0.0,-6.6292,-6.5558,-6.5999,-6.6182,-6.5521,-6.743,-6.8862,-6.8972,-6.9633,-7.011,-7.011,-6.8516,-6.7528,-6.7528,-6.5089,-6.3647,-6.3647,-6.2851,-6.2787,-6.3565,-6.4275,0.0,0.0,0.0,0.0,0.0,0.0,0.0,0.0,0.0,0.0,0.0,0.0,0.0,0.0,0.0,0.0,0.0,0.0,0.0,0.0,0.0,0.0,0.0,0.0,0.0,0.0,0.0,0.0,-7.9531,-8.0156,0.0,-8.0508,-8.0781,-8.1015,-8.1015,-8.1015,-8.125,-8.1797,-8.2656,-8.3157,-8.3206,-8.3747,-8.3703,-8.3018,-8.3554,-8.3558,-8.3131,-8.4016,-8.4439,-8.4439,-8.4439,-8.3978,-8.3093,-8.2554,-8.1823,-8.1093,-8.0746,-8.0477,-8.0169,-7.9285,-7.9515,-8.0246,-8.0246,-8.0631,-8.1093,-8.1093,-8.1093,-8.1016,-8.0439,-7.9862,-7.9438,-7.9438,-7.9218,-7.8736,-7.7499,-7.6356,-7.5255,-7.4036,-7.3083,-7.2496,-7.2496,-7.2275,-7.2092,-7.2092,-7.1027,-7.011,-7.011,-6.9449,-6.8641,-6.7834,-6.6586,-6.5632,-6.5338,-6.5558,-6.5632,-6.5338,-6.6953,-6.8128,-6.8128,-6.8385,-6.8531,-6.8531,-6.7491,-6.6551,-6.5946,-6.5076,-6.4042,-6.2931,-6.3124,-6.311,-6.2787,-6.3057,-6.3768,0.0,0.0,0.0,0.0,0.0,0.0,0.0,0.0,0.0,0.0,0.0,0.0,0.0,0.0,0.0,0.0,0.0,0.0,0.0,0.0,0.0,0.0,0.0,0.0,0.0,-7.9492,-7.9844,-8.1289,-8.1719,-8.1992,-8.2265,-8.2304,-8.2304,-8.2304,-8.2578,-8.3125,-8.4023,-8.4844,-8.5387,-8.5554,-8.5955,-8.5609,-8.4443,-8.4881,-8.4715,-8.4055,-8.4901,-8.5286,-8.5286,-8.5082,-8.4526,-8.3639,-8.2791,-8.1943,-8.121,-8.1116,-8.0746,-8.0169,-7.9592,-7.9746,-8.0246,-8.0246,-8.0592,-8.1093,-8.1093,-8.1093,-8.0977,-8.0092,-7.9592,-7.9246,-7.8669,-7.8671,-7.8637,-7.7362,-7.6421,-7.5496,-7.4312,-7.3407,-7.2733,-7.2553,-7.2312,-7.2092,-7.2092,-7.1027,-7.011,-7.011,-6.9229,-6.8238,-6.743,-6.6402,-6.5632,-6.5338,-6.5521,-6.5705,-6.5705,-6.688,-6.7687,-6.7687,-6.7687,-6.7687,-6.7687,-6.7174,-6.6474,-6.5571,-6.5189,-6.4272,-6.2557,-6.3019,-6.3036,-6.242,-6.2651,-6.326,-6.4241,0.0,0.0,0.0,0.0,0.0,0.0,0.0,0.0,0.0,0.0,0.0,0.0,0.0,0.0,0.0,0.0,0.0,0.0,0.0,0.0,0.0,0.0,0.0,-7.9726,-8.0508,-8.1406,-8.2304,-8.3203,-8.3398,-8.2578,-8.3984,-8.4961,-8.4961,-8.5781,-8.664,-8.75,-8.8281,-8.8398,-8.7617,-8.8724,-8.8109,-8.5657,-8.6812,-8.661,-8.4978,-8.5764,-8.611,-8.6088,-8.5512,-8.4737,-8.3847,-8.3006,-8.2154,-8.1395,-8.121,-8.1124,-8.1124,-8.1108,-8.1093,-8.1093,-8.1093,-8.1093,-8.1093,-8.1093,-8.1093,-8.0939,-8.0092,-8.0362,-8.0708,-7.9015,-7.8688,-7.8733,-7.7818,-7.6627,-7.5442,-7.4798,-7.405,-7.3338,-7.2751,-7.2002,-7.1459,-7.1423,-7.077,-7.0183,-7.0183,-6.8898,-6.754,-6.6733,-6.6549,-6.6256,-6.5485,-6.5999,0.0,-6.6512,-6.7173,-6.7714,-6.7724,-6.7724,-6.7724,-6.7724,-6.7724,-6.7357,-6.6523,-6.5646,-6.4387,-6.2733,-6.2543,-6.2451,-6.2386,-6.3125,-6.3531,-6.3531,0.0,0.0,0.0,0.0,0.0,0.0,0.0,0.0,0.0,0.0,0.0,0.0,0.0,0.0,0.0,0.0,0.0,0.0,0.0,0.0,0.0,-7.9983,-8.0423,-8.0624,-8.1953,-8.3437,-8.4961,-8.5898,-8.6562,-8.6914,-8.6836,-8.6797,-8.6797,-8.7539,-8.8125,-8.8359,-8.9179,-8.9531,-8.9336,-8.9469,-8.9138,-8.8265,-8.7832,-8.7316,-8.6709,-8.6481,-8.6376,-8.6389,-8.5706,-8.4931,-8.4067,-8.3269,-8.2414,-8.1627,-8.1553,-8.1524,-8.1522,-8.12,-8.1093,-8.1093,-8.1093,-8.1093,-8.1093,-8.1093,-8.0708,-8.0131,-7.99,-7.9515,-7.9131,-7.8631,-7.8977,-7.916,-7.726,-7.7322,-7.7524,-7.5735,-7.5562,-7.5652,-7.484,-7.4648,-7.4471,-7.3851,-7.3185,-7.2532,-7.1945,-7.1027,-6.9889,-6.8495,-6.776,-6.71,-6.6292,-6.6366,-6.6512,-6.6512,-6.7173,-6.7907,-6.8495,-6.8568,-6.8568,-6.8568,-6.8568,-6.7689,-6.5633,-6.5879,-6.4816,-6.188,-6.2322,-6.2336,-6.1608,-6.2854,-6.3531,0.0,0.0,0.0,0.0,0.0,0.0,0.0,0.0,0.0,0.0,0.0,0.0,0.0,0.0,0.0,0.0,0.0,0.0,0.0,0.0,0.0,0.0,-8.1275,-8.2328,-8.3554,-8.4297,-8.5469,-8.7539,-8.8554,-8.9414,-9.0234,-9.0234,-9.0195,-9.0195,-9.0937,-9.1406,-9.1406,-9.1914,-9.2187,-9.2187,-9.1955,-9.1403,-9.0574,-8.9809,-8.9042,-8.8236,-8.7879,-8.7696,-8.7668,-8.6623,-8.6085,-8.5851,-8.4338,-8.3597,-8.3396,-8.2582,-8.2233,-8.2209,0.0,0.0,0.0,0.0,-8.1093,-8.1093,-8.1093,-8.0785,-8.0285,-7.9939,-7.9708,-7.9438,-7.8707,-7.9092,-7.9469,-7.7768,-7.7969,-7.8362,-7.6822,-7.6814,-7.6979,-7.6214,-7.6141,-7.6142,-7.563,-7.5064,-7.4404,-7.3527,-7.2797,0.0,-7.0183,-6.9229,-6.8531,-6.8091,-6.7724,-6.7504,-6.7504,-6.7614,-6.7871,-6.8348,-6.8385,-6.8385,-6.8385,-6.8385,0.0,0.0,0.0,-6.5257,-6.2503,-6.2509,0.0,0.0,0.0,-6.3835,-6.3531,-6.4241,0.0,0.0,-6.4715,-6.529,0.0,0.0,0.0,0.0,0.0,0.0,0.0,0.0,0.0,0.0,0.0,0.0,0.0,0.0,0.0,0.0,-8.332,-8.4961,-8.7578,-8.7499,-8.7967,-9.0155,-9.1129,-9.1947,-9.273,-9.3513,-9.4022,-9.4139,-9.4804,-9.5234,-9.5351,-9.5234,0.0,0.0,0.0,-9.4099,-9.2615,-9.2235,-9.1231,-8.9674,-8.9621,-8.9598,-8.9528,-8.8087,-8.7865,-8.8451,-8.607,-8.541,-8.5793,-8.4083,-8.3318,-8.3116,-8.2092,-8.1582,-8.1371,-8.121,-8.1139,-8.1093,-8.1093,0.0,0.0,-8.0208,-8.0477,-8.0823,-7.9246,-7.9323,-7.9746,-7.89,-7.8707,-7.8669,-7.8094,-7.8024,-7.7913,-7.7265,-7.7155,-7.7127,-7.7052,-7.6576,-7.5876,-7.4907,-7.4247,-7.3303,-7.1725,-7.077,-7.0183,-7.011,-6.9412,-6.8898,-6.8898,-6.8201,-6.7724,-6.7834,-6.7834,0.0,-6.7834,-6.7834,-6.743,-6.6549,-6.6323,-6.5509,-6.3886,-6.291,-6.2474,-6.2542,-6.3746,-6.4106,-6.3632,-6.4208,-6.4546,-6.4749,-6.5392,-6.5696,0.0,0.0,0.0,0.0,0.0,0.0,0.0,0.0,0.0,0.0,0.0,0.0,0.0,0.0,0.0,-8.2905,-8.5147,-8.7656,-9.0195,-9.205,-9.3064,-9.2869,-9.3398,-9.385,-9.4045,-9.4412,-9.4899,-9.5606,-9.5382,-9.5508,-9.6211,-9.5586,-9.5195,-9.5195,-9.4925,-9.4641,-9.4333,-9.3405,-9.2446,-9.1395,-9.0924,0.0,-9.0672,-8.9824,-8.9528,-8.9606,-8.8435,-8.7224,-8.609,-8.5733,-8.5184,-8.4357,-8.2428,-8.1582,-8.1407,-8.1374,-8.1256,-8.1093,-8.1093,-8.1093,-8.1054,-8.09,-8.0977,-8.1054,-8.0708,-8.0708,0.0,-7.9785,-8.0054,-8.0423,-7.9614,-7.9944,-8.0219,-7.9407,-7.9321,-7.9301,-7.8616,-7.8154,-7.7378,-7.5913,-7.5135,-7.4184,-7.2569,-7.1615,-7.0844,-7.0183,-6.9412,-6.8898,-6.8898,-6.8201,-6.7944,-6.8605,-6.8678,-6.8678,-6.8678,-6.8678,-6.8054,-6.6586,-6.5232,-6.4318,-6.3961,-6.306,-6.2843,-6.3427,-6.3047,-6.3328,-6.4377,-6.3937,-6.4343,-6.5493,-6.5628,-6.5696,0.0,0.0,0.0,0.0,0.0,0.0,0.0,0.0,0.0,0.0,0.0,-8.121,-8.1494,0.0,-8.3812,-8.6259,-8.82,-9.0272,-9.2714,-9.4305,-9.5135,-9.4822,-9.5346,-9.5874,-9.6293,-9.6577,-9.6939,-9.7324,-9.7212,-9.7109,-9.7109,-9.6679,-9.6445,-9.6445,-9.632,-9.6073,-9.5643,-9.5141,-9.4411,-9.3552,-9.3246,-9.287,-9.2443,-9.1638,-9.1289,-9.1211,-8.9922,-8.8867,-8.8047,-8.7187,-8.6012,-8.4661,-8.402,-8.3345,-8.2795,-8.26,-8.216,-8.1708,-8.1708,-8.1439,-8.1093,-8.1093,-8.1093,-8.1093,-8.1093,-8.1093,-8.1016,-8.0554,-8.0746,-8.1016,-8.0554,-8.0785,-8.0977,-8.0554,-8.0548,-8.0493,-8.0072,-7.9239,-7.8163,-7.6662,-7.5489,-7.4284,-7.2773,-7.2165,-7.1762,-7.1358,-7.0257,-6.9486,-6.9486,-6.8458,-6.7834,-6.8238,-6.8311,-6.8311,-6.8311,-6.8678,-6.8568,-6.776,-6.691,-6.6398,-6.6398,-6.5133,-6.4393,-6.431,-6.4205,-6.4318,-6.4613,-6.4986,-6.5527,-6.6237,-6.6237,-6.6237,0.0,0.0,0.0,0.0,0.0,0.0,0.0,-7.9438,-8.0208,-7.9862,-8.09,-8.2347,-8.3995,-8.47,-8.6182,-8.9684,-9.1133,-9.2572,-9.4766,-9.5587,-9.6006,-9.6174,-9.6593,-9.7121,-9.7859,-9.8182,-9.8425,-9.8531,-9.865,-9.8515,-9.7969,-9.7773,-9.7695,-9.7695,-9.7695,-9.7383,-9.6758,-9.6719,-9.6289,-9.5469,-9.5469,-9.5,-9.4101,-9.3242,-9.2851,-9.2773,-9.1015,-9.0156,-8.9883,-8.8318,-8.6657,-8.5145,-8.5526,-8.5149,-8.433,-8.3641,-8.2941,-8.2285,-8.2131,-8.1631,-8.1093,-8.1093,-8.1093,-8.1093,-8.1093,-8.1093,-8.1054,-8.09,-8.0977,-8.1016,-8.0669,-8.0862,-8.1054,-8.09,-8.0977,-8.1093,-8.1093,-8.0054,-7.8692,-7.7111,-7.5754,-7.4349,-7.2786,-7.2496,-7.2496,-7.2496,-7.1248,-7.033,-7.033,-6.8935,-6.7907,-6.7907,-6.7797,-6.7687,-6.7687,-6.8458,-6.8898,-6.8898,-6.899,-6.9062,-6.9062,-6.7386,-6.6204,-6.5617,-6.5854,-6.5638,-6.5066,-6.6256,-6.6852,-6.6812,-6.6812,-6.6812,-8.1093,-8.0516,-7.9939,-7.9823,-7.9746,-7.9438,0.0,-8.0323,-8.1593,-8.0131,-8.2285,-8.4431,-8.4306,-8.6132,-8.8436,-9.0778,-9.2539,-9.4174,-9.5746,-9.649,-9.6779,-9.6579,-9.6444,-9.6411,-9.6527,-9.6939,-9.7524,-9.8264,-9.8037,-9.8125,-9.8828,-9.8125,-9.7695,-9.7695,-9.7695,-9.7656,-9.7578,-9.7578,-9.7148,-9.6367,-9.6367,-9.5898,-9.5039,-9.414,-9.375,-9.3672,-9.1914,-9.0703,-8.9921,-8.8756,-8.7702,-8.6731,-8.566,-8.5169,-8.4901,-8.3319,-8.2543,-8.2208,-8.1477,-8.117,-8.1093,-8.1093,-8.1093,-8.1093,-8.1093,-8.1093,-8.0939,-8.0169,-8.0516,-8.0746,-7.9169,-7.9939,-8.09,-8.0131,-8.0554,-8.1093,-8.1093,-8.0514,-7.934,-7.7225,-7.6204,-7.5071,-7.2896,-7.2496,-7.2496,-7.2496,-7.1762,-7.1174,-7.1174,-6.9779,-6.8788,-6.8788,-6.8128,-6.7687,-6.7687,-6.8458,-6.8898,-6.8898,-6.9549,-6.9961,-6.9961,-6.8361,-6.7729,-6.8255,-6.6896,-6.6356,-6.6708,-6.6958,-6.697,-6.6812,-6.6812,-6.6812,-7.9862,-7.9323,-7.8938,-7.8477,-7.8361,-7.8515,-7.9131,-8.0823,-8.2247,-8.2054,-8.4324,-8.6553,-8.7175,-8.8809,-9.0771,-9.299,-9.4259,-9.5284,-9.6245,-9.6616,-9.6489,-9.5747,-9.6149,-9.6683,-9.7186,-9.7557,-9.797,-9.8435,-9.8448,-9.8398,-9.8242,-9.789,-9.7695,-9.7695,-9.7695,-9.7695,-9.7695,-9.7695,-9.7304,-9.6484,-9.6484,-9.5781,-9.4414,-9.4062,-9.3633,-9.3047,-9.1289,-9.0351,-8.9882,-8.8279,-8.7068,-8.6104,-8.5473,-8.483,-8.4161,-8.3466,-8.2824,-8.2247,-8.19,-8.1477,-8.1093,-8.1093,-8.1093,-8.1093,-8.1093,-8.1093,-8.1016,-8.0669,-8.0823,-8.0823,-7.9592,-7.9785,-8.0246,-7.99,-8.0092,-8.0477,-8.0977,-8.0065,-7.8688,-7.71,-7.5833,-7.4424,-7.2769,-7.2496,-7.2496,-7.2496,-7.1835,-7.1138,-7.066,-6.9633,-6.8715,-6.8238,-6.7907,-6.7871,-6.8348,-6.9155,-6.9596,-6.9596,-7.0367,-7.0807,-7.0807,-6.9214,-6.8691,-6.943,-6.8259,-6.7475,-6.7042,-6.753,-6.7398,-6.6812,-6.6812,-6.6812,-7.9285,-7.8861,-7.8669,-7.7823,-7.7977,-7.8707,-8.0169,-8.1977,-8.3593,-8.4478,-8.6478,-8.8413,-8.9447,-9.0668,-9.2204,-9.4335,-9.505,-9.5651,-9.6577,-9.6501,-9.5984,-9.4961,-9.5321,-9.6022,-9.6959,-9.7674,-9.8103,-9.8251,-9.85,-9.8359,-9.7734,-9.7695,-9.7695,-9.7695,-9.7695,-9.7695,-9.7695,-9.7695,-9.7304,-9.6484,-9.6484,-9.5586,-9.3867,-9.3398,-9.2851,-9.2148,-9.039,-8.9531,-8.9179,-8.7397,-8.6059,-8.508,-8.4591,-8.3919,-8.3208,-8.2978,-8.2631,-8.2285,-8.2054,-8.1593,-8.1093,-8.1093,-8.1093,-8.1093,-8.1093,-8.1093,-8.1054,-8.0823,-8.09,-8.0823,-7.9746,-7.9785,-8.0092,-7.9862,-7.9977,-8.0323,-8.0977,-8.0092,-7.8771,-7.7331,-7.5917,-7.4506,-7.299,-7.2602,-7.2422,-7.2202,-7.1872,-7.1431,-7.0844,-6.9853,-6.8935,-6.8128,-6.8017,-6.8274,-6.8862,-6.9633,-7.0,-6.9779,-7.0513,-7.0991,-7.0991,-6.9633,-6.9161,-6.9691,-6.9086,-6.821,-6.7143,-6.7913,-6.7778,-6.6812,-6.6812,-6.6812,-8.0015,-7.9746,-7.9554,-7.8669,-7.9708,-8.1208,-8.2016,-8.417,-8.6247,-8.7094,-8.8632,-8.9921,-9.0236,-9.0947,-9.2133,-9.4096,-9.4444,-9.5018,-9.6769,-9.6254,-9.5389,-9.4514,-9.3697,-9.3639,-9.4763,-9.6422,-9.7446,-9.7446,-9.7604,-9.7734,-9.7695,-9.7695,-9.7695,-9.7695,-9.7695,-9.7695,-9.7695,-9.7695,-9.7304,-9.6484,-9.6484,-9.5586,-9.3828,-9.2148,-9.1367,-9.125,-8.9492,-8.8281,-8.746,-8.6128,-8.5035,-8.4129,-8.288,-8.2378,-8.2247,-8.1477,-8.1631,-8.217,-8.14,-8.1131,-8.1093,-8.1093,-8.1093,-8.1093,-8.1093,-8.1093,-8.0939,-8.0092,-8.0439,-8.0708,-7.8977,-7.9785,-8.0862,-8.0015,-8.0439,-8.1054,-8.1093,-8.1054,-8.035,-7.8101,-7.7176,-7.6007,-7.3753,-7.2899,-7.2239,-7.1439,-7.1982,-7.2459,-7.2422,-7.1027,-6.9743,-6.8972,-6.8862,-6.8862,-6.8898,-6.9633,-6.9779,-6.9009,-6.9706,-7.0146,-7.0146,-6.9339,-6.8908,-6.8944,-6.888,-6.8361,-6.7269,-6.8116,-6.7913,-6.6812,-6.6812,-6.6812,-7.9323,-7.9361,-7.9746,-7.9438,-8.0246,-8.1593,-8.3593,-8.5555,-8.7055,-8.7325,-8.8325,-8.8997,-8.8636,-8.8692,-8.9615,-9.2055,-9.2843,-9.3974,-9.6385,-9.6487,-9.5627,-9.3823,-9.4488,-9.4775,-9.4007,-9.4987,-9.6226,-9.7487,-9.7655,-9.7695,-9.7695,-9.7695,-9.7695,-9.7695,-9.7695,-9.7695,-9.7695,-9.7187,-9.6484,-9.5625,-9.4453,-9.3281,-9.2148,-9.1562,-9.0664,-8.9492,-8.8398,-8.7422,-8.6483,-8.4607,-8.3673,-8.3282,-8.1978,-8.1516,-8.1477,-8.1208,-8.1285,-8.1477,-8.1208,-8.1093,-8.1093,-8.1093,-8.1093,-8.1093,-8.1093,-8.1093,-8.1054,-8.0746,-8.0862,-8.0823,-7.9669,-7.9785,-8.0169,-7.9862,-8.0015,-8.04,-8.0977,-8.0169,-7.906,-7.7928,-7.6303,-7.4779,-7.3591,-7.2889,-7.2239,-7.1403,-7.1101,-7.0917,-7.0917,-6.9963,-6.9009,-6.8201,-6.8568,-6.8898,-6.8898,-6.9633,-6.9743,-6.8972,-6.9155,-6.9302,-6.9302,-6.8531,-6.8605,-6.9669,-6.9192,-6.8655,-6.8238,-6.8425,-6.7931,-6.6907,-6.6833,-6.6812,-7.89,-7.9361,-8.0246,-8.0246,-8.1362,-8.2978,-8.4901,-8.6632,-8.7786,-8.744,-8.7863,-8.8001,-8.7258,-8.6786,-8.7269,-8.9653,-9.0124,-9.1429,-9.4898,-9.4843,-9.4317,-9.3965,-9.4454,-9.4649,-9.4144,-9.461,-9.5721,-9.7578,-9.7695,-9.7695,-9.7695,-9.7695,-9.7695,-9.7695,-9.7695,-9.7578,-9.7265,-9.6758,-9.5898,-9.4726,-9.2969,-9.1836,-9.1289,-9.0664,-8.9609,-8.8203,-8.707,-8.6094,-8.5116,-8.3282,-8.2544,-8.2426,-8.1476,-8.1093,-8.1093,-8.1093,-8.1093,-8.1093,-8.1093,-8.1093,-8.1093,-8.1093,-8.1093,-8.1093,-8.1093,-8.1093,-8.1093,-8.1093,-8.1093,-8.0977,-8.04,-8.0246,-8.0246,-8.0246,-8.0246,-8.0439,-8.0977,-8.0208,-7.9246,-7.8599,-7.6846,-7.5237,-7.4329,-7.2976,-7.1908,-7.1366,-7.0624,-7.011,-7.011,-6.9412,-6.8825,-6.8568,-6.9009,-6.9229,-6.8935,-6.9633,-6.9633,-6.8531,-6.8458,-6.8458,-6.8458,-6.7944,-6.8164,-6.9229,-6.9009,-6.869,-6.8255,-6.8418,-6.7972,-6.7,-6.6862,-6.6812,-7.8823,-7.9862,-8.117,-8.1208,-8.3093,-8.5093,-8.5879,-8.7358,-8.8337,-8.7429,-8.7237,-8.6951,-8.6088,-8.528,-8.5302,-8.7171,-8.6786,-8.791,-9.2715,-9.1962,-9.1996,-9.484,-9.3789,-9.3437,-9.5039,-9.5234,-9.5937,-9.7578,-9.7695,-9.7695,-9.7695,-9.7695,-9.7695,-9.7695,-9.7695,-9.7304,-9.6523,-9.6406,-9.5508,-9.3828,-9.2109,-9.1289,-9.1172,-8.9453,-8.8203,-8.7265,-8.5625,-8.4375,-8.3437,-8.2223,-8.1688,-8.164,-8.1244,-8.1093,-8.1093,-8.1093,-8.1093,-8.1093,-8.1093,-8.1093,-8.1093,-8.1093,-8.1093,-8.1093,-8.1093,-8.1093,-8.1093,-8.1093,-8.1093,-8.1093,-8.1093,-8.1093,-8.1093,-8.1093,-8.1093,-8.1093,-8.1093,-8.1054,-8.0785,-7.9977,-7.8582,-7.7093,-7.5544,-7.3041,-7.1219,-7.1183,-7.0477,-7.0,-7.0036,-6.9376,-6.9192,-6.9889,-7.0,-6.9706,-6.8898,-6.9596,-6.9376,-6.7797,-6.7687,-6.7687,-6.7687,-6.7687,-6.7687,-6.7687,-6.8458,-6.839,-6.7486,-6.8199,-6.8045,-6.7083,-6.695,-6.6896,-8.0053,-8.1208,-8.2131,-8.2785,-8.3939,-8.4981,-8.5341,-8.6246,-8.6623,-8.5275,-8.5007,-8.471,-8.3682,-8.2819,-8.3628,-8.7721,-8.8171,-8.9848,-9.5003,-9.5532,-9.5245,-9.4934,-9.5265,-9.5429,-9.5234,-9.5781,-9.6601,-9.7617,-9.7695,-9.7695,-9.7695,-9.7695,-9.7695,-9.7695,-9.7695,-9.7304,-9.6523,-9.5195,-9.4023,-9.2929,-9.1836,-9.0976,-9.0273,-8.9219,-8.7539,-8.5547,-8.5078,-8.4023,-8.2577,-8.1951,-8.1688,-8.164,-8.1244,-8.1093,-8.1093,-8.1093,-8.1093,-8.1093,-8.1093,-8.1093,-8.1093,-8.1093,-8.1093,-8.1093,-8.1093,-8.1093,-8.1093,-8.1093,-8.1093,-8.1093,-8.1093,-8.1093,-8.1093,-8.1093,-8.1093,-8.1093,-8.1093,-8.0592,-8.0092,-7.9862,-7.7797,-7.5283,-7.2811,-7.1278,-7.022,-6.9596,-6.8825,-6.8531,-6.9119,-6.9045,-6.8752,-6.8348,-6.8862,-6.8862,-6.8054,-6.8752,-6.8788,-6.776,-6.7687,-6.7687,-6.7687,-6.7687,-6.7687,-6.7687,-6.7907,-6.7899,-6.767,-6.8311,-6.8525,-6.823,-6.798,-6.7866,-8.0558,-8.1708,-8.267,-8.4286,-8.4786,-8.5027,-8.5487,-8.5732,-8.5304,-8.3377,-8.3027,-8.2802,-8.1685,-8.0814,-8.1749,-8.6274,-8.6709,-8.8451,-9.4146,-9.5052,-9.5505,-9.6412,-9.6755,-9.6903,-9.6875,-9.6953,-9.7226,-9.7656,-9.7695,-9.7695,-9.7695,-9.7695,-9.7539,-9.7187,-9.7187,-9.6601,-9.5351,-9.4023,-9.289,-9.2031,-9.1523,-9.0625,-8.9414,-8.8906,-8.7304,-8.4922,-8.5312,-8.4258,-8.2304,-8.2262,-8.2038,-8.164,-8.1244,-8.1093,-8.1093,-8.1093,-8.1093,-8.1093,-8.1093,-8.1093,-8.1093,-8.1093,-8.1093,-8.1093,-8.1093,-8.1093,-8.1093,-8.1093,-8.1093,-8.1093,-8.1093,-8.1093,-8.1093,-8.1093,-8.1093,-8.1093,-8.1093,-8.0487,-7.9633,-7.8615,-7.6933,-7.4934,-7.2616,-7.1324,-7.0367,-6.9559,-6.8752,-6.8238,-6.8348,-6.8385,-6.8348,-6.8238,-6.8641,-6.8568,-6.776,-6.8458,-6.8568,-6.7724,-6.7687,-6.7687,-6.7687,-6.7687,-6.7687,-6.7687,-6.8054,-6.8054,-6.7687,-6.8717,-6.9043,-6.8692,-6.8357,-6.8189,-8.1118,-8.2285,-8.3516,-8.5709,-8.567,-8.5225,-8.5851,-8.5432,-8.4204,-8.1807,-8.1481,-8.1291,-8.0358,-7.9453,-8.0284,-8.4618,-8.4612,-8.6143,-9.2263,-9.3142,-9.4496,-9.7987,-9.7795,-9.7689,-9.8623,-9.8083,-9.7655,-9.7655,-9.7695,-9.7695,-9.7695,-9.7695,-9.7344,-9.6523,-9.6172,-9.5312,-9.3906,-9.2812,-9.1992,-9.1484,-9.125,-9.0351,-8.8867,-8.875,-8.7383,-8.5117,-8.5859,-8.4765,-8.2499,-8.2847,-8.2505,-8.164,-8.1244,-8.1093,-8.1093,-8.1093,-8.1093,-8.1093,-8.1093,-8.1093,-8.1093,-8.1093,-8.1093,-8.1093,-8.1093,-8.1093,-8.1093,-8.1093,-8.1016,-8.0939,-8.1054,-8.1016,-8.0977,-8.1054,-8.1093,-8.1093,-8.1093,-8.0643,-7.9513,-7.7181,-7.6327,-7.5394,-7.3464,-7.2105,-7.0991,-7.0073,-6.9339,-6.8605,-6.7797,-6.7687,-6.7944,-6.8678,-6.8752,-6.8458,-6.7787,-6.8348,-6.8458,-6.7724,-6.7687,-6.7687,-6.7687,-6.7687,-6.7687,-6.7687,-6.8495,-6.8568,-6.7834,-6.9345,-6.9736,-6.9059,-6.8717,-6.8534,-8.3316,-8.5363,-8.6632,-8.7055,-8.6517,-8.579,-8.546,-8.4333,-8.2901,-8.1193,-8.0963,-8.099,-8.0661,-7.9895,-8.1124,-8.6641,-8.6797,-8.824,-9.4046,-9.5072,-9.5649,-9.6834,-9.7022,-9.7121,-9.7317,-9.7416,-9.7437,-9.7437,-9.7609,-9.7695,-9.7695,-9.7695,-9.7344,-9.6523,-9.4414,-9.3476,-9.3906,-9.1601,-9.1094,-9.2344,-9.0898,-9.0078,-8.9765,-8.9023,-8.7695,-8.5976,-8.6133,-8.5117,-8.3358,-8.3081,-8.2505,-8.164,-8.1244,-8.1093,-8.1093,-8.1093,-8.1093,-8.1093,-8.1093,-8.1093,-8.1093,-8.1093,-8.1093,-8.1093,-8.1093,-8.1093,-8.1093,-8.1093,-8.0592,-8.0208,-8.09,-8.0554,-8.0208,-8.0939,-8.1093,-8.1093,-8.1093,-8.0991,-8.0093,-7.7311,-7.6723,-7.5577,-7.2253,-7.1479,-7.0807,-6.9339,-6.9009,-6.8605,-6.7797,-6.7687,-6.7724,-6.7871,-6.7907,-6.7834,-6.7714,-6.7834,-6.7834,-6.7714,-6.7687,-6.7687,-6.7687,-6.7687,-6.7687,-6.7687,-6.8495,-6.8825,-6.8715,-7.0299,-7.0982,-7.0836,-7.0694,-7.0194,-8.527,-8.6786,-8.7594,-8.8479,-8.7094,-8.5536,-8.5759,-8.4019,-8.1888,-8.0324,-8.0529,-8.0661,-7.9548,-7.937,-8.0734,-8.4723,-8.4643,-8.6098,-9.1863,-9.3155,-9.429,-9.6345,-9.7122,-9.751,-9.7664,-9.7387,-9.7246,-9.7402,-9.7064,-9.694,-9.707,-9.6211,-9.5351,-9.4492,-9.2383,-9.1445,-9.1875,-9.0195,-8.9685,-9.0408,-9.0484,-8.982,-8.8531,-8.9468,-8.8544,-8.625,-8.7109,-8.6289,-8.4257,-8.3974,-8.326,-8.2318,-8.1565,-8.1196,-8.1093,-8.1093,-8.1093,-8.1093,-8.1093,-8.1093,-8.1093,-8.1093,-8.1093,-8.1093,-8.1093,-8.1093,-8.1016,-8.0554,-8.0439,-8.0362,-7.9862,-7.9785,-7.99,-8.0323,-8.0785,-8.0991,-8.0643,-8.0315,-7.9485,-7.7358,-7.6368,-7.5129,-7.2933,-7.1872,-7.0917,-6.9706,-6.9192,-6.8605,-6.7797,-6.7687,-6.7687,-6.7687,-6.7687,-6.7687,-6.7687,-6.7687,-6.7687,-6.7687,-6.7687,-6.7687,-6.7687,-6.7687,-6.7687,-6.7687,-6.8495,-6.8898,-6.8898,-7.055,-7.1293,-7.1293,-7.1179,-7.0601,-8.6709,-8.7814,-8.8517,-8.9863,-8.7671,-8.5382,-8.6223,-8.3824,-8.1031,-7.9661,-8.01,-8.0232,-7.871,-7.8855,-7.9998,-8.2377,-8.1883,-8.3089,-8.8506,-9.0155,-9.1979,-9.513,-9.6588,-9.7406,-9.7565,-9.702,-9.6767,-9.7004,-9.5972,-9.5597,-9.6172,-9.4765,-9.3515,-9.2617,-9.0742,-8.9726,-8.9726,-8.8672,-8.8276,-8.8465,-9.0026,-8.9711,-8.7801,-8.9867,-8.9314,-8.6797,-8.7969,-8.7187,-8.5156,-8.4765,-8.3956,-8.2878,-8.1801,-8.1285,-8.1093,-8.1093,-8.1093,-8.1093,-8.1093,-8.1093,-8.1093,-8.1093,-8.1093,-8.1093,-8.1093,-8.1093,-8.0939,-8.0054,-8.0169,-8.0208,-7.8861,-7.8861,-7.9361,-7.9708,-8.0323,-8.0728,-8.0407,-7.9929,-7.916,-7.7515,-7.6191,-7.4976,-7.3848,-7.25,-7.1248,-7.0257,-6.9559,-6.8788,-6.7834,-6.7687,-6.7687,-6.7687,-6.7687,-6.7687,-6.7687,-6.7687,-6.776,-6.7944,-6.7944,-6.7944,-6.7944,-6.8091,-6.8128,-6.7944,-6.8935,-6.9412,-6.9412,-7.0881,-7.155,-7.155,-7.1472,-7.0898,-8.7191,-8.9216,-9.0902,-9.1056,-8.8517,-8.6037,-8.6339,-8.3359,-8.033,-7.9544,-7.9631,-7.9765,-7.9609,-7.9023,-7.9413,-8.195,-8.0973,-8.135,-8.562,-8.7632,-8.9504,-9.1696,-9.4082,-9.5477,-9.5311,-9.5438,-9.5619,-9.5854,-9.4044,-9.3632,-9.5234,-9.4414,-9.3515,-9.2617,-9.0156,-8.8828,-8.8828,-8.7226,-8.7187,-8.8671,-8.9647,-8.996,-8.9726,-8.9999,-8.9492,-8.8437,-8.7851,-8.7031,-8.6015,-8.4999,-8.3956,-8.2878,-8.1801,-8.1285,-8.1093,-8.1093,-8.1093,-8.1093,-8.1093,-8.1093,-8.1093,-8.1093,-8.1093,-8.1093,-8.1093,-8.1093,-8.0939,-8.0054,-7.9285,-7.8707,-7.8515,-7.8015,-7.79,-7.9438,-7.9862,-8.0115,-8.0853,-8.0959,-8.0272,-7.8085,-7.7105,-7.592,-7.3789,-7.2834,-7.1872,-7.033,-7.0036,-6.9449,-6.7898,-6.7687,-6.7687,-6.7687,-6.7687,-6.7687,-6.7687,-6.7687,-6.8017,-6.8752,-6.8788,-6.8788,-6.8788,-6.9486,-6.9522,-6.8788,-7.0293,-7.1073,-7.1073,-7.1982,-7.2386,-7.2386,-7.2372,-7.1854,-8.8435,-9.0097,-9.1325,-9.1864,-8.9017,-8.6177,-8.6572,-8.3813,-8.1026,-8.0478,-8.0856,-8.0781,-7.9258,-7.8711,-7.8436,-7.8303,-7.6814,-7.6744,-7.9766,-8.0786,-8.304,-8.7875,-8.9757,-9.1615,-9.3977,-9.4309,-9.404,-9.3228,-9.2216,-9.1726,-9.1885,-9.1676,-9.0937,-8.957,-8.8008,-8.6953,-8.6406,-8.5742,-8.5934,-8.6962,-8.8915,-8.9539,-8.9071,-9.0125,-8.9908,-8.8672,-8.8359,-8.7734,-8.6914,-8.597,-8.5153,-8.4365,-8.2919,-8.2131,-8.1747,-8.1285,-8.1093,-8.1093,-8.1093,-8.1093,-8.1093,-8.1093,-8.1093,-8.1093,-8.1093,-8.0746,-8.0131,-7.9246,-7.8746,-7.8246,-7.7246,-7.7515,-7.8169,-7.8861,-7.9823,-8.0669,-8.1016,-8.0767,-8.0254,-7.9324,-7.7581,-7.5944,-7.507,-7.3554,-7.2129,-7.0991,-7.0403,-6.9669,-6.8568,-6.8421,-6.8238,-6.7724,-6.7687,-6.7687,-6.7687,-6.7687,-6.8017,-6.8862,-6.8898,-6.9119,-6.9596,-6.9926,-6.9963,-6.9633,-7.0734,-7.1293,-7.1293,-7.2129,-7.2496,-7.2496,-7.2496,-7.2267,-8.8116,-8.9441,-9.045,-9.1338,-8.8726,-8.6017,-8.6411,-8.3856,-8.1338,-8.1051,-8.1484,-8.1289,-7.9219,-7.8672,-7.7848,-7.5927,-7.4155,-7.3575,-7.5216,-7.5891,-7.8038,-8.2968,-8.4936,-8.7371,-9.1165,-9.2459,-9.2342,-9.062,-9.0071,-8.9497,-8.8708,-8.8549,-8.8203,-8.7539,-8.6406,-8.539,-8.4531,-8.4531,-8.4878,-8.5582,-8.8159,-8.9099,-8.8552,-9.0036,-8.9982,-8.8672,-8.8437,-8.8008,-8.7422,-8.6562,-8.5927,-8.5346,-8.3641,-8.2699,-8.2208,-8.14,-8.1093,-8.1093,-8.1093,-8.1093,-8.1093,-8.1093,-8.1093,-8.1054,-8.0785,-8.0285,-7.9631,-7.8746,-7.813,-7.7476,-7.6322,-7.7053,-7.8207,-7.8438,-7.9631,-8.0785,-8.1054,-8.0733,-8.0312,-8.0064,-7.7949,-7.6094,-7.5807,-7.3976,-7.2239,-7.1403,-7.0844,-7.0146,-6.9376,-6.9265,-6.8935,-6.8128,-6.8274,-6.8311,-6.8054,-6.8274,-6.8752,-6.9559,-6.9633,-6.9853,-7.044,-7.066,-7.0697,-7.0477,-7.1248,-7.1651,-7.1688,-7.2239,-7.2496,-7.2496,-7.2496,-7.2449,-8.5492,-8.6897,-8.8222,-8.9125,-8.7422,-8.5572,-8.5776,-8.3155,-8.0768,-8.0975,-8.1015,-8.0742,-7.9844,-7.9023,-7.7848,-7.5927,-7.4155,-7.302,-7.302,-7.4503,-7.5939,-7.6808,-7.9767,-8.3019,-8.6159,-8.9526,-9.0594,-8.8308,-8.7532,-8.6873,-8.6289,-8.5429,-8.5742,-8.7461,-8.582,-8.4492,-8.3633,-8.3594,-8.4062,-8.4922,-8.75,-8.8711,-8.8711,-8.9609,-8.9531,-8.8672,-8.7851,-8.75,-8.7422,-8.6562,-8.5927,-8.5346,-8.3641,-8.2699,-8.2208,-8.14,-8.1093,-8.1093,-8.1093,-8.1093,-8.1093,-8.1093,-8.1093,-8.0939,-8.0092,-7.9823,-7.9631,-7.8746,-7.7323,-7.6015,-7.6015,-7.663,-7.7515,-7.8284,-7.9169,-8.0054,-8.09,-8.1093,-8.0808,-7.9962,-7.818,-7.6526,-7.5636,-7.3811,-7.2239,-7.1403,-7.1293,-7.0991,-7.0183,-7.0073,-6.9779,-6.8972,-6.9596,-6.9743,-6.8972,-6.9633,-7.0403,-7.1219,-7.1256,-7.1256,-7.1321,-7.2055,-7.2092,-7.1293,-7.2092,-7.2496,-7.2496,-7.2496,-7.2496,-7.2496,-7.2496,-7.2449,-8.5106,-8.6262,-8.7366,-8.8213,-8.6519,-8.4677,-8.4878,-8.3194,-8.1666,-8.1834,-8.1406,-8.0742,-7.9844,-7.8086,-7.6286,-7.4948,-7.3254,-7.1689,-7.0558,-7.2395,-7.4574,-7.6579,-8.2259,-8.6639,-8.8225,-8.9362,-8.9207,-8.7345,-8.659,-8.5903,-8.5155,-8.3862,-8.3633,-8.4804,-8.4883,-8.4219,-8.2734,-8.4492,-8.5234,-8.4922,-8.8086,-8.9297,-8.8711,-8.9609,-8.9531,-8.8672,-8.7851,-8.75,-8.7422,-8.6562,-8.5927,-8.5346,-8.3641,-8.2699,-8.2208,-8.14,-8.1093,-8.1093,-8.1093,-8.1093,-8.1093,-8.1093,-8.0708,-8.0169,-7.99,-7.9361,-7.8631,-7.7207,-7.6399,-7.6015,-7.6015,-7.7053,-7.8169,-7.8438,-7.9631,-8.0746,-8.1054,-8.1093,-8.1016,-8.0746,-7.9374,-7.8017,-7.7348,-7.5371,-7.3922,-7.3765,-7.2386,-7.1431,-7.1688,-7.1284,-7.0624,-6.9816,-7.0917,-7.0991,-6.9082,-6.9633,-7.044,-7.1219,-7.1293,-7.1578,-7.2092,-7.2349,-7.2386,-7.2129,-7.2386,-7.2496,-7.2496,-7.2496,-7.2789,-7.334,-7.4441,-7.4572,-8.4048,-8.4988,-8.5715,-8.659,-8.5404,-8.403,-8.4131,-8.2857,-8.1654,-8.1706,-8.1006,-8.0025,-7.8755,-7.6953,-7.5257,-7.3948,-7.2569,-7.1174,-6.9887,-7.1611,-7.3953,-7.6517,-8.1816,-8.5711,-8.6825,-8.7509,-8.7339,-8.6052,-8.5292,-8.4536,-8.3755,-8.2807,-8.2539,-8.3086,-8.3633,-8.3398,-8.2304,-8.4258,-8.5117,-8.4922,-8.7734,-8.8789,-8.8281,-8.9101,-8.9062,-8.8203,-8.7383,-8.6992,0.0,-8.6054,-8.5473,-8.5013,-8.3586,-8.2764,-8.2304,-8.1424,-8.1093,-8.1093,-8.1093,-8.1093,-8.1093,-8.1093,-8.0285,-7.9246,-7.8938,-7.8477,-7.7746,-7.6399,-7.6015,-7.6092,-7.6399,-7.7476,-7.8592,-7.89,-8.0054,-8.1093,-8.1093,-8.1093,-8.1093,-8.1093,-7.9918,-7.877,-7.8407,-7.6535,-7.5124,-7.5254,-7.3542,-7.2386,-7.2899,-7.2275,-7.1431,-7.066,-7.1725,-7.1762,-6.9963,-7.055,-7.1211,-7.1725,-7.1762,-7.1982,-7.2496,-7.2496,-7.2496,-7.2496,-7.2496,-7.2496,-7.2496,-7.2789,-7.3193,-7.3744,-7.5359,-7.5781,0.0,-8.3042,-8.3305,-8.441,-8.3984,-8.3359,-8.3398,-8.2109,0.0,-8.066,-7.9896,-7.869,-7.6923,-7.5786,-7.4605,-7.3048,-7.2082,-7.1282,-7.0583,-7.2047,-7.4239,-7.7056,-7.9459,-8.148,-8.3006,-8.4521,-8.5201,-8.4568,-8.3791,-8.3008,-8.2344,-8.2304,-8.2304,-8.2304,-8.2304,-8.2304,-8.2304,-8.3242,-8.4101,-8.4922,-8.6679,-8.75,-8.7539,-8.8281,-8.8164,-8.7344,-8.6484,-8.6094,-8.6054,-8.5156,-8.4674,-8.4399,-8.3325,-8.2757,-8.2416,-8.1436,-8.1093,-8.1093,-8.1093,-8.1093,-8.1093,-8.0977,-7.9785,-7.8246,-7.7438,-7.7207,-7.7053,-7.6284,-7.6092,-7.6284,-7.7169,-7.7977,-7.8784,-7.9631,-8.0477,-8.1093,-8.1093,-8.1093,-8.1093,-8.1093,-7.9974,-7.9018,-7.898,-7.7364,-7.6066,-7.6089,-7.47,-7.3707,-7.378,-7.3046,-7.2202,-7.1439,-7.2055,-7.2202,-7.1439,-7.2092,-7.2496,-7.2496,-7.2496,-7.2496,-7.2496,-7.2496,-7.2496,-7.2496,-7.2496,-7.2496,-7.2496,-7.3303,-7.3707,-7.3817,-7.5395,-7.613,-8.0878,0.0,-8.0715,-8.2293,-8.163,-8.0781,0.0,-8.0781,-8.0,-7.9958,-7.8645,-7.7352,-7.6899,-7.4934,-7.3243,-7.2853,-7.2139,-7.139,-7.0593,-7.3221,-7.691,-8.1481,-8.2535,-8.3313,-8.436,-8.4825,-8.4712,-8.3901,-8.3667,-8.3161,-8.2344,-8.2304,-8.2304,-8.2304,-8.2304,-8.2304,-8.2304,-8.3828,-8.4687,-8.4922,-8.6679,-8.75,-8.75,-8.7695,-8.7304,-8.6445,-8.5586,-8.5195,-8.5156,-8.4258,-8.3776,-8.3502,-8.2422,-8.1854,-8.1642,-8.1244,-8.1093,-8.1093,-8.1093,-8.1093,-8.0862,-7.9554,-7.84,-7.74,-7.6553,-7.6322,-7.6399,-7.6861,-7.6976,-7.7169,-7.8015,-7.8861,-7.9554,-7.9746,-8.0477,-8.1093,-8.1093,-8.1093,-8.1093,-8.1093,-8.0821,-8.0426,-7.9896,-7.8507,-7.7563,-7.7718,-7.5439,-7.3927,-7.4551,-7.3377,-7.2422,-7.2239,-7.2386,-7.2422,-7.2239,-7.2386,-7.2496,-7.2496,-7.2496,-7.2496,-7.2496,-7.2496,-7.2496,-7.2496,-7.2496,-7.2496,-7.2496,-7.3303,-7.4001,-7.4661,-7.5652,-7.6423,-7.9664,-7.954,-7.9627,-8.1043,-8.0528,-7.9805,-8.0312,-7.9453,-7.8515,-7.8427,-7.6887,-7.5424,-7.4963,-7.326,-7.1843,-7.1525,-7.1131,-7.1332,-7.2658,-7.4949,-7.8125,-8.2461,-8.3008,-8.3515,-8.4765,-8.4179,-8.3672,-8.3594,-8.3242,-8.2812,-8.2344,-8.2304,-8.2304,-8.2304,-8.2304,-8.2304,-8.2304,-8.3633,-8.4297,-8.4336,-8.5664,-8.6328,-8.6328,-8.6328,-8.6054,-8.5547,-8.4687,-8.4297,-8.4258,-8.3359,-8.2878,-8.2647,-8.1955,-8.1582,-8.1371,-8.1167,-8.1093,-8.1054,-8.0631,-8.0516,-8.0285,-7.8938,-7.8207,-7.7669,-7.6861,-7.6322,-7.6169,-7.7053,-7.7015,-7.7053,-7.8669,-7.9131,-7.94,-8.0208,-8.0746,-8.1093,-8.1093,-8.1093,-8.1093,-8.1093,-8.1093,-8.0975,-8.0626,-7.9665,-7.8933,-7.8729,-7.6712,-7.517,-7.4911,-7.3817,-7.2899,-7.2532,-7.2496,-7.2496,-7.2496,-7.2496,-7.2496,-7.2496,-7.2496,-7.2679,-7.3046,-7.3046,-7.3046,-7.3046,-7.2679,-7.2679,-7.3046,-7.3854,-7.4661,-7.5469,-7.6276,-7.687,-7.8948,-7.8995,-7.9148,-8.0183,-7.9772,-7.91,-7.9256,-7.7967,-7.6712,-7.6546,-7.5068,-7.3535,-7.2521,-7.1552,-7.0709,-7.0202,-7.0448,-7.1994,-7.5651,-7.698,-7.875,-8.1914,-8.2304,-8.289,-8.4375,-8.3164,-8.2617,-8.3359,-8.2734,-8.2304,-8.2304,-8.2304,-8.2304,-8.2304,-8.2304,-8.2304,-8.2304,-8.3047,-8.3476,-8.3594,-8.4336,-8.4765,-8.4883,-8.4765,-8.4687,-8.4648,-8.3789,-8.3398,-8.3359,-8.2577,-8.2168,-8.198,-8.1725,-8.1543,-8.1371,-8.1012,-8.0977,-8.0977,-8.0092,-7.9631,-7.9323,-7.8707,-7.8323,-7.8015,-7.7476,-7.6669,-7.6207,-7.7207,-7.6861,-7.6746,-7.9169,-7.9246,-7.9092,-8.0708,-8.1093,-8.1093,-8.1093,-8.1093,-8.1093,-8.1093,-8.1093,-8.1093,-8.1093,-8.0517,-7.9929,-7.9425,-7.8066,-7.6669,-7.5403,-7.4456,-7.3634,-7.2936,-7.2863,-7.2863,-7.2863,-7.2863,-7.2863,-7.2863,-7.2753,-7.3046,-7.3854,-7.378,-7.3707,-7.3707,-7.2899,-7.2899,-7.3707,-7.4368,-7.5212,-7.613,-7.6827,-7.7163,-7.9204,-7.8559,-7.8217,-7.9109,-7.776,-7.6438,-7.7173,-7.6005,-7.4756,-7.4701,-7.3787,-7.2723,-7.1831,-7.1225,-7.0928,-7.0993,-7.2953,-7.5495,-7.8421,-7.9127,-8.0078,-8.207,-8.2304,-8.2422,-8.2656,-8.2461,-8.2344,-8.25,-8.2383,-8.2304,-8.2304,-8.2304,-8.2304,-8.2304,-8.2304,-8.2304,-8.2304,-8.2422,-8.2851,-8.3594,-8.375,-8.4179,-8.4883,-8.414,-8.3789,-8.375,-8.289,-8.25,-8.2461,-8.2157,-8.2046,-8.1971,-8.16,-8.1414,-8.1294,-8.0357,-8.0477,-8.0977,-8.0092,-7.8861,-7.7784,-7.8323,-7.7553,-7.6515,-7.7092,-7.6669,-7.6322,-7.7861,-7.7707,-7.7515,-7.9323,-7.9708,-7.9862,-8.0862,-8.1093,-8.1093,-8.1093,-8.1093,-8.1093,-8.1093,-8.1093,-8.1093,-8.1093,-8.0517,-8.0086,-7.9969,-7.8332,-7.7042,-7.676,-7.5547,-7.4698,-7.4551,-7.4551,-7.4551,-7.4551,-7.4551,-7.4551,-7.4551,-7.3891,-7.3891,-7.4698,-7.4074,-7.3707,-7.3707,-7.2899,-7.2899,-7.3707,-7.3817,-7.4661,-7.6093,-7.624,-7.6644,-7.9165,-7.8248,-7.7284,-7.7071,-7.6326,-7.5432,-7.4821,-7.3463,-7.2348,-7.2341,-7.1167,-7.033,-7.0803,-7.0999,-7.1518,-7.2992,-7.4395,-7.6073,-7.8291,-7.9226,-8.0156,-8.1445,-8.1992,-8.2304,-8.2304,-8.2304,-8.2304,-8.2304,-8.2304,-8.2304,-8.2304,-8.2304,-8.2304,-8.2304,-8.2304,-8.2304,-8.2304,-8.2304,-8.25,-8.289,-8.289,-8.3125,-8.3476,-8.3086,-8.289,-8.289,-8.2461,-8.2223,-8.2122,-8.2049,-8.1873,-8.167,-8.148,-8.1336,-8.1112,-8.0153,-8.0054,-8.0208,-7.89,-7.8554,-7.8631,-7.8515,-7.7977,-7.7515,-7.84,-7.7746,-7.6938,-7.8169,-7.79,-7.7784,-7.9939,-8.0169,-8.0015,-8.09,-8.1093,-8.1093,-8.1093,-8.1093,-8.1093,-8.1093,-8.1093,-8.1093,-8.1093,-8.0855,-8.0499,-8.0163,-7.9318,-7.8342,-7.7248,-7.6513,-7.5752,-7.4985,-7.4918,-7.4918,-7.4918,-7.4918,-7.4918,-7.4918,-7.4955,-7.4955,-7.4918,-7.4955,-7.4588,-7.3707,-7.378,-7.4001,-7.4368,-7.4771,-7.5616,-7.6754,-7.6754,-7.6974,-7.9047,-7.7909,-7.6465,-7.528,-7.5,-7.4714,-7.3646,-7.2125,-7.1105,-7.165,-7.051,-6.9643,-7.0298,-7.1059,-7.2385,-7.4945,-7.5983,-7.7032,-7.8637,-7.9686,-8.0547,-8.1211,-8.1875,-8.2304,-8.2304,-8.2304,-8.2304,-8.2304,-8.2304,-8.2304,-8.2304,-8.2304,-8.2226,-8.1992,-8.2187,-8.2187,-8.1992,-8.2187,-8.2304,-8.2304,-8.2304,-8.2304,-8.2304,-8.2304,-8.2304,-8.2304,-8.2029,-8.1931,-8.1988,-8.1699,-8.1501,-8.1407,-8.1361,-8.1126,-8.0746,-8.0285,-7.9862,-7.9323,-7.8246,-7.8592,-7.9438,-7.8977,-7.8669,-7.8669,-7.9554,-7.8746,-7.7746,-7.8554,-7.8361,-7.8323,-8.0285,-8.0285,-8.0015,-8.09,-8.1093,-8.1093,-8.1093,-8.1093,-8.1093,-8.1093,-8.1093,-8.1093,-8.1093,-8.1093,-8.0943,-8.0389,-8.0201,-7.9519,-7.8014,-7.7666,-7.7117,-7.5822,-7.5698,-7.564,-7.5469,-7.5469,-7.5469,-7.5469,-7.5873,-7.5836,-7.5212,-7.5763,-7.5432,-7.4001,-7.4588,-7.4992,-7.5175,-7.5799,-7.6533,-7.7273,-7.7273,-7.7273,-7.8975,-7.7616,-7.5993,-7.4476,-7.3631,-7.3536,-7.4813,-7.3374,-7.2333,-7.4518,-7.4437,-7.3226,-7.0926,-7.1639,-7.3457,-7.6054,-7.8489,-8.0429,-8.1538,-8.1937,-8.2148,-8.2187,-8.2265,-8.2304,-8.2304,-8.2304,-8.2304,-8.2304,-8.2304,-8.2304,-8.2304,-8.2304,-8.1914,-8.1133,-8.1875,-8.1914,-8.1094,-8.1914,-8.2304,-8.2304,-8.2304,-8.2304,-8.2304,-8.2304,-8.2304,-8.2226,-8.1259,-8.1262,-8.1898,-8.0715,-8.0716,-8.1383,-8.121,-8.0623,-7.9977,-8.0746,-7.9977,-7.8669,-7.94,-7.9169,-7.8707,-7.9477,-7.9169,-7.8669,-7.9554,-7.9131,-7.8592,-7.9477,-7.9669,-7.9669,-7.9862,-7.9862,-8.0015,-8.09,-8.1093,-8.1093,-8.1093,-8.1093,-8.1093,-8.1093,-8.1093,-8.1093,-8.1093,-8.1093,-8.1077,-8.1045,-8.0499,-8.0048,-7.9893,-7.9415,-7.8777,-7.8123,-7.8042,-7.7803,-7.7151,-7.7127,-7.7127,-7.7127,-7.6497,-7.6056,-7.6019,-7.6056,-7.5689,-7.4845,-7.4882,-7.5285,-7.6019,-7.6056,-7.6533,-7.7273,-7.7273,-7.7273,-7.7919,-7.6686,-7.5087,-7.3471,-7.1947,-7.1178,-7.2618,-7.2293,-7.216,-7.3592,-7.418,-7.4125,-7.3051,-7.3107,-7.4239,-7.705,-7.8722,-8.0202,-8.1781,-8.2173,-8.2304,-8.2304,-8.2304,-8.2304,-8.2304,-8.2304,-8.2304,-8.2304,-8.1797,-8.1719,-8.2265,-8.1797,-8.1601,-8.1797,-8.1601,-8.1328,-8.1015,-8.0781,-8.0894,-8.1298,-8.1989,-8.2304,-8.2304,-8.2304,-8.2304,-8.2265,-8.1759,-8.1602,-8.1773,-8.1154,-8.1014,-8.1224,-8.1116,-8.0554,-7.9785,-7.9554,-7.94,-7.9131,-7.7861,-7.8592,-7.9977,-7.9246,-7.9131,-7.9477,-8.0323,-8.0015,-7.9477,-8.0362,-8.0592,-8.0592,-8.0592,-8.0592,-8.0708,-8.1016,-8.1093,-8.1093,-8.1093,-8.1093,-8.1093,-8.1093,-8.1093,-8.1093,-8.1093,-8.1093,-8.1093,-8.1093,-8.0871,-8.0591,-8.0163,-7.9908,-7.9513,-7.8914,-7.8536,-7.8044,-7.7365,-7.7273,-7.7273,-7.7273,-7.698,-7.6644,-7.613,-7.6607,-7.624,-7.4955,-7.5879,-7.6313,-7.6093,-7.6607,-7.698,-7.7273,-7.7273,-7.7273,-7.6938,-7.5516,-7.3682,-7.1904,-7.056,-7.0105,-7.1688,-7.1934,-7.2422,-7.4623,-7.4569,-7.4292,-7.4726,-7.4077,-7.4428,-7.7323,-7.8867,-8.0235,-8.1867,-8.2219,-8.2304,-8.2304,-8.2304,-8.2304,-8.2304,-8.2031,-8.1875,-8.1875,-8.1094,-8.0976,-8.1836,-8.1054,-8.0859,-8.1445,-8.0898,-8.0469,-8.0195,-7.9801,-7.9823,-8.0314,-8.0975,-8.1621,-8.2218,-8.2218,-8.2223,-8.2265,-8.173,-8.1565,-8.1664,-8.112,-8.0996,-8.1054,-8.0785,-8.0323,-7.9708,-7.8823,-7.8861,-7.9131,-7.74,-7.8515,-8.0439,-7.8977,-7.9092,-7.99,-8.0516,-8.0285,-7.9977,-8.0862,-8.1093,-8.1093,-8.1093,-8.1093,-8.1093,-8.1093,-8.1093,-8.1093,-8.1093,-8.1093,-8.1093,-8.1093,-8.1093,-8.1093,-8.1093,-8.1093,-8.1093,-8.1093,-8.1093,-8.0943,-8.0481,-8.0427,-8.0105,-7.929,-7.8653,-7.8044,-7.7365,-7.7273,-7.7273,-7.7273,-7.7273,-7.6937,-7.613,-7.69,-7.665,-7.5322,-7.6613,-7.7017,-7.6497,-7.7017,-7.7273,-7.7273,-7.7273,-7.7273,-7.6245,-7.413,-7.1706,-6.9732,-6.9674,-7.0653,-7.2823,-7.2635,-7.3473,-7.8485,-7.6302,-7.3969,-7.562,-7.4349,-7.393,-7.6756,-7.9155,-8.1047,-8.2147,-8.2304,-8.2304,-8.2304,-8.2304,-8.2304,-8.2304,-8.1484,-8.0976,-8.0976,-8.0195,-8.0078,-8.0937,-8.0156,-7.9687,-7.9687,-7.9687,-7.9297,-7.8515,-7.9072,-7.9385,-7.9381,-7.9253,-8.0156,-8.1949,-8.1949,-8.2076,-8.2226,-8.0942,-8.087,-8.1609,-8.0331,-8.0323,-8.1016,-8.0169,-7.9823,-7.9708,-7.8823,-7.8515,-7.8477,-7.8477,-7.9054,-7.9669,-7.8784,-7.9092,-7.9823,-7.9823,-7.9823,-7.9977,-8.0862,-8.1093,-8.1093,-8.1093,-8.1093,-8.1093,-8.1093,-8.1093,-8.1093,-8.1093,-8.1093,-8.1093,-8.1093,-8.1093,-8.1093,-8.1093,-8.1093,-8.1093,-8.1093,-8.1093,-8.1093,-8.1093,-8.1093,-8.0608,-7.9335,-7.8653,-7.8044,-7.7365,-7.7273,-7.7273,-7.7273,-7.7273,-7.6937,-7.613,-7.69,-7.6937,-7.613,-7.69,-7.7273,-7.7273,-7.7273,-7.7273,-7.7273,-7.7273,-7.7273,-7.6976,-7.4336,-7.1625,-7.1593,-7.0583,-7.0422,-7.3455,-7.4256,-7.5642,-8.0223,-7.9301,-7.7454,-7.6912,-7.572,-7.5347,-7.6952,-7.8182,-7.9726,-8.1992,-8.2304,-8.2304,-8.2304,-8.1758,-8.1406,-8.1406,-8.0586,-8.0078,-8.0078,-7.9336,-7.9219,-8.0039,-7.9297,-7.9101,-7.9687,-7.914,-7.875,-7.8515,-7.8481,-7.8399,-7.8293,-7.8707,-7.9316,-8.0026,-8.0026,-8.0363,-8.0942,-8.0571,-8.082,-8.143,-8.0916,-8.0862,-8.1054,-8.0823,-8.0323,-7.9785,-7.9515,-7.9015,-7.84,-7.7861,-7.8207,-7.8823,-7.8592,-7.9092,-7.99,-8.0516,-8.0708,-8.0785,-8.1016,-8.1093,-8.1093,-8.1093,-8.1093,-8.1093,-8.1093,-8.1093,-8.1093,-8.1093,-8.1093,-8.1093,-8.1093,-8.1093,-8.1093,-8.1093,-8.1093,-8.1093,-8.1093,-8.1093,-8.1093,-8.1093,-8.1093,-8.0608,-7.9335,-7.9034,-7.8473,-7.7396,-7.7273,-7.7273,-7.7273,-7.7273,-7.7163,-7.6943,-7.7163,-7.7163,-7.6974,-7.7163,-7.7273,-7.7273,-7.7273,-7.7273,-7.7273,-7.7273,-7.7273,-7.613,-7.3556,-7.1179,-7.1674,-7.1293,-7.1709,-7.5115,-7.6777,-7.8408,-8.1359,-8.0118,-7.8458,-7.8242,-7.6829,-7.6274,-7.7929,-7.8548,-7.9519,-8.1484,-8.1484,-8.1289,-8.1289,-8.0781,-8.0469,-8.0469,-7.9726,-7.9219,-7.9219,-7.8437,-7.8359,-7.918,-7.8437,-7.8359,-7.9219,-7.8437,-7.8164,-7.8515,-7.8247,-7.8091,-7.7967,-7.8214,-7.8263,-7.8185,-7.8768,-7.9359,-7.9936,-8.0198,-8.0655,-8.1271,-8.1161,-8.1093,-8.1054,-8.0708,-8.0054,-7.9285,-7.9285,-7.8515,-7.7476,-7.7361,-7.7823,-7.8438,-7.813,-7.8823,-7.99,-8.0439,-8.0592,-8.0669,-8.1016,-8.1093,-8.1093,-8.1093,-8.1093,-8.1093,-8.1093,-8.1093,-8.1208,-8.1516,-8.1323,-8.1208,-8.1516,-8.1323,-8.1093,-8.1093,-8.1362,-8.1477,-8.1131,-8.1093,-8.1093,-8.1093,-8.1093,-8.0716,-7.9642,-7.9556,-7.9058,-7.7789,-7.7932,-7.7846,-7.7335,-7.754,-7.7599,-7.7304,-7.7273,-7.7273,-7.7273,-7.7273,-7.7273,-7.7273,-7.7273,-7.7273,-7.7273,-7.7273,-7.7273,-7.4689,-7.2509,-7.0763,-7.0993,-7.2326,-7.4429,-7.7615,-7.9823,-8.1351,-8.1781,-7.9631,-7.8125,-7.9531,-7.793,-7.7109,-7.9336,-7.9687,-7.9961,-8.0781,-8.0195,-7.9687,-7.9687,-7.9648,-7.957,-7.9492,-7.875,-7.8242,-7.8164,-7.7422,-7.7305,-7.8086,-7.7461,-7.7422,-7.8203,-7.7578,-7.7578,-7.8359,-7.8247,-7.8132,-7.8086,-7.7779,-7.7244,-7.6653,-7.7951,-7.8747,-7.9205,-7.9879,-8.0551,-8.1139,-8.1108,-8.1093,-8.1016,-8.0131,-7.9323,-7.8592,-7.8515,-7.7553,-7.6322,-7.7053,-7.7823,-7.8361,-7.763,-7.8477,-7.9823,-7.99,-7.9939,-8.0092,-8.09,-8.1093,-8.1093,-8.1093,-8.1093,-8.1131,-8.1208,-8.1208,-8.1439,-8.2247,-8.1785,-8.1439,-8.217,-8.1631,-8.1093,-8.1093,-8.1785,-8.2093,-8.1439,-8.1246,-8.1208,-8.1208,-8.1131,-8.0855,-8.0163,-8.0125,-7.9621,-7.8484,-7.894,-7.8766,-7.757,-7.8053,-7.8118,-7.7426,-7.7335,-7.7273,-7.7273,-7.7273,-7.7273,-7.7273,-7.7273,-7.7273,-7.7273,-7.7273,-7.7273,-7.7087,-7.4711,-7.2784,-7.4088,-7.6279,-7.8606,-8.0466,-8.1494,-8.1853,-8.1148,-8.1117,-8.1094,-8.0781,-8.0273,-7.9844,-7.9726,-7.9687,-7.9765,-7.9961,-7.9805,-7.9687,-7.9687,-7.914,-7.8476,-7.7812,-7.6953,-7.6172,-7.5508,-7.5273,-7.5234,-7.543,-7.5898,-7.6206,-7.6209,-7.6869,-7.7222,-7.7221,-7.7824,-7.7813,-7.7188,-7.7559,-7.7354,-7.6606,-7.6618,-7.7421,-7.8938,-8.0304,-8.1074,-8.1324,-8.1191,-8.1093,-8.1016,-8.0131,-7.9708,-7.9438,-7.8746,-7.8246,-7.79,-7.7438,-7.7823,-7.8477,-7.8284,-7.8938,-7.9939,-8.0631,-8.0823,-8.0862,-8.1054,-8.1093,-8.1093,-8.1093,-8.1093,-8.1246,-8.19,-8.2054,-8.2285,-8.3131,-8.2631,-8.2093,-8.2285,-8.1631,-8.1093,-8.1093,-8.1785,-8.2477,-8.2978,-8.2477,-8.2054,-8.2054,-8.1477,-8.0855,-8.0163,-8.0125,-7.9806,-7.9058,-7.9755,-7.9821,-7.8853,-7.9071,-7.8888,-7.81,-7.7599,-7.7273,-7.7273,-7.7273,-7.7273,-7.7273,-7.7273,-7.7273,-7.7273,-7.7273,-7.7273,-7.7357,-7.5174,-7.3567,-7.5139,-7.7993,-8.0655,-8.1484,-8.1958,-8.2013,-8.1543,-8.1597,-8.1679,-8.164,-8.1289,-8.0859,-8.039,-7.9961,-7.957,-7.918,-7.8789,-7.8515,-7.8515,-7.8125,-7.7695,-7.7226,-7.6797,-7.6328,-7.5898,-7.5469,-7.5234,-7.5234,-7.5664,-7.5814,-7.5595,-7.6532,-7.714,-7.7384,-7.7905,-7.7735,-7.6919,-7.7204,-7.6897,-7.5984,-7.6079,-7.7111,-7.8828,-7.9152,-7.9789,-8.0652,-8.053,-8.0477,-8.0439,-7.9977,-7.9554,-7.9131,-7.8669,-7.7977,-7.7284,-7.7284,-7.7823,-7.8477,-7.8477,-7.9361,-8.0516,-8.0977,-8.1093,-8.1093,-8.1093,-8.1093,-8.1093,-8.1093,-8.1093,-8.14,-8.2631,-8.2593,-8.2631,-8.3939,-8.3555,-8.2901,-8.2901,-8.2247,-8.167,-8.167,-8.2362,-8.3208,-8.4093,-8.3131,-8.2285,-8.2285,-8.1593,-8.0975,-8.0626,-8.0591,-8.0468,-8.0254,-8.0918,-8.1064,-8.0438,-8.0117,-7.9638,-7.8895,-7.7873,-7.7273,-7.7273,-7.7273,-7.7273,-7.7273,-7.7273,-7.7273,-7.7273,-7.7273,-7.7273,-7.7187,-7.5527,-7.4451,-7.5836,-7.8705,-8.1318,-8.164,-8.1883,-8.2113,-8.2264,-8.1719,-8.1445,-8.2187,-8.1719,-8.1133,-8.082,-8.0156,-7.9375,-7.8398,-7.7656,-7.7265,-7.7422,-7.7305,-7.7187,-7.7187,-7.707,-7.6914,-7.6758,-7.5937,-7.5469,-7.5469,-7.5586,-7.5499,-7.51,-7.6131,-7.6853,-7.7206,-7.7399,-7.7157,-7.6454,-7.6624,-7.6353,-7.5651,-7.6316,-7.7359,-7.8545,-7.7982,-7.8438,-7.9592,-7.9746,-7.9823,-7.9785,-7.9631,-7.9131,-7.8453,-7.8169,-7.7284,-7.6322,-7.6861,-7.7707,-7.8477,-7.8477,-7.9592,-8.09,-8.1054,-8.1093,-8.1093,-8.1093,-8.1093,-8.1093,-8.1093,-8.1093,-8.1516,-8.3208,-8.3054,-8.3016,-8.4747,-8.4439,-8.3785,-8.3632,-8.2785,-8.217,-8.2477,-8.3131,-8.3939,-8.4978,-8.3747,-8.2747,-8.2747,-8.2054,-8.1516,-8.1516,-8.1516,-8.1601,-8.1748,-8.2395,-8.2542,-8.2065,-8.1415,-8.0712,-7.9893,-7.8475,-7.761,-7.7561,-7.7384,-7.7273,-7.7273,-7.7273,-7.7273,-7.7273,-7.7273,-7.7384,-7.8557,-7.7856,-7.734,-7.8236,-7.9478,-8.0723,-8.1524,-8.1988,-8.2265,-8.2304,-8.2226,-8.2148,-8.2265,-8.2187,-8.164,-8.0117,-7.9765,-7.914,-7.7578,-7.7265,-7.7461,-7.8242,-7.7656,-7.7187,-7.7187,-7.6523,-7.5742,-7.5,-7.414,-7.3633,-7.3633,-7.4375,-7.4273,-7.312,-7.4845,-7.5296,-7.4353,-7.4667,-7.4779,-7.4662,-7.5574,-7.6365,-7.6985,-7.7628,-7.7895,-7.781,-7.8984,-7.9169,-7.8707,-7.9477,-7.9823,-7.9708,-7.8977,-7.8592,-7.8323,-7.6861,-7.6669,-7.7053,-7.6399,-7.7169,-7.8477,-7.8477,-7.9169,-8.0131,-8.0862,-8.1093,-8.1093,-8.1093,-8.1093,-8.1093,-8.1093,-8.1093,-8.1516,-8.3208,-8.3516,-8.3901,-8.5593,-8.5286,-8.4516,-8.3747,-8.2324,-8.1708,-8.317,-8.3516,-8.4132,-8.5709,-8.517,-8.4555,-8.4555,-8.3785,-8.3247,-8.3247,-8.3247,-8.3269,-8.3297,-8.4061,-8.4198,-8.3389,-8.3391,-8.2803,-8.1441,-7.9994,-7.8969,-7.8473,-7.7708,-7.7273,-7.7273,-7.7273,-7.7273,-7.7273,-7.7273,-7.7708,-7.8537,-7.8553,-7.8752,-7.835,-7.9674,-8.1221,-8.161,-8.2,-8.2304,-8.2304,-8.2304,-8.2148,-8.164,-8.1953,-8.1719,-7.9961,-7.9687,-7.9453,-7.8711,-7.7773,-7.7695,-7.9023,-7.8008,-7.7383,-7.789,-7.7148,-7.6289,-7.539,-7.4531,-7.3828,-7.332,-7.3672,-7.3527,-7.273,-7.4014,-7.4351,-7.3639,-7.3906,-7.4092,-7.4311,-7.4876,-7.5625,-7.6523,-7.762,-7.8258,-7.8476,-7.9013,-7.9257,-7.9246,-7.9631,-7.9823,-7.9746,-7.9361,-7.8938,-7.8361,-7.7169,-7.6669,-7.6515,-7.613,-7.7092,-7.8477,-7.8477,-7.94,-8.0592,-8.0977,-8.1093,-8.1093,-8.1093,-8.1093,-8.1093,-8.1093,-8.1093,-8.1516,-8.3208,-8.3593,-8.4055,-8.5747,-8.5824,-8.517,-8.3862,-8.2978,-8.2708,-8.3478,-8.3978,-8.4747,-8.594,-8.544,-8.4901,-8.4901,-8.4132,-8.3593,-8.3593,-8.3593,-8.3785,-8.4286,-8.467,-8.4939,-8.5016,-8.4289,-8.3464,-8.2416,-8.0986,-7.9686,-7.862,-7.7745,-7.7561,-7.8038,-7.8038,-7.8259,-7.8699,-7.8699,-7.8919,-7.8488,0.0,-7.9546,-7.8547,-7.984,-8.1423,-8.1707,-8.2056,-8.2304,-8.2304,-8.2304,-8.2031,-8.1172,-8.1719,-8.164,-7.9726,-7.957,-7.9531,-7.9101,-7.8008,-7.7734,-7.9219,-7.8086,-7.7461,-7.8125,-7.7383,-7.6523,-7.5625,-7.4765,-7.3984,-7.332,-7.3281,-7.302,-7.2419,-7.3229,-7.3413,-7.2822,-7.3093,-7.3494,-7.4067,-7.441,-7.5078,-7.5937,-7.7517,-7.8456,-7.8844,-7.8806,-7.9068,-7.9548,-7.9753,-7.9669,-7.9477,-7.9477,-7.8938,-7.8092,-7.7284,-7.6553,-7.6015,-7.6245,-7.713,-7.8246,-7.8669,-7.9708,-8.0823,-8.1016,-8.1093,-8.1093,-8.1093,-8.1093,-8.1093,-8.1093,-8.1093,-8.1516,-8.3208,-8.3593,-8.4132,-8.6017,-8.6094,-8.5478,-8.4439,-8.3901,-8.367,-8.3901,-8.4478,-8.517,-8.5978,-8.5593,-8.5209,-8.5209,-8.4824,-8.4478,-8.4247,-8.4439,-8.4747,-8.517,-8.5209,-8.5478,-8.6055,-8.5051,-8.4106,-8.3246,-8.2031,-8.0665,-7.9244,-7.8369,-7.8148,-7.8589,-7.8589,-7.8993,-7.98,-7.98,-7.991,-7.8962,-7.9115,0.0,-7.9932,-8.0214,-8.0727,0.0,-8.2168,-8.2304,-8.2304,-8.2304,-8.2031,-8.1172,-8.1719,-8.1484,-7.8984,-7.9219,-7.914,-7.7539,-7.7265,-7.7539,-7.8437,-7.7773,-7.7226,-7.7265,-7.6484,-7.5625,-7.4726,-7.3867,-7.3359,-7.3281,-7.3281,-7.2787,-7.1608,-7.2419,-7.2258,-7.1052,-7.1406,-7.2213,-7.3359,-7.4219,-7.5078,-7.5976,-7.7695,-7.8344,-7.8178,-7.8602,-7.8839,-7.8894,-7.9548,-7.9323,-7.8554,-7.8554,-7.8054,-7.7246,-7.6399,-7.6053,-7.613,-7.6938,-7.7284,-7.763,-7.9208,-7.9785,-8.0015,-8.0862,-8.1093,-8.1093,-8.1093,-8.1093,-8.1093,-8.1093,-8.1093,-8.1516,-8.3208,-8.3593,-8.4286,-8.6786,-8.6094,-8.517,-8.5824,-8.467,-8.3862,-8.4709,-8.4863,-8.517,-8.5978,-8.6055,-8.6055,-8.6055,-8.6709,-8.6901,-8.6055,-8.6709,-8.6901,-8.6094,-8.6055,-8.6055,-8.6094,-8.6038,-8.5418,-8.4177,-8.3273,-8.2195,-8.0897,-8.0057,-7.9323,-7.8589,-7.8589,-7.8993,-7.98,-7.98,-8.0204,-7.9669,0.0,0.0,-8.0213,-8.066,-8.1389,-8.1889,-8.2056,-8.2127,-8.2265,-8.2217,-8.1892,-8.1132,-8.1719,-8.1836,-8.0351,-7.9883,-7.9687,-7.9648,-7.8242,-7.7695,-7.9101,-7.8047,-7.7187,-7.7187,-7.6406,-7.5312,-7.3867,-7.2969,-7.2226,-7.164,-7.164,-7.1394,-7.0853,-7.1581,-7.1659,-7.1108,-7.134,-7.2022,-7.3137,-7.4138,-7.5078,-7.5937,-7.7148,-7.8201,-7.9127,-7.9159,-7.9342,-7.9703,-8.0644,-8.0411,-7.9546,-7.967,-7.8823,-7.7434,-7.7125,-7.661,-7.613,-7.6976,-7.763,-7.8246,-7.9438,-8.0169,-8.0708,-8.1016,-8.1093,-8.1093,-8.1093,-8.1093,-8.1093,-8.1093,-8.1477,-8.2285,-8.4016,-8.4824,-8.5747,-8.7786,-8.7325,-8.644,-8.617,-8.5632,-8.5132,-8.4939,-8.4901,-8.517,-8.5978,-8.6094,-8.6094,-8.6094,-8.6363,-8.6671,-8.6901,-8.7209,-8.7286,-8.6978,-8.694,-8.6709,-8.6132,-8.6094,-8.5514,-8.4228,-8.3915,-8.2858,-8.1044,-8.0718,-8.0424,-8.0131,-8.0131,-8.0534,-8.1342,-8.1342,-8.1489,-8.0477,-8.0806,-8.1206,-8.0815,-8.126,-8.1861,-8.2056,-8.2053,-8.2056,-8.2264,-8.2127,-8.1864,-8.1522,-8.1914,-8.1914,-8.0742,-8.0078,-7.9805,-8.0117,-7.8203,-7.7187,-7.8281,-7.7187,-7.6211,-7.5937,-7.5351,-7.4414,-7.2969,-7.2344,-7.1601,-7.0742,-7.0976,-7.1048,-7.0912,-7.1021,-7.1177,-7.1389,-7.1511,-7.195,-7.2666,-7.3981,-7.4883,-7.5508,-7.668,-7.7969,-7.9297,-7.9434,-7.9983,-8.0793,-8.1423,-8.1131,-8.0174,-8.0029,-7.9217,-7.8098,-7.7722,-7.7316,-7.7045,-7.7867,-7.8477,-7.9092,-7.9939,-8.0631,-8.1093,-8.1093,-8.1093,-8.1093,-8.1093,-8.1093,-8.1093,-8.1093,-8.19,-8.3093,-8.4555,-8.5517,-8.6517,-8.794,-8.7825,-8.7325,-8.7017,-8.6748,-8.6286,-8.544,-8.5286,-8.5478,-8.6017,-8.6094,-8.6094,-8.6094,-8.6594,-8.7094,-8.7363,-8.7902,-8.8017,-8.744,-8.7671,-8.7325,-8.617,-8.6363,-8.582,-8.4265,-8.4216,-8.3308,-8.1448,-8.1415,-8.1415,-8.1415,-8.1122,-8.1415,-8.2186,-8.2186,-8.2186,0.0,0.0,0.0,-8.1962,-8.1992,-8.2056,-8.2263,-8.2125,-8.2053,-8.2263,-8.2122,-8.2056,-8.2264,-8.2304,-8.1758,-8.0039,-7.9726,-7.9414,-7.8633,-7.6992,-7.5898,-7.5898,-7.5117,-7.4258,-7.3437,-7.3359,-7.2969,-7.2109,-7.1992,-7.1601,-7.0703,-7.1445,-7.183,-7.1654,-7.0715,-7.0709,-7.1689,-7.1689,-7.1807,-7.2031,-7.3789,-7.4609,-7.4648,-7.6406,-7.7695,-7.8594,-7.9375,-8.0575,-8.1988,-8.1812,-8.1197,-8.0341,-7.9484,-7.9173,-7.9073,-7.8049,-7.8126,-7.8894,-7.9586,-7.9785,-7.9939,-8.0823,-8.1093,-8.1093,-8.1093,-8.1093,-8.1093,-8.1093,-8.1093,-8.1093,-8.117,-8.2401,-8.3862,-8.4747,-8.5555,-8.6363,-8.7248,-8.744,-8.7671,-8.8479,-8.7979,-8.7132,-8.6247,-8.6094,-8.6094,-8.6094,-8.6094,-8.6094,-8.6132,-8.7632,-8.8363,-8.7555,-8.894,-8.9248,-8.7594,-8.8248,-8.7979,-8.6209,-8.6901,-8.6432,-8.429,-8.4203,-8.357,-8.2219,-8.2186,-8.2186,-8.2186,-8.1415,-8.1452,-8.2186,-8.2186,-8.2186,-8.1582,0.0,0.0,0.0,0.0,0.0,-8.2062,-8.1909,-8.185,-8.2049,-8.1909,-8.1883,-8.2223,-8.2304,-8.2148,-8.164,-8.0508,-7.9609,-7.9414,-7.7383,-7.5898,-7.5898,-7.5117,-7.4492,-7.4258,-7.4258,-7.3867,-7.3008,-7.2344,-7.1328,-6.9844,-6.9453,-6.9758,-7.0795,-7.0567,-7.084,-7.1689,-7.1689,-7.1807,-7.2031,-7.3789,-7.4609,-7.4648,-7.6406,-7.8008,-7.9375,-7.9609,-8.0663,-8.2219,-8.217,-8.1549,-8.0627,-8.0506,-8.0026,-7.9291,-7.9016,-7.887,-7.8928,-7.9724,-7.9902,-7.9939,-8.0823,-8.1093,-8.1093,-8.1093,-8.1093,-8.1093,-8.1093,-8.1093,-8.1362,-8.2593,-8.3708,-8.4901,-8.6363,-8.6401,-8.6517,-8.8017,-8.8325,-8.8209,-8.7825,-8.7555,-8.7132,-8.6247,-8.6094,-8.6094,-8.6094,-8.6094,-8.6324,-8.6978,-8.744,-8.8132,-8.9094,-8.9633,-8.9479,-8.844,-8.9094,-8.8594,-8.6247,-8.6901,-8.6432,-8.429,-8.4203,-8.357,-8.2219,-8.2186,-8.2186,-8.2186,-8.1966,-8.1966,-8.2186,-8.2186,-8.2186,-8.1753,-8.1883,-8.198,-8.2113,0.0,0.0,-8.1652,-8.1702,-8.1761,-8.1639,-8.1698,-8.1909,-8.2223,-8.2304,-8.2304,-8.2304,-8.1133,-8.0117,-7.9765,-7.75,-7.5898,-7.5898,-7.4805,-7.4219,-7.457,-7.4609,-7.4258,-7.3359,-7.2812,-7.1797,-7.0039,-6.8476,-6.8396,-6.9978,-6.9703,-6.9937,-7.072,-7.0759,-7.1006,-7.1484,-7.3203,-7.4258,-7.4648,-7.6406,-7.793,-7.9219,-7.9531,-8.0469,-8.1797,-8.2148,-8.1949,-8.1344,-8.1092,-8.0855,-8.0558,-8.0094,-8.0029,-8.0167,-8.0528,-8.055,-8.0544,-8.0962,-8.1093,-8.1093,-8.1093,-8.1093,-8.1093,-8.1093,-8.1323,-8.19,-8.3247,-8.4247,-8.5324,-8.7017,-8.6748,-8.6478,-8.7863,-8.8171,-8.8017,-8.7517,-8.7671,-8.7671,-8.6786,-8.6324,-8.6209,-8.6594,-8.6632,-8.6824,-8.7325,-8.8017,-8.8825,-8.9825,-9.0248,-8.9979,-8.8786,-8.944,-8.8825,-8.6247,-8.6901,-8.6527,-8.4666,-8.4665,-8.4192,-8.3133,-8.319,-8.303,-8.27,-8.237,-8.2186,-8.2186,-8.2186,-8.2186,-8.1937,-8.2171,-8.2304,-8.2304,-8.2304,0.0,-8.1288,-8.1576,-8.1822,-8.1245,-8.1573,-8.2059,-8.2264,-8.2304,-8.2304,-8.2304,-8.164,-8.082,-7.9844,-7.7578,-7.5976,-7.5898,-7.4413,-7.3749,-7.4648,-7.4726,-7.4414,-7.3633,-7.3242,-7.2305,-7.0664,-6.8242,-6.7617,-6.9219,-6.8555,-6.8594,-6.9414,-6.9453,-6.9883,-7.0703,-7.2461,-7.375,-7.4648,-7.6406,-7.7734,-7.8672,-7.9375,-8.0234,-8.1211,-8.1992,-8.2304,-8.2226,-8.1445,-8.1601,-8.2187,-8.1215,-8.1336,-8.1962,-8.1591,-8.1425,-8.1359,-8.1196,-8.1124,-8.1093,-8.1093,-8.1093,-8.1093,-8.1093,-8.1747,-8.2631,-8.3401,-8.4324,-8.544,-8.7017,-8.6748,-8.6324,-8.7209,-8.7478,-8.7478,-8.7286,-8.794,-8.8286,-8.7517,-8.6671,-8.6401,-8.7286,-8.7401,-8.7478,-8.7632,-8.8979,-8.9923,-9.0056,-9.0748,-9.0556,-8.8979,-8.9479,-8.8863,-8.6401,-8.6978,-8.6693,-8.5179,-8.5285,-8.5064,-8.4419,-8.4521,-8.4205,-8.3398,-8.259,-8.2186,-8.2186,-8.2296,-8.2333,-8.1931,-8.2265,-8.2304,-8.2304,-8.2304,0.0,-8.1878,-8.1929,-8.1957,-8.1819,-8.1925,-8.2059,-8.2264,-8.2304,-8.2304,-8.2304,-8.2148,-8.1484,-7.9922,-7.7952,-7.6495,-7.5976,-7.4826,-7.4503,-7.5547,-7.5664,-7.5586,-7.539,-7.2773,-7.0781,-6.9805,-6.793,-6.7383,-6.8398,-6.8281,-6.8594,-6.9453,-6.9492,-6.9883,-7.0703,-7.2461,-7.375,-7.4648,-7.6406,-7.8047,-7.9453,-7.9648,-8.0586,-8.207,-8.2226,-8.2304,-8.2265,-8.2109,-8.2148,-8.2265,-8.2068,-8.2007,-8.1984,-8.1899,-8.1687,-8.1395,-8.1335,-8.1242,-8.1093,-8.1093,-8.1093,-8.1093,-8.1093,-8.217,-8.3401,-8.3555,-8.4747,-8.6132,-8.7171,-8.6748,-8.6324,-8.7209,-8.794,-8.8017,-8.6632,-8.7055,-8.7594,-8.744,-8.6671,-8.6401,-8.7286,-8.7401,-8.7902,-8.9248,-8.971,-9.0171,-9.0864,-9.1095,-9.0787,-8.9748,-8.9825,-8.9133,-8.7248,-8.7325,-8.6693,-8.5179,-8.5285,-8.5064,-8.4419,-8.4521,-8.4205,-8.3398,-8.259,-8.2186,-8.2223,-8.2884,-8.3177,-8.1986,-8.2304,-8.2304,-8.2304,-8.2304,0.0,0.0,-8.1855,-8.2012,-8.1582,-8.1855,-8.2175,-8.2265,-8.2304,-8.2304,-8.2304,-8.2304,-8.1795,-8.0412,-7.9014,-7.8041,-7.7812,-7.6846,-7.644,-7.7148,-7.7187,-7.664,-7.5351,-7.2812,-7.082,-6.957,-6.8633,-6.7969,-6.7578,-6.7969,-6.8203,-6.8203,-6.8203,-6.8828,-7.0078,-7.1836,-7.3359,-7.4687,-7.6875,-7.832,-7.914,-8.0,-8.0859,-8.1679,-8.2109,-8.2304,-8.2304,-8.2304,-8.2304,-8.2304,-8.2304,-8.2222,-8.2125,-8.2046,-8.1819,-8.1524,-8.1425,-8.1258,-8.1093,-8.1093,-8.1093,-8.1093,-8.1093,-8.2324,-8.3593,-8.3593,-8.4824,-8.644,-8.7748,-8.7055,-8.6555,-8.8286,-8.8671,-8.844,-8.7555,-8.7748,-8.7902,-8.7478,-8.6671,-8.6555,-8.7863,-8.8055,-8.8517,-8.9748,-9.0287,-9.071,-9.1171,-9.121,-9.0864,-8.9979,-8.9902,-8.9171,-8.7517,-8.7401,-8.703,-8.6297,-8.6093,-8.5889,-8.5704,-8.5765,-8.5416,-8.4609,-8.3801,-8.2994,-8.2223,-8.303,-8.3398,-8.1755,-8.2187,-8.2304,-8.2304,-8.2304,-8.2109,0.0,0.0,0.0,-8.1406,-8.1797,-8.2304,0.0,0.0,-8.2304,-8.2304,-8.2304,-8.1989,-8.1128,-8.0345,-7.9771,-7.9643,-7.8858,-7.8416,-7.871,-7.8594,-7.75,-7.5039,-7.3242,-7.1562,-6.9997,-6.9568,-6.8669,-6.7146,-6.7771,-6.7733,-6.6914,-6.707,-6.789,-6.9414,-7.1328,-7.3164,-7.4922,-7.7383,-7.8672,-7.9062,-8.039,-8.1094,-8.1289,-8.1992,-8.2304,-8.2304,-8.2304,-8.2304,-8.2304,-8.2304,-8.2304,-8.2265,-8.2118,-8.1894,-8.1656,-8.1494,-8.1311,-8.1093,-8.1093,-8.1093,-8.1093,-8.1093,-8.2324,-8.3593,-8.3593,-8.4824,-8.644,-8.7863,-8.7132,-8.6671,-8.8709,-8.8786,-8.8402,-8.8209,-8.8325,-8.8209,-8.7517,-8.6671,-8.6709,-8.844,-8.8709,-8.9056,-9.0017,-9.0748,-9.121,-9.121,-9.121,-9.0941,-9.021,-9.0017,-8.9325,-8.7979,-8.7748,-8.7632,-8.7632,-8.7389,-8.7415,-8.7645,-8.7519,-8.6973,-8.6016,-8.5224,-8.4095,-8.2663,-8.3508,-8.3875,-8.0857,-8.1719,-8.2304,-8.2304,-8.2304,-8.2265,-8.2187,0.0,-8.2265,-8.2187,0.0,-8.2304,-8.2304,0.0,0.0,-8.2304,-8.2304,-8.2265,-8.2147,-8.1737,-8.0922,-7.9572,-7.9166,-7.9149,-7.953,-7.8906,-7.7734,-7.5898,-7.414,-7.2652,-7.1513,-7.0024,-6.8772,-6.7835,-6.7874,-6.7592,-6.6914,-6.7656,-6.8515,-6.9414,-7.1953,-7.4062,-7.582,-7.7656,-7.9297,-8.0742,-8.0937,-8.1445,-8.2148,-8.2265,-8.2304,-8.2304,-8.2304,-8.2304,-8.2304,-8.2304,-8.2304,-8.2304,-8.2265,-8.2003,-8.1719,-8.1656,-8.1418,-8.1093,-8.1093,-8.1093,-8.1093,-8.1093,-8.2324,-8.3593,-8.3593,-8.4824,-8.617,-8.6363,-8.6247,-8.617,-8.6478,-8.7055,-8.7325,-8.6555,-8.7017,-8.7517,-8.7401,-8.6671,-8.6709,-8.844,-8.8709,-8.9248,-9.0864,-9.1133,-9.121,-9.121,-9.121,-9.1171,-9.1056,-9.0364,-8.9825,-8.9633,-8.894,-8.8556,-8.8556,-8.9279,-8.9797,-9.0029,-8.9384,-8.8313,-8.6757,-8.6037,-8.5196,-8.4352,-8.5159,-8.5527,-8.0602,-8.1555,-8.2265,-8.217,-8.2219,-8.2304,-8.2304,-8.2304,-8.2304,-8.2304,0.0,0.0,0.0,0.0,0.0,0.0,-8.2304,-8.2264,-8.2127,0.0,-8.148,-8.0961,-8.0645,-8.0217,-7.9608,-7.8762,-7.7602,-7.6015,-7.4765,-7.3436,-7.1942,-7.1199,-7.0222,-6.8855,-6.9285,-6.9135,-6.8359,-6.8711,-6.9336,-7.0195,-7.2305,-7.4219,-7.5976,-7.8203,-7.9844,-8.1015,-8.1523,-8.1953,-8.2304,-8.2304,-8.2304,-8.2304,-8.2304,-8.2304,-8.2304,-8.2304,-8.2304,-8.2304,-8.2304,-8.2049,-8.164,-8.1414,-8.1242,-8.1093,-8.1093,-8.1093,-8.1093,-8.1093,-8.2324,-8.3593,-8.3593,-8.4824,-8.6247,-8.6748,-8.6478,-8.6363,-8.7401,-8.7902,-8.8055,-8.7671,-8.7902,-8.8132,-8.8132,-8.744,-8.7286,-8.8517,-8.9094,-8.9825,-9.1056,-9.121,-9.121,-9.121,-9.121,-9.121,-9.121,-9.0864,-9.0441,-8.994,-9.0056,-9.0201,-9.0262,-9.1582,-9.1687,-9.0419,-9.0549,-8.9627,-8.7585,-8.7285,-8.6726,-8.6004,-8.5857,-8.5783,-7.9909,-8.0762,-8.1522,-8.1353,-8.1621,-8.1953,-8.1953,-8.2148,-8.2304,-8.2304,-8.2304,0.0,0.0,0.0,-8.2304,-8.2304,0.0,-8.2263,-8.2115,-8.1867,-8.1739,-8.1894,-8.1679,-8.0901,-7.9461,-7.8807,-7.772,-7.5969,-7.5077,-7.3906,-7.2378,-7.2065,-7.1245,-6.9839,-7.0346,-7.0349,-6.9765,-7.0,-7.0547,-7.1445,-7.3164,-7.4922,-7.668,-7.875,-8.0312,-8.1406,-8.2031,-8.2304,-8.2304,-8.2304,-8.2304,-8.2304,-8.2304,-8.2304,-8.2304,-8.2304,-8.2304,-8.2304,-8.2304,-8.2049,-8.1615,-8.1228,-8.1093,-8.1093,-8.1093,-8.1093,-8.1093,-8.1093,-8.2324,-8.3593,-8.3593,-8.4824,-8.6247,-8.6901,-8.6555,-8.644,-8.7709,-8.8171,-8.8325,-8.8325,-8.8517,-8.8709,-8.8709,-8.7979,-8.7786,-8.8863,-8.9517,-9.021,-9.1095,-9.121,-9.121,-9.121,-9.121,-9.121,-9.121,-9.121,-9.1018,-9.0633,-9.121,-9.1816,-9.2359,-9.3561,-9.3289,-9.1325,-9.1723,-9.0728,-8.8359,-8.8197,-8.7709,-8.6995,-8.6407,-8.6114,-7.8311,-7.9004,-7.9725,-7.9522,-8.0256,-8.1054,-8.1054,-8.1679,-8.2304,-8.2304,-8.2304,-8.2304,-8.2304,-8.2304,-8.2304,-8.2304,-8.2304,0.0,0.0,-8.1967,-8.1688,-8.1695,-8.168,-8.1018,-7.9275,-7.9266,-7.832,-7.5791,-7.499,-7.4135,-7.3029,-7.2164,-7.1341,-7.0483,-7.0483,-7.0557,-7.0664,-7.1484,-7.2344,-7.3242,-7.4961,-7.6719,-7.8437,-7.9297,-8.0625,-8.2265,-8.2304,-8.2304,-8.2304,-8.2304,-8.2304,-8.2304,-8.2304,-8.2304,-8.2304,-8.2304,-8.2304,-8.2304,-8.2304,-8.2049,-8.1615,-8.1228,-8.1093,-8.1093,-8.1093,-8.1093,-8.1093,-8.1093,-8.2324,-8.3593,-8.3593,-8.4824,-8.6094,-8.6132,-8.6132,-8.6132,-8.617,-8.6863,-8.744,-8.744,-8.8132,-8.8709,-8.8709,-8.7979,-8.7979,-8.9633,-8.9885,-9.021,-9.1095,-9.121,-9.121,-9.121,-9.121,-9.121,-9.121,-9.121,-9.1556,-9.2364,-9.2441,-9.321,-9.4808,-9.4923,-9.4538,-9.3597,-9.2992,-9.1497,-8.9069,-8.8426,-8.7709,-8.6995,-8.6995,-8.6958,-7.7407,-7.8495,-7.9647,-7.9437,-8.0215,-8.1015,-8.1015,-8.1679,-8.2304,-8.2304,-8.2304,-8.2304,-8.2304,-8.2304,-8.2304,-8.2304,-8.2304,-8.2264,0.0,-8.1771,-8.1447,-8.1311,-8.0783,-8.0058,-7.9008,-7.8069,-7.7017,-7.5705,-7.499,-7.4452,-7.4094,-7.3781,-7.3508,-7.3235,-7.3196,-7.3238,-7.3281,-7.3555,-7.3867,-7.418,-7.5351,-7.6797,-7.8515,-7.9336,-8.0664,-8.2304,-8.2304,-8.2304,-8.2304,-8.2304,-8.2304,-8.2304,-8.2304,-8.1953,-8.1523,-8.2109,-8.2304,-8.2264,-8.1992,-8.1831,-8.1615,-8.1228,-8.1093,-8.1093,-8.1093,-8.1093,-8.1208,-8.1747,-8.2708,-8.3708,-8.4324,-8.5286,-8.6094,-8.6094,-8.6094,-8.6247,-8.6824,-8.7632,-8.8402,-8.894,-8.9286,-8.9671,-9.0248,-8.9633,-8.9248,-8.9825,-9.0402,-9.0864,-9.1171,-9.121,-9.121,-9.121,-9.121,-9.121,-9.121,-9.1748,-9.2402,-9.3249,-9.3826,-9.4672,-9.5826,-9.5865,-9.5441,-9.4557,-9.3793,-9.2477,-9.0622,-8.9814,-8.8856,-8.7709,-8.7709,-8.7493,-7.6861,-7.7831,-7.8748,-7.8579,-7.9317,-8.0195,-8.0469,-8.1211,-8.1914,-8.2226,-8.2304,-8.2304,-8.2304,-8.2304,-8.2304,-8.2304,-8.2223,-8.2113,0.0,-8.1563,-8.1324,-8.11,-8.0592,-7.9779,-7.8445,0.0,-7.6722,-7.4839,-7.4637,0.0,-7.414,-7.414,-7.4297,-7.4609,-7.4883,-7.5195,-7.5508,-7.5508,-7.5664,-7.5976,-7.625,-7.7265,-7.8945,-7.9453,-8.0469,-8.1836,-8.1836,-8.1836,-8.1836,-8.1836,-8.2031,-8.2265,-8.1953,-8.1484,-8.1054,-8.164,-8.164,-8.1365,-8.1358,-8.1311,-8.1234,-8.1221,-8.1176,-8.1093,-8.1093,-8.1093,-8.1323,-8.2439,-8.317,-8.3862,-8.5016,-8.5709,-8.6094,-8.6094,-8.6324,-8.6709,-8.7286,-8.8325,-8.9286,-8.9825,-9.0171,-9.0556,-9.1095,-9.0748,-9.0364,-9.0364,-9.0825,-9.121,-9.121,-9.1479,-9.1556,-9.1248,-9.1479,-9.1556,-9.1248,-9.2018,-9.2826,-9.3633,-9.4518,-9.5249,-9.5826,-9.5826,-9.5557,-9.5018,-9.3864,-9.2814,-9.1855,-9.0689,-8.9389,-8.8107,-8.8107,-8.7678]},{"header":{"parameterUnit":"m.s-1","parameterCategory":1,"la1":30.6,"la2":29.2853,"lo1":-89.7004,"lo2":-87.6739,"dy":0.0162,"dx":0.0183,"nx":112,"ny":82,"refTime":"2024-03-08T06:00:00:Z","depth":0,"parameterNumber":3,"parameterNumberName":"V-component_of_WINDS"},"data":[0.0,0.0,0.0,0.0,0.0,0.0,0.0,0.0,0.0,0.0,0.0,0.0,0.0,0.0,0.0,0.0,0.0,0.0,0.0,0.0,0.0,0.0,0.0,0.0,0.0,0.0,0.0,0.0,0.0,0.0,0.0,0.0,0.0,0.0,0.0,0.0,0.0,0.0,0.0,0.0,0.0,0.0,0.0,0.0,0.0,0.0,0.0,0.0,0.0,0.0,0.0,0.0,0.0,0.0,0.0,0.0,0.0,0.0,0.0,0.0,0.0,0.0,0.0,0.0,0.0,0.0,0.0,0.0,0.0,0.0,0.0,0.0,0.0,0.0,0.0,0.0,0.0,0.0,0.0,0.0,0.0,0.0,0.0,0.0,0.0,0.0,0.0,0.0,0.0,0.0,2.6694,2.7335,2.835,2.9192,2.974,3.0194,3.0181,2.9526,0.0,0.0,0.0,0.0,0.0,0.0,0.0,0.0,0.0,0.0,0.0,0.0,0.0,0.0,0.0,0.0,0.0,0.0,0.0,0.0,0.0,0.0,0.0,0.0,0.0,0.0,0.0,0.0,0.0,0.0,0.0,0.0,0.0,0.0,0.0,0.0,0.0,0.0,0.0,0.0,0.0,0.0,0.0,0.0,0.0,0.0,0.0,0.0,0.0,0.0,0.0,0.0,0.0,0.0,0.0,0.0,0.0,0.0,0.0,0.0,0.0,0.0,0.0,0.0,0.0,0.0,0.0,0.0,0.0,0.0,0.0,0.0,0.0,0.0,0.0,0.0,0.0,0.0,0.0,0.0,0.0,0.0,0.0,0.0,0.0,0.0,0.0,0.0,0.0,0.0,0.0,0.0,0.0,0.0,0.0,0.0,0.0,0.0,0.0,0.0,0.0,0.0,0.0,0.0,2.7081,2.8006,2.8404,2.8804,2.9152,2.9032,2.9098,2.9459,0.0,0.0,0.0,0.0,0.0,0.0,0.0,0.0,0.0,0.0,0.0,0.0,0.0,0.0,0.0,0.0,0.0,0.0,0.0,0.0,0.0,0.0,0.0,0.0,0.0,0.0,0.0,0.0,0.0,0.0,0.0,0.0,0.0,0.0,0.0,0.0,0.0,0.0,0.0,0.0,0.0,0.0,0.0,0.0,0.0,0.0,0.0,0.0,0.0,0.0,0.0,0.0,0.0,0.0,0.0,0.0,0.0,0.0,0.0,0.0,0.0,0.0,0.0,0.0,0.0,0.0,0.0,0.0,0.0,0.0,0.0,0.0,0.0,0.0,0.0,0.0,0.0,0.0,0.0,0.0,0.0,0.0,0.0,0.0,0.0,0.0,0.0,0.0,0.0,0.0,0.0,0.0,0.0,0.0,0.0,0.0,0.0,0.0,0.0,0.0,0.0,0.0,0.0,2.6707,2.7335,2.8154,2.8417,2.8724,2.9018,2.8911,2.9018,2.9459,2.9312,0.0,0.0,0.0,0.0,0.0,0.0,0.0,0.0,0.0,0.0,0.0,0.0,0.0,0.0,0.0,0.0,0.0,0.0,0.0,0.0,0.0,0.0,0.0,0.0,0.0,0.0,0.0,0.0,0.0,0.0,0.0,0.0,0.0,0.0,0.0,0.0,0.0,0.0,0.0,0.0,0.0,0.0,0.0,0.0,0.0,0.0,0.0,0.0,0.0,0.0,0.0,0.0,0.0,0.0,0.0,0.0,0.0,0.0,0.0,0.0,0.0,0.0,0.0,0.0,0.0,0.0,0.0,0.0,0.0,0.0,0.0,0.0,0.0,0.0,0.0,0.0,0.0,0.0,0.0,0.0,0.0,0.0,0.0,0.0,0.0,0.0,0.0,0.0,0.0,0.0,0.0,0.0,0.0,0.0,0.0,0.0,0.0,0.0,0.0,0.0,0.0,0.0,2.6867,2.7335,2.8154,2.835,2.8749,2.948,2.958,2.9703,3.0019,2.9539,0.0,0.0,0.0,0.0,0.0,0.0,0.0,0.0,0.0,0.0,0.0,0.0,0.0,0.0,0.0,0.0,0.0,0.0,0.0,0.0,0.0,0.0,0.0,0.0,0.0,0.0,0.0,0.0,0.0,0.0,0.0,0.0,0.0,0.0,0.0,0.0,0.0,0.0,0.0,0.0,0.0,0.0,0.0,0.0,0.0,0.0,0.0,0.0,0.0,0.0,0.0,0.0,0.0,0.0,0.0,0.0,0.0,0.0,0.0,0.0,0.0,0.0,0.0,0.0,0.0,0.0,0.0,0.0,0.0,0.0,0.0,0.0,0.0,0.0,0.0,0.0,0.0,0.0,0.0,0.0,0.0,0.0,0.0,0.0,0.0,0.0,0.0,0.0,0.0,0.0,0.0,0.0,0.0,0.0,0.0,0.0,0.0,0.0,0.0,0.0,0.0,0.0,2.676,2.6881,2.81,2.8248,2.9006,3.1067,3.1218,3.1366,3.1593,3.1381,0.0,0.0,0.0,0.0,0.0,0.0,0.0,0.0,0.0,0.0,0.0,0.0,0.0,0.0,0.0,0.0,0.0,0.0,0.0,0.0,0.0,0.0,0.0,0.0,0.0,0.0,0.0,0.0,0.0,0.0,0.0,0.0,0.0,0.0,0.0,0.0,0.0,0.0,0.0,0.0,0.0,0.0,0.0,0.0,0.0,0.0,0.0,0.0,0.0,0.0,0.0,0.0,0.0,0.0,0.0,0.0,0.0,0.0,0.0,0.0,0.0,0.0,0.0,0.0,0.0,0.0,0.0,0.0,0.0,0.0,0.0,0.0,0.0,0.0,0.0,0.0,0.0,0.0,0.0,0.0,0.0,0.0,0.0,0.0,0.0,0.0,0.0,0.0,0.0,0.0,0.0,0.0,0.0,0.0,0.0,0.0,0.0,0.0,0.0,0.0,0.0,0.0,2.6961,2.7175,2.7802,2.9244,3.0509,3.1309,3.2628,3.3574,3.3842,0.0,0.0,0.0,0.0,0.0,0.0,0.0,0.0,0.0,0.0,0.0,0.0,0.0,0.0,0.0,0.0,0.0,0.0,0.0,0.0,0.0,0.0,0.0,0.0,0.0,0.0,0.0,0.0,0.0,0.0,0.0,0.0,0.0,0.0,0.0,0.0,0.0,0.0,0.0,0.0,0.0,0.0,0.0,0.0,0.0,0.0,0.0,0.0,0.0,0.0,0.0,0.0,0.0,0.0,0.0,0.0,0.0,0.0,0.0,0.0,0.0,0.0,0.0,0.0,0.0,0.0,0.0,0.0,0.0,0.0,0.0,0.0,0.0,0.0,0.0,0.0,0.0,0.0,0.0,0.0,0.0,0.0,0.0,0.0,0.0,0.0,0.0,0.0,0.0,0.0,0.0,0.0,0.0,0.0,0.0,0.0,0.0,0.0,0.0,0.0,0.0,0.0,2.676,2.6921,2.7175,2.7642,2.9907,3.164,3.2381,3.431,3.5702,3.5977,0.0,0.0,0.0,0.0,0.0,0.0,0.0,0.0,0.0,0.0,0.0,0.0,0.0,0.0,0.0,0.0,0.0,0.0,0.0,0.0,0.0,0.0,0.0,0.0,0.0,0.0,0.0,0.0,0.0,0.0,0.0,0.0,0.0,0.0,0.0,0.0,0.0,0.0,0.0,0.0,0.0,0.0,0.0,0.0,0.0,0.0,0.0,0.0,0.0,0.0,0.0,0.0,0.0,0.0,0.0,0.0,0.0,0.0,0.0,0.0,0.0,0.0,0.0,0.0,0.0,0.0,0.0,0.0,0.0,0.0,0.0,0.0,0.0,0.0,0.0,0.0,0.0,0.0,0.0,0.0,0.0,0.0,0.0,0.0,0.0,0.0,0.0,0.0,0.0,0.0,0.0,0.0,0.0,0.0,0.0,0.0,0.0,0.0,0.0,0.0,0.0,0.0,2.6707,2.656,2.672,2.7602,2.9907,3.2284,3.4489,3.6333,3.7481,0.0,0.0,0.0,0.0,0.0,0.0,0.0,0.0,0.0,0.0,0.0,0.0,0.0,0.0,0.0,0.0,0.0,0.0,0.0,0.0,0.0,0.0,0.0,0.0,0.0,0.0,0.0,0.0,0.0,0.0,0.0,0.0,0.0,0.0,0.0,0.0,0.0,0.0,0.0,0.0,0.0,0.0,0.0,0.0,0.0,0.0,0.0,0.0,0.0,0.0,0.0,0.0,0.0,0.0,0.0,0.0,0.0,0.0,0.0,0.0,0.0,0.0,0.0,0.0,0.0,0.0,0.0,0.0,0.0,0.0,0.0,0.0,0.0,0.0,0.0,0.0,0.0,0.0,0.0,0.0,0.0,0.0,0.0,0.0,0.0,0.0,0.0,0.0,0.0,0.0,0.0,0.0,0.0,0.0,0.0,0.0,0.0,0.0,0.0,0.0,0.0,0.0,0.0,2.64,2.6079,2.6186,2.7281,3.1016,3.3629,3.4191,3.7451,3.9624,3.9739,0.0,0.0,0.0,0.0,0.0,0.0,0.0,0.0,0.0,0.0,0.0,0.0,0.0,0.0,0.0,0.0,0.0,0.0,0.0,0.0,0.0,0.0,0.0,0.0,0.0,0.0,0.0,0.0,0.0,0.0,0.0,0.0,0.0,0.0,0.0,0.0,0.0,0.0,0.0,0.0,0.0,0.0,0.0,0.0,0.0,0.0,0.0,0.0,0.0,0.0,0.0,0.0,0.0,0.0,0.0,0.0,0.0,0.0,0.0,0.0,0.0,0.0,0.0,0.0,0.0,0.0,0.0,0.0,0.0,0.0,0.0,0.0,0.0,0.0,0.0,0.0,0.0,0.0,0.0,0.0,0.0,0.0,0.0,0.0,0.0,0.0,0.0,0.0,0.0,0.0,0.0,0.0,0.0,0.0,0.0,0.0,0.0,0.0,0.0,0.0,0.0,0.0,2.6119,2.5812,2.5959,2.7148,3.1323,3.3958,3.4027,3.7649,4.0,4.0,0.0,0.0,0.0,0.0,0.0,0.0,0.0,0.0,0.0,0.0,0.0,0.0,0.0,0.0,0.0,0.0,0.0,0.0,0.0,0.0,0.0,0.0,0.0,0.0,0.0,0.0,0.0,0.0,0.0,0.0,0.0,0.0,0.0,0.0,0.0,0.0,0.0,0.0,0.0,0.0,0.0,0.0,0.0,0.0,0.0,0.0,0.0,0.0,0.0,0.0,0.0,0.0,0.0,0.0,0.0,0.0,0.0,0.0,0.0,0.0,0.0,0.0,0.0,0.0,0.0,0.0,0.0,0.0,0.0,0.0,0.0,0.0,0.0,0.0,0.0,0.0,0.0,0.0,0.0,0.0,0.0,0.0,0.0,0.0,0.0,0.0,0.0,0.0,0.0,0.0,0.0,0.0,0.0,0.0,0.0,0.0,0.0,0.0,0.0,0.0,0.0,0.0,2.5956,2.5651,2.5905,2.7134,3.087,3.3441,3.3881,3.6983,3.8918,3.9141,0.0,0.0,0.0,0.0,0.0,0.0,0.0,0.0,0.0,0.0,0.0,0.0,0.0,0.0,0.0,0.0,0.0,0.0,0.0,0.0,0.0,0.0,0.0,0.0,0.0,0.0,0.0,0.0,0.0,0.0,0.0,0.0,0.0,0.0,0.0,0.0,0.0,0.0,0.0,0.0,0.0,0.0,0.0,0.0,0.0,0.0,0.0,0.0,0.0,0.0,0.0,0.0,0.0,0.0,0.0,0.0,0.0,0.0,0.0,0.0,0.2632,0.2725,0.0,0.0,0.0,0.0,0.0,0.0,0.0,0.0,0.0,0.0,0.0,0.0,0.0,0.0,0.0,0.0,0.0,0.0,0.0,0.0,0.0,0.0,0.0,0.0,0.0,0.0,0.0,0.0,0.0,0.0,0.0,0.0,0.0,0.0,0.0,0.0,0.0,0.0,0.0,0.0,2.5929,2.5291,2.5451,2.7094,2.9414,3.159,3.3346,3.524,3.7016,3.8638,3.7634,0.0,0.0,0.0,0.0,0.0,0.0,0.0,0.0,0.0,0.0,0.0,0.0,0.0,0.0,0.0,0.0,0.0,0.0,0.0,0.0,0.0,0.0,0.0,0.0,0.0,0.0,0.0,0.0,0.0,0.0,0.0,0.0,0.0,0.0,0.0,0.0,0.0,0.0,0.0,0.0,0.0,0.0,0.0,0.0,0.0,0.0,0.0,0.0,0.0,0.0,0.0,0.0,0.0,0.0,0.0,0.0,0.0,0.0,0.0,0.5068,0.5058,0.0,0.0,0.0,0.0,0.0,0.0,0.0,0.0,0.0,0.0,0.0,0.0,0.0,0.0,0.0,0.0,0.0,0.0,0.0,0.0,0.0,0.0,0.0,0.0,0.0,0.0,0.0,0.0,0.0,0.0,0.0,0.0,0.0,0.0,0.0,0.0,0.0,0.0,0.0,0.0,2.5625,2.509,2.5251,2.6881,2.8647,3.0293,3.1575,3.3854,3.5595,3.645,3.7022,0.0,0.0,0.0,0.0,0.0,0.0,0.0,0.0,0.0,0.0,0.0,0.0,0.0,0.0,0.0,0.0,0.0,0.0,0.0,0.0,0.0,0.0,0.0,0.0,0.0,0.0,0.0,0.0,0.0,0.0,0.0,0.0,0.0,0.0,0.0,0.0,0.0,0.0,0.0,0.0,0.0,0.0,0.0,0.0,0.0,0.0,0.0,0.0,0.0,0.0,0.0,0.0,0.0,0.6849,0.6959,0.6946,0.7458,0.7679,0.7701,0.8046,0.7826,0.7444,0.756,0.0,0.0,0.0,0.0,0.0,0.0,0.0,0.0,0.0,0.0,0.0,0.0,0.0,0.0,0.0,0.0,0.0,0.0,0.0,0.0,0.0,0.0,2.6653,2.6613,2.6587,2.6533,2.6293,0.0,0.0,0.0,0.0,0.0,0.0,0.0,0.0,0.0,0.0,0.0,2.5264,2.4983,2.5237,2.66,2.7996,2.9115,2.9833,3.2609,3.4231,3.4198,3.5906,3.6875,0.0,0.0,0.0,0.0,0.0,0.0,0.0,0.0,0.0,0.0,0.0,0.0,0.0,0.0,0.0,0.0,0.0,0.0,0.0,0.0,0.0,0.0,0.0,0.0,0.0,0.0,0.0,0.0,0.0,0.0,0.0,0.0,0.0,0.0,0.0,0.0,0.0,0.0,0.0,0.0,0.0,0.0,0.0,0.0,0.0,0.0,0.0,0.4697,0.7057,0.7071,0.7064,0.7027,0.7073,0.7049,0.7121,0.9138,1.0042,1.0209,1.2247,0.0,1.0189,0.9965,0.0,0.0,0.0,0.0,0.0,0.0,0.0,0.0,0.0,0.0,0.0,0.0,0.0,0.0,0.0,0.0,0.0,0.0,0.0,0.0,0.0,0.0,2.5999,2.5745,2.5678,2.5678,2.5638,2.6493,2.7188,2.6934,2.6707,2.6547,0.0,0.0,0.0,0.0,0.0,0.0,2.4669,2.4903,2.5384,2.6346,2.6637,2.7667,2.9754,3.1022,3.2402,3.4108,3.5111,3.5957,3.6641,3.6309,0.0,0.0,0.0,0.0,0.0,0.0,0.0,0.0,0.0,0.0,0.0,0.0,0.0,0.0,0.0,0.0,0.0,0.0,0.0,0.0,0.0,0.0,0.0,0.0,0.0,0.0,0.0,0.0,0.0,-0.0678,0.0,0.0,0.0,-0.0435,0.0,0.0,0.0,0.0,0.0,0.0,0.0,0.0,0.0,0.5415,0.5472,0.7227,1.0972,1.0944,1.0912,1.0872,1.1084,1.1122,1.1175,1.2331,1.2774,1.2796,1.3843,1.3702,1.268,1.2513,1.2415,1.2364,0.0,0.0,0.0,0.0,1.1732,1.2686,1.2686,1.3401,1.4299,1.4299,0.0,0.0,0.0,0.0,0.0,0.0,0.0,2.3998,2.4845,2.5686,2.6119,2.5838,2.5892,2.6012,2.6012,2.6279,2.6493,2.636,2.636,2.6333,2.6172,2.5518,0.0,0.0,0.0,2.4262,2.4596,2.4756,2.5104,2.5825,2.5892,2.6334,2.7361,2.9645,3.1376,3.2261,3.4463,3.5918,3.6289,3.6348,3.6855,0.0,0.0,0.0,0.0,0.0,0.0,0.0,0.0,0.0,0.0,0.0,0.0,0.0,0.0,0.0,0.0,0.0,0.0,0.0,0.0,0.0,0.0,0.0,0.0,0.0,0.0,0.0,0.0,0.0,0.0,0.0,0.0,0.0,0.0,0.0,0.0,0.0,0.0,0.0,-0.2643,-0.0973,0.1865,0.6053,0.6748,0.9026,1.3154,1.374,1.4048,1.4014,1.4285,1.4414,1.4421,1.4638,1.4658,1.4509,1.4509,1.4428,1.4285,1.4136,1.4027,1.3953,1.3912,1.3994,1.4129,1.4129,1.4204,1.4299,1.4299,1.4299,1.4299,1.4299,1.4299,1.4299,1.4299,0.0,0.0,0.0,0.0,2.5022,2.641,2.66,2.6333,2.6119,2.6172,2.6279,2.6279,2.6052,2.5838,2.5838,2.5959,2.5959,2.5665,2.501,0.0,2.4422,2.4115,2.4008,2.4369,2.4609,2.4917,2.5358,2.5464,2.5518,2.5518,2.8311,3.0074,3.0074,3.3387,3.5295,3.5295,3.6053,3.6699,3.7129,0.0,0.0,0.0,0.0,0.0,0.0,0.0,0.0,0.0,0.0,0.0,0.0,0.0,0.0,0.0,0.0,0.0,0.0,0.0,0.0,0.0,0.0,0.0,0.0,0.0,0.0,0.0,0.0,0.0,0.0,0.0,0.0,0.0,0.0,0.0,-0.0177,-0.0177,-0.0177,-0.0177,-0.0089,0.116,0.3703,0.6102,0.8477,1.0885,1.3372,1.4624,1.4482,1.4638,1.4719,1.4719,1.4733,1.4658,1.4509,1.4509,1.4428,1.4285,1.4136,1.415,1.4265,1.4116,1.4156,1.4285,1.4285,1.4292,1.4299,1.4299,1.4299,1.4299,1.4299,1.4299,1.4299,1.4299,1.7422,0.0,0.0,2.3865,2.7025,2.6894,2.66,2.6386,2.6373,2.6172,2.605,2.605,2.5745,2.5531,2.5531,2.5331,2.505,2.4756,0.0,2.4128,2.3861,2.4022,2.4088,2.3848,2.4543,2.5064,2.5104,2.5344,2.5518,2.5518,2.7076,2.8057,2.8057,3.1395,3.3309,3.3309,3.5108,3.625,3.6699,3.7109,0.0,0.0,0.0,0.0,0.0,0.0,0.0,0.0,0.0,0.0,0.0,0.0,0.0,0.0,0.0,0.0,0.0,0.0,0.0,0.0,0.0,0.0,0.0,0.0,0.0,0.0,0.0,0.0,0.0,0.0,0.0,0.0,0.0,0.0,0.0,0.0,0.0,0.0,0.0,0.1089,0.3542,0.4481,0.6863,1.0745,1.1743,1.3047,1.4658,1.4814,1.4889,1.4889,1.4889,1.4808,1.4652,1.4557,1.4428,1.4299,1.4238,1.419,1.4136,1.398,1.4021,1.415,1.415,1.4217,1.4299,1.4299,1.4299,1.4285,1.4183,1.4082,1.4007,1.4007,1.6207,1.9084,2.0313,2.2799,2.5363,2.6491,2.66,2.6386,2.6386,2.6306,2.6239,2.6239,2.5852,2.5518,2.5518,2.5277,2.4983,2.469,2.4235,2.3888,2.3781,2.3861,2.3888,2.3781,2.4369,2.4796,2.4796,2.489,2.4943,2.4943,2.6586,2.8164,2.9361,3.0605,3.2455,3.4883,3.4452,3.4803,3.625,3.6406,3.6816,0.0,0.0,0.0,0.0,0.0,0.0,0.0,0.0,0.0,0.0,0.0,0.0,0.0,0.0,0.0,0.0,0.0,0.0,0.0,0.0,0.0,0.0,0.0,0.0,0.0,0.0,0.0,0.0,0.0,0.0,0.0,0.0,0.0,0.0,0.0,0.0,0.0,0.0,0.0745,0.2334,0.4129,0.655,0.9714,1.1552,1.3228,1.4821,1.497,1.5038,1.5038,1.4143,1.3671,1.3528,1.3391,1.3253,1.3135,1.3938,1.4238,1.4136,1.4034,1.4061,1.415,1.415,1.4211,1.4299,1.4299,1.4299,1.4278,1.4122,1.4034,1.3973,1.3871,1.5559,1.7794,1.9109,2.1014,2.3081,2.5225,2.5455,2.5489,2.6228,2.6319,2.6239,2.6239,2.5852,2.5518,2.5518,2.5197,2.4836,2.4543,2.4168,2.3888,2.3781,2.3848,2.3915,2.3915,2.4342,2.4636,2.4636,2.4636,2.4636,2.4636,2.5786,2.7026,2.8172,2.8854,3.057,3.3613,3.3244,3.3959,3.5947,3.6172,3.6523,3.709,0.0,0.0,0.0,0.0,0.0,0.0,0.0,0.0,0.0,0.0,0.0,0.0,0.0,0.0,0.0,0.0,0.0,0.0,0.0,0.0,0.0,0.0,0.0,-0.0348,0.0,0.0,0.0,0.0,0.0,0.0,0.0,0.0,0.0,0.0,0.0,0.0,0.0,0.0,0.0,0.5038,0.7612,0.74,1.2684,1.5174,1.4984,1.5026,1.5087,1.4986,1.2399,1.1156,1.1039,1.0836,1.0725,1.0806,1.3135,1.4122,1.4122,1.421,1.4299,1.4299,1.4299,1.4299,1.4299,1.4299,1.4299,1.4272,1.4122,1.417,1.4231,1.3933,1.5474,1.7365,1.7341,1.8662,2.0745,2.2957,2.3259,2.3564,2.5673,2.6029,2.5921,2.5908,2.5758,2.5545,2.5545,2.5077,2.4583,2.4289,2.4222,2.4115,2.3834,2.4022,0.0,2.4209,2.4449,2.4562,2.4649,2.4649,2.4649,2.4649,2.4649,2.4516,2.4294,2.5941,2.7663,2.9253,3.1439,3.3644,3.5928,3.6445,3.668,3.668,0.0,0.0,0.0,0.0,0.0,0.0,0.0,0.0,0.0,0.0,0.0,0.0,0.0,0.0,0.0,0.0,0.0,0.0,0.0,0.0,0.0,-0.4629,-0.2721,-0.0352,0.0,0.0,0.0,0.0,0.0,0.0,0.0,0.0,0.0,0.0,0.0,0.0,0.0,0.0,0.0,0.332,0.594,0.7625,1.0979,1.3537,1.5289,1.3311,1.2428,1.2334,0.967,0.8459,0.8465,0.8201,0.8117,0.8129,0.8842,0.9108,0.9468,1.2952,1.4299,1.4299,1.4299,1.4299,1.4299,1.4299,1.4231,1.4129,1.4089,1.4021,1.3953,1.3865,1.437,1.5298,1.6598,1.7585,1.8612,2.0559,2.1044,2.1158,2.1725,2.3179,2.4377,2.4263,2.5378,2.64,2.6186,2.5852,2.5438,2.493,2.4663,2.4422,2.4128,2.4155,2.4209,2.4209,2.4449,2.4716,2.493,2.4957,2.4957,2.4957,2.4957,2.5308,2.6185,2.5453,2.6848,3.1105,3.0565,3.1847,3.548,3.6289,3.668,0.0,0.0,0.0,0.0,0.0,0.0,0.0,0.0,0.0,0.0,0.0,0.0,0.0,0.0,0.0,0.0,0.0,0.0,0.0,0.0,0.0,0.0,-0.2927,-0.1617,-0.0182,0.0,0.0,0.0,0.0,0.0,0.0,0.0,0.0,0.0,0.0,0.0,0.0,0.0,0.0,0.0,0.2609,0.469,0.6135,0.8747,1.0736,1.2106,1.0596,0.9798,0.9698,0.7103,0.5925,0.5909,0.5713,0.5662,0.574,0.6681,0.7104,0.7373,0.0,0.0,0.0,0.0,1.4299,1.4299,1.4299,1.4245,1.4156,1.4095,1.4055,1.4007,1.3878,1.3946,1.4281,1.5293,1.5686,1.6299,1.8355,1.8885,1.9193,1.9977,2.1295,2.2284,2.2223,2.3938,2.5438,2.5228,2.5779,0.0,2.5545,2.5197,2.4943,2.4783,2.4649,2.4569,2.4569,2.4609,2.4703,2.4877,2.489,2.489,2.489,2.489,0.0,0.0,0.0,2.6283,3.0993,3.1764,0.0,0.0,0.0,3.6855,3.668,3.709,0.0,0.0,3.7363,3.7695,0.0,0.0,0.0,0.0,0.0,0.0,0.0,0.0,0.0,0.0,0.0,0.0,0.0,0.0,0.0,0.0,-0.0182,0.0,0.0,-0.0286,-0.048,-0.0492,-0.0795,-0.1003,-0.091,-0.0714,-0.0513,-0.0513,-0.0207,0.0,0.0,0.0,0.0,0.0,0.0,0.3903,0.3841,0.645,0.7781,0.7648,0.7348,0.715,0.7046,0.452,0.3356,0.3379,0.3288,0.3169,0.3371,0.5419,0.6283,0.6359,0.6912,0.8575,1.0984,1.3135,1.4033,1.4299,1.4299,0.0,0.0,1.4143,1.419,1.4251,1.3973,1.3987,1.4061,1.3912,1.3878,1.4314,1.6244,1.6763,1.7273,1.9175,1.9774,2.0036,2.0017,2.2048,2.3833,2.3528,2.5294,2.668,2.6106,2.5758,2.5545,2.5518,2.5264,2.5077,2.5077,2.4823,2.4649,2.469,2.469,0.0,2.469,2.469,2.4543,2.4222,2.4386,2.597,2.9367,3.345,3.5617,3.5655,3.6619,3.7012,3.6738,3.707,3.7266,3.7383,3.7754,3.793,0.0,0.0,0.0,0.0,0.0,0.0,0.0,0.0,0.0,0.0,0.0,0.0,0.0,0.0,0.0,-0.3257,-0.1208,0.0,0.0,-0.1908,-0.3352,-0.3344,-0.5406,-0.6871,-0.6886,-0.4741,-0.3418,-0.3339,-0.1249,0.0,0.0,0.0,0.0,0.0,0.2589,0.4029,0.3912,0.6531,0.7783,0.7695,0.5561,0.0,0.4454,0.1862,0.0781,0.0782,0.0675,0.0666,0.0751,0.1216,0.1394,0.1749,0.5583,0.8575,1.0717,1.1255,1.2597,1.4299,1.4299,1.4299,1.4292,1.4265,1.4278,1.4292,1.4231,1.4231,0.0,1.4068,1.4116,1.4271,1.4576,1.4727,1.4958,1.5255,1.686,1.8217,1.806,2.149,2.4397,2.3844,2.5596,2.7001,2.6413,2.6066,2.5785,2.5545,2.5264,2.5077,2.5077,2.4823,2.473,2.497,2.4997,2.4997,2.4997,2.4997,2.477,2.4235,2.5285,2.6313,2.7068,3.1012,3.3326,3.3725,3.5398,3.6562,3.7168,3.6914,3.7148,3.7812,3.7891,3.793,0.0,0.0,0.0,0.0,0.0,0.0,0.0,0.0,0.0,0.0,0.0,-1.3135,-0.9375,0.0,-0.5953,-0.2259,-0.077,-0.0492,-0.1922,-0.453,-0.5819,-0.4347,-0.6772,-0.8493,-0.8636,-0.5907,-0.4232,-0.4356,-0.1697,0.0,0.0,0.0,0.0,0.0,0.1261,0.1991,0.1983,0.3218,0.3916,0.388,0.2544,0.1925,0.1815,0.06,0.0,0.0,0.0,0.0,0.0,0.0,0.0751,0.2125,0.4495,0.6925,0.9342,1.1792,1.3381,1.4407,1.4407,1.436,1.4299,1.4299,1.4299,1.4299,1.4299,1.4299,1.4285,1.4204,1.4238,1.4285,1.4204,1.4245,1.4278,1.4204,1.5111,1.6011,1.5927,1.8658,2.131,2.1892,2.3892,2.5669,2.6308,2.6266,2.6119,2.5972,2.5571,2.5291,2.5291,2.4917,2.469,2.4836,2.4863,2.4863,2.4863,2.4997,2.4957,2.4663,2.6357,2.7418,2.7418,3.0113,3.2193,3.3389,3.4589,3.5927,3.7305,3.7519,3.7832,3.8242,3.8242,3.8242,0.0,0.0,0.0,0.0,0.0,0.0,0.0,-1.4007,-1.4143,-1.4082,-1.4265,-1.295,-0.7995,-0.7131,-0.5649,-0.0783,0.0,-0.101,-0.3827,-0.6684,-0.7872,-0.6093,-0.8345,-1.0208,-1.0285,-0.7081,-0.5051,-0.5272,-0.2045,0.0,0.0,0.0,0.0,0.0,0.0,0.0,0.0,0.0,0.0,0.0,0.0,0.0,0.0,0.0,0.0,0.0,0.0,0.0,0.0,0.0578,0.1985,0.3904,0.4857,0.6421,0.8584,1.25,1.4159,1.4509,1.4482,1.4394,1.4299,1.4299,1.4299,1.4299,1.4299,1.4299,1.4292,1.4265,1.4278,1.4285,1.4224,1.4258,1.4292,1.4265,1.4278,1.4299,1.4299,1.6015,1.8077,1.9942,2.208,2.4247,2.6043,2.6386,2.6386,2.6386,2.5932,2.5598,2.5598,2.509,2.4716,2.4716,2.4676,2.4636,2.4636,2.4917,2.5077,2.5077,2.6829,2.7815,2.7815,2.9388,3.096,3.2626,3.3374,3.4809,3.6907,3.7581,3.8112,3.8574,3.8574,3.8574,-1.4299,-1.4197,-1.4095,-1.4075,-1.4061,-1.4007,0.0,-1.4163,-1.4387,-1.4129,-1.4509,-1.3278,-0.8025,-0.7346,-0.5893,-0.0792,0.0,-0.1027,-0.3762,-0.6641,-0.9319,-1.1538,-1.4306,-1.6026,-1.6045,-1.1152,-0.7997,-0.8057,-0.3102,0.0,0.0,0.0,0.0,0.0,0.0,0.0,0.0,0.0,0.0,0.0,0.0,0.0,0.0,0.0,0.0,0.0,0.0,0.0,0.0196,0.2421,0.3542,0.4261,0.8626,1.0552,1.0801,1.1154,1.2705,1.4496,1.4367,1.4312,1.4299,1.4299,1.4299,1.4299,1.4299,1.4299,1.4272,1.4136,1.4197,1.4238,1.396,1.4095,1.4265,1.4129,1.4204,1.4299,1.4299,1.6107,1.8226,1.9972,2.2211,2.4301,2.6083,2.6386,2.6386,2.6386,2.6119,2.5905,2.5905,2.5398,2.5037,2.5037,2.4796,2.4636,2.4636,2.4917,2.5077,2.5077,2.5572,2.581,2.581,2.736,2.8488,2.9148,3.0486,3.2543,3.5376,3.5321,3.6456,3.8574,3.8574,3.8574,-1.4082,-1.3987,-1.3919,-1.3838,-1.3817,-1.3844,-1.3953,-1.4251,-1.4502,-1.4468,-1.4869,-1.3612,-0.8394,-0.8943,-0.854,-0.3247,-0.3806,-0.5932,-0.8738,-1.0155,-1.1954,-1.4737,-1.4691,-1.4557,-1.4633,-1.09,-0.7818,-0.6236,-0.2363,0.0,0.0,0.0,0.0,0.0,0.0,0.0,0.0,0.0,0.0,0.0,0.0,0.0,0.0,0.0,0.0,0.0,0.0,0.0,0.0196,0.2697,0.4563,0.621,0.9644,1.1922,1.3236,1.3126,1.3674,1.4502,1.4441,1.4367,1.4299,1.4299,1.4299,1.4299,1.4299,1.4299,1.4285,1.4224,1.4251,1.4251,1.4034,1.4068,1.415,1.4089,1.4122,1.419,1.4278,1.493,1.6457,1.9671,2.0941,2.2576,2.5858,2.6386,2.6386,2.6386,2.6146,2.5892,2.5718,2.5344,2.501,2.4836,2.4716,2.4703,2.4877,2.517,2.5331,2.5331,2.5611,2.5772,2.5772,2.6136,2.7058,2.867,2.9238,3.1285,3.4993,3.5154,3.6404,3.8574,3.8574,3.8574,-1.398,-1.3905,-1.3871,-1.3722,-1.3749,-1.3878,-1.4136,-1.4455,-1.474,-1.4896,-1.5248,-1.4102,-0.9599,-1.0631,-1.0607,-0.608,-0.7063,-0.921,-1.1217,-1.1528,-1.2211,-1.4192,-1.2761,-1.1259,-1.0619,-0.8545,-0.6537,-0.4612,-0.1719,0.0,0.0,0.0,0.0,0.0,0.0,0.0,0.0,0.0,0.0,0.0,0.0,0.0,0.0,0.0,0.0,0.0,0.0,0.0,0.0195,0.3338,0.5735,0.7724,1.0761,1.301,1.4672,1.4631,1.457,1.4509,1.4468,1.4387,1.4299,1.4299,1.4299,1.4299,1.4299,1.4299,1.4292,1.4251,1.4265,1.4251,1.4061,1.4068,1.4122,1.4082,1.4102,1.4163,1.4278,1.4122,1.5044,1.8744,1.9722,2.1189,2.4866,2.5977,2.636,2.6279,2.6159,2.5999,2.5785,2.5424,2.509,2.4796,2.4756,2.485,2.5064,2.5344,2.5478,2.5398,2.5665,2.5838,2.5838,2.5344,2.5944,2.7716,2.765,2.9747,3.4027,3.4324,3.5943,3.8574,3.8574,3.8574,-1.4109,-1.4061,-1.4027,-1.3871,-1.4055,-1.4319,-1.4462,-1.4841,-1.5208,-1.5357,-1.5628,-1.5048,-1.218,-1.1872,-1.121,-0.8646,-0.8263,-0.8417,-0.8573,-0.8633,-0.866,-0.8789,-0.8713,-0.7575,-0.4759,-0.4421,-0.4255,-0.4255,-0.1597,0.0,0.0,0.0,0.0,0.0,0.0,0.0,0.0,0.0,0.0,0.0,0.0,0.0,0.0,0.0,0.0,0.0,0.0,0.0,0.0382,0.5268,0.7346,0.7823,1.2571,1.4433,1.4502,1.4367,1.4394,1.4489,1.4353,1.4306,1.4299,1.4299,1.4299,1.4299,1.4299,1.4299,1.4272,1.4122,1.4183,1.4231,1.3926,1.4068,1.4258,1.4109,1.4183,1.4292,1.4299,1.4292,1.4892,1.6779,1.8885,2.09,2.2901,2.5012,2.6293,2.609,2.6199,2.6373,2.636,2.5852,2.5384,2.5104,2.5064,2.5064,2.5077,2.5344,2.5398,2.5117,2.5371,2.5531,2.5531,2.5237,2.5166,2.5179,2.5241,2.736,3.1726,3.1944,3.4324,3.8574,3.8574,3.8574,-1.3987,-1.3994,-1.4061,-1.4007,-1.415,-1.4387,-1.474,-1.5086,-1.535,-1.5398,-1.5574,-1.4893,-1.2063,-1.3057,-1.3493,-1.1201,-1.2429,-1.3103,-1.1515,-1.1313,-1.0578,-0.8621,-0.6711,-0.5278,-0.4207,-0.4147,-0.3465,-0.1595,-0.0533,0.0,0.0,0.0,0.0,0.0,0.0,0.0,0.0,0.0,0.0,0.0,0.0,0.0,0.0,0.0,0.0,0.0,0.0,0.0,0.0377,0.5175,0.7228,0.7653,1.2526,1.4373,1.4367,1.4319,1.4333,1.4367,1.4319,1.4299,1.4299,1.4299,1.4299,1.4299,1.4299,1.4299,1.4292,1.4238,1.4258,1.4251,1.4048,1.4068,1.4136,1.4082,1.4109,1.4177,1.4278,1.4136,1.4564,1.6653,1.8671,2.065,2.2763,2.492,2.6293,2.6077,2.5879,2.5812,2.5812,2.5464,2.5117,2.4823,2.4957,2.5077,2.5077,2.5344,2.5384,2.5104,2.517,2.5224,2.5224,2.4943,2.497,2.5358,2.5184,2.6612,2.9582,3.1183,3.35,3.6327,3.7909,3.8574,-1.3912,-1.3994,-1.415,-1.415,-1.4346,-1.4631,-1.497,-1.5276,-1.5479,-1.5418,-1.5493,-1.4924,-1.3138,-1.4134,-1.48,-1.3499,-1.4779,-1.4788,-1.1442,-1.0911,-0.9601,-0.5747,-0.3814,-0.2685,-0.2568,-0.2684,-0.1984,-0.0106,0.0,0.0,0.0,0.0,0.0,0.0,0.0,0.0,0.0,0.0,0.0,0.0,0.0,0.0,0.0,0.0,0.0,0.0,0.0,0.0,0.0371,0.5094,0.7131,0.7574,1.2449,1.4299,1.4299,1.4299,1.4299,1.4299,1.4299,1.4299,1.4299,1.4299,1.4299,1.4299,1.4299,1.4299,1.4299,1.4299,1.4299,1.4278,1.4177,1.415,1.415,1.415,1.415,1.4183,1.4278,1.4143,1.4419,1.5723,1.7565,1.9545,2.1665,2.4418,2.6172,2.6063,2.5705,2.5518,2.5518,2.5264,2.505,2.4957,2.5117,2.5197,2.509,2.5344,2.5344,2.4943,2.4917,2.4917,2.4917,2.473,2.481,2.5197,2.5117,2.6196,2.8447,3.082,3.306,3.5157,3.754,3.8574,-1.3899,-1.4082,-1.4312,-1.4319,-1.4652,-1.5004,-1.5046,-1.5207,-1.5278,-1.5023,-1.499,-1.5039,-1.4986,-1.4845,-1.4945,-1.5371,-1.5303,-1.3531,-0.8723,-0.7945,-0.5929,-0.0828,-0.0102,0.0,0.0,0.0,0.0,0.0,0.0,0.0,0.0,0.0,0.0,0.0,0.0,0.0,0.0,0.0,0.0,0.0,0.0,0.0,0.0,0.0,0.0,0.0,0.0,0.0,0.0364,0.5119,0.7057,0.7591,1.2414,1.4299,1.4299,1.4299,1.4299,1.4299,1.4299,1.4299,1.4299,1.4299,1.4299,1.4299,1.4299,1.4299,1.4299,1.4299,1.4299,1.4299,1.4299,1.4299,1.4299,1.4299,1.4299,1.4299,1.4299,1.4292,1.4245,1.4102,1.5809,1.7887,2.0066,2.3468,2.601,2.5996,2.5651,2.5478,2.5491,2.5251,2.5184,2.5438,2.5478,2.5371,2.5077,2.5331,2.5251,2.4676,2.4636,2.4636,2.4636,2.4636,2.4636,2.4636,2.4917,2.5996,2.7954,3.0543,3.2821,3.4828,3.7302,3.8428,-1.4566,-1.4319,-1.4482,-1.4597,-1.4801,-1.4507,-1.2754,-1.2505,-1.2078,-0.9999,-0.9591,-1.012,-1.1668,-1.1916,-1.2591,-1.5172,-1.5547,-1.4532,-1.1875,-0.962,-0.7078,-0.3523,-0.1247,0.0,0.0,0.0,0.0,0.0,0.0,0.0,0.0,0.0,0.0,0.0,0.0,0.0,0.0,0.0,0.0,0.0,0.0,0.0,0.0,0.0,0.0,0.0,0.0,0.0,0.036,0.5102,0.7057,0.7591,1.2414,1.4299,1.4299,1.4299,1.4299,1.4299,1.4299,1.4299,1.4299,1.4299,1.4299,1.4299,1.4299,1.4299,1.4299,1.4299,1.4299,1.4299,1.4299,1.4299,1.4299,1.4299,1.4299,1.4299,1.4299,1.4211,1.4122,1.4082,1.6891,2.0436,2.3922,2.5153,2.5558,2.5331,2.505,2.4943,2.5157,2.513,2.5024,2.4877,2.5064,2.5064,2.477,2.5024,2.5037,2.4663,2.4636,2.4636,2.4636,2.4636,2.4636,2.4636,2.4716,2.4965,2.5469,2.8208,2.9707,3.0378,3.4451,3.6275,-1.484,-1.4407,-1.4577,-1.4862,-1.495,-1.4706,-1.3349,-1.224,-1.1041,-0.9407,-0.8269,-0.8155,-1.0392,-1.0729,-1.1671,-1.4825,-1.5289,-1.4603,-1.2708,-1.1145,-0.8671,-0.4631,-0.285,-0.148,-0.0106,0.0,0.0,0.0,0.0,0.0,0.0,0.0,0.0,0.0,0.0,0.0,0.0,0.0,0.0,0.0,0.0,0.0,0.0,0.0,0.0,0.0,0.0,0.0,0.0359,0.5121,0.7087,0.7591,1.2414,1.4299,1.4299,1.4299,1.4299,1.4299,1.4299,1.4299,1.4299,1.4299,1.4299,1.4299,1.4299,1.4299,1.4299,1.4299,1.4299,1.4299,1.4299,1.4299,1.4299,1.4299,1.4299,1.4299,1.4299,1.5008,1.593,1.68,1.9538,2.2374,2.4385,2.5257,2.5611,2.5317,2.5024,2.4836,2.4877,2.489,2.4877,2.4836,2.4983,2.4957,2.4663,2.4917,2.4957,2.4649,2.4636,2.4636,2.4636,2.4636,2.4636,2.4636,2.477,2.477,2.4636,2.7415,2.8687,2.8717,3.334,3.5497,-1.5034,-1.4509,-1.4726,-1.5113,-1.5106,-1.4932,-1.4752,-1.2673,-1.0712,-1.0045,-0.8025,-0.7112,-0.9333,-0.9668,-1.057,-1.3592,-1.3875,-1.3451,-1.2351,-1.1952,-1.014,-0.5886,-0.5125,-0.4052,-0.1399,-0.0749,-0.0533,-0.0533,-0.0213,0.0,0.0,0.0,0.0,0.0,0.0,0.0,0.0,0.0,0.0,0.0,0.0,0.0,0.0,0.0,0.0,0.0,0.0,0.0,0.036,0.5158,0.7128,0.7591,1.2414,1.4299,1.4299,1.4299,1.4299,1.4299,1.4299,1.4299,1.4299,1.4299,1.4299,1.4299,1.4299,1.4299,1.4299,1.4299,1.4285,1.4272,1.4292,1.4285,1.4278,1.4292,1.4299,1.4299,1.4299,1.5858,1.7992,2.014,2.2067,2.3411,2.3428,2.4916,2.5838,2.5504,2.5237,2.497,2.4676,2.4636,2.473,2.4997,2.5024,2.4917,2.4589,2.4877,2.4917,2.4649,2.4636,2.4636,2.4636,2.4636,2.4636,2.4636,2.493,2.4957,2.469,2.7316,2.8441,2.8341,3.2684,3.4826,-1.5818,-1.5052,-1.5276,-1.535,-1.5255,-1.4645,-1.2486,-0.9981,-0.7526,-0.5322,-0.2916,-0.2032,-0.4404,-0.4799,-0.5762,-0.8629,-0.9027,-0.9859,-1.2277,-1.0622,-0.9631,-1.1033,-0.9235,-0.7644,-0.7125,-0.4892,-0.3509,-0.3509,-0.1278,0.0,0.0,0.0,0.0,0.0,0.0,0.0,0.0,0.0,0.0,0.0,0.0,0.0,0.0,0.0,0.0,0.0,0.0,0.0,0.0364,0.5172,0.7128,0.7591,1.2414,1.4299,1.4299,1.4299,1.4299,1.4299,1.4299,1.4299,1.4299,1.4299,1.4299,1.4299,1.4299,1.4299,1.4299,1.4299,1.4211,1.4143,1.4265,1.4204,1.4143,1.4272,1.4299,1.4299,1.4299,1.4646,1.6022,1.9635,2.0648,2.185,2.4967,2.5752,2.5772,2.5237,2.5117,2.497,2.4676,2.4636,2.4649,2.4703,2.4716,2.469,2.4562,2.469,2.469,2.4562,2.4636,2.4636,2.4636,2.4636,2.4636,2.4636,2.493,2.505,2.501,2.6022,2.6539,2.6484,2.9192,3.1344,-1.5996,-1.5303,-1.5445,-1.5601,-1.5357,-1.4506,-1.2053,-0.9294,-0.6535,-0.4122,-0.1669,-0.0704,-0.3125,-0.3639,-0.4496,-0.7319,-0.7778,-0.8954,-1.2094,-1.1541,-1.1264,-1.247,-1.1603,-1.0249,-0.8652,-0.7237,-0.5841,-0.4359,-0.2966,-0.1586,-0.0106,0.0,0.0,0.0,0.0,0.0,0.0,0.0,-0.0685,-0.1973,-0.2073,-0.2058,-0.2028,-0.205,-0.1352,0.0,0.0,0.0,0.0276,0.385,0.6005,0.7473,1.101,1.3224,1.4299,1.4299,1.4299,1.4299,1.4299,1.4299,1.4299,1.4299,1.4299,1.4299,1.4299,1.4299,1.4285,1.4204,1.4183,1.417,1.4082,1.4068,1.4089,1.4163,1.4245,1.4646,1.5858,1.7071,1.8808,2.1726,2.3166,2.4501,2.6096,2.6159,2.5812,2.5371,2.5184,2.497,2.4676,2.4636,2.4636,2.4636,2.4636,2.4636,2.4636,2.4636,2.4636,2.4636,2.4636,2.4636,2.4636,2.4636,2.4636,2.4636,2.493,2.5077,2.5077,2.5678,2.6037,2.6037,2.8308,3.0515,-1.5289,-1.5089,-1.5608,-1.5845,-1.5459,-1.448,-1.2118,-0.9273,-0.6466,-0.4088,-0.166,-0.0613,-0.2491,-0.284,-0.358,-0.576,-0.6085,-0.7178,-1.028,-1.097,-1.1497,-1.2419,-1.2716,-1.2176,-1.047,-0.9662,-0.8147,-0.5296,-0.398,-0.2295,-0.0105,0.0,0.0,0.0,0.0,0.0,0.0,0.0,-0.0963,-0.2993,-0.3045,-0.3133,-0.297,-0.3138,-0.1949,0.0,0.0,0.0,0.0186,0.259,0.4951,0.7342,0.9772,1.2148,1.4299,1.4299,1.4299,1.4299,1.4299,1.4299,1.4299,1.4299,1.4299,1.4299,1.4299,1.4299,1.4272,1.4116,1.4136,1.4143,1.3905,1.3905,1.3994,1.4055,1.4163,1.478,1.6633,1.8453,2.0288,2.2319,2.4389,2.5816,2.597,2.603,2.5932,2.5571,2.5317,2.5037,2.469,2.4636,2.4636,2.4636,2.4636,2.4636,2.4636,2.4636,2.4663,2.473,2.473,2.473,2.473,2.4783,2.4796,2.473,2.509,2.5264,2.5264,2.5798,2.613,2.613,2.7884,2.9821,-1.3323,-1.4031,-1.6029,-1.6056,-1.5608,-1.4591,-1.2134,-0.9221,-0.641,-0.4082,-0.1651,-0.0087,-0.0261,-0.0345,-0.0433,-0.0715,-0.0707,-0.1686,-0.4581,-0.4976,-0.6848,-1.1869,-1.2595,-1.3631,-1.5736,-1.3625,-1.1,-0.8281,-0.3284,-0.0306,0.0,0.0,0.0,0.0,0.0,0.0,0.0,0.0,-0.0095,-0.0387,-0.0391,-0.0393,-0.0392,-0.0393,-0.0195,0.0,0.0,0.0,0.0188,0.2597,0.4951,0.7342,0.9772,1.2148,1.4299,1.4299,1.4299,1.4299,1.4299,1.4299,1.4299,1.4299,1.4299,1.4299,1.4299,1.4299,1.4272,1.4116,1.398,1.3878,1.3844,1.3756,1.3736,1.4007,1.4082,1.4217,1.453,1.4822,1.5513,1.74,1.9493,2.1501,2.3177,2.5079,2.6159,2.5598,2.5491,2.5277,2.4629,2.4636,2.4636,2.4636,2.4636,2.4636,2.4636,2.4636,2.4756,2.5024,2.5037,2.5037,2.5037,2.5291,2.5304,2.5037,2.5585,2.5956,2.5956,2.6199,2.6346,2.6346,2.661,2.7762,-1.47,-1.5178,-1.6103,-1.6198,-1.5696,-1.4228,-1.0342,-0.8255,-0.6021,-0.2195,-0.0706,0.0,0.0,0.0,-0.0428,-0.1623,-0.1844,-0.2848,-0.5578,-0.6092,-0.7722,-1.1862,-1.2515,-1.359,-1.6359,-1.557,-1.374,-1.0931,-0.5539,-0.2402,-0.2306,-0.08,0.0,0.0,0.0,0.0,0.0,0.0,-0.075,-0.2277,-0.2328,-0.2345,-0.2332,-0.236,-0.1569,0.0,0.0,0.0,0.0095,0.1032,0.3718,0.7381,0.8167,1.0904,1.4414,1.4333,1.4299,1.4299,1.4299,1.4299,1.4299,1.4299,1.4299,1.4299,1.4299,1.4238,1.4129,1.3973,1.3885,1.3797,1.362,1.3668,1.3783,1.3905,1.4075,1.4224,1.4285,1.5425,1.6602,1.7404,2.0154,2.2676,2.34,2.5147,2.6253,2.5838,2.5625,2.5358,2.4957,2.4903,2.4836,2.4649,2.4636,2.4636,2.4636,2.4636,2.4756,2.5064,2.5077,2.5157,2.5331,2.5451,2.5464,2.5344,2.5745,2.6037,2.6037,2.6253,2.6386,2.6386,2.6386,2.756,-1.2678,-1.3068,-1.372,-1.3854,-1.3359,-1.1898,-0.775,-0.6416,-0.4886,-0.0796,0.0,0.0,0.0,0.0,-0.0679,-0.2734,-0.3076,-0.3775,-0.5672,-0.6056,-0.7085,-0.9545,-1.0523,-1.2085,-1.4949,-1.5265,-1.4007,-1.1026,-0.6595,-0.3614,-0.271,-0.0966,0.0,0.0,0.0,0.0,0.0,0.0,-0.0926,-0.2708,-0.279,-0.2722,-0.2706,-0.2751,-0.1767,0.0,0.0,0.0,0.0,0.0,0.2907,0.7373,0.7134,1.0154,1.4496,1.4353,1.4299,1.4299,1.4299,1.4299,1.4299,1.4299,1.4299,1.4292,1.4245,1.4156,1.4041,1.3885,1.3777,1.3661,1.3458,1.3587,1.379,1.3831,1.4041,1.4245,1.4292,1.5601,1.6705,1.6745,1.9978,2.2721,2.2725,2.4752,2.6293,2.6077,2.5785,2.5531,2.5251,2.5211,2.509,2.4796,2.485,2.4863,2.477,2.485,2.5024,2.5317,2.5344,2.5424,2.5638,2.5718,2.5732,2.5651,2.5932,2.6079,2.6092,2.6293,2.6386,2.6386,2.6386,2.7629,-0.5416,-0.6076,-0.8106,-0.8091,-0.7841,-0.7017,-0.4589,-0.3812,-0.2909,-0.053,0.0,0.0,0.0,0.0,-0.0679,-0.2734,-0.3076,-0.3108,-0.3108,-0.3171,-0.3399,-0.4025,-0.6103,-0.8726,-1.2013,-1.2184,-1.0923,-0.8017,-0.5354,-0.2654,-0.0188,0.0,0.0,0.0,0.0,0.0,0.0,0.0,0.0,0.0,0.0,0.0,0.0,0.0,0.0,0.0,0.0,0.0,0.0,0.0,0.2907,0.7373,0.7134,1.0154,1.4496,1.4353,1.4299,1.4299,1.4299,1.4299,1.4299,1.4299,1.4299,1.4272,1.4122,1.4075,1.4041,1.3885,1.3634,1.3403,1.3403,1.3512,1.3668,1.3804,1.396,1.4116,1.4265,1.4299,1.4339,1.4189,1.7511,2.0326,2.0178,2.3627,2.6293,2.6077,2.6037,2.5838,2.5545,2.5504,2.5398,2.5104,2.5331,2.5384,2.5104,2.5344,2.5625,2.601,2.6023,2.6023,2.5959,2.6226,2.6239,2.6037,2.6239,2.6386,2.6386,2.6386,2.6386,2.6386,2.6386,2.7629,-0.9415,-0.8496,-0.8028,-0.8203,-0.7855,-0.6943,-0.4541,-0.3814,-0.2941,-0.0536,0.0,0.0,0.0,0.0,-0.0666,-0.2781,-0.3118,-0.313,-0.3081,-0.3082,-0.3337,-0.393,-0.6293,-0.8247,-0.9273,-0.9294,-0.8884,-0.7834,-0.5391,-0.3563,-0.2602,-0.0915,0.0,0.0,0.0,0.0,0.0,0.0,0.0,0.0,0.0,0.0,0.0,0.0,0.0,0.0,0.0,0.0,0.0,0.0,0.2907,0.7373,0.7134,1.0154,1.4496,1.4353,1.4299,1.4299,1.4299,1.4299,1.4299,1.4299,1.4231,1.4136,1.4089,1.3994,1.3865,1.3614,1.3471,1.3403,1.3403,1.3587,1.3783,1.3831,1.4041,1.4238,1.4292,1.4299,1.4285,1.4238,1.642,1.873,2.0274,2.2684,2.4914,2.6666,2.6346,2.5999,2.6092,2.5945,2.5705,2.5411,2.5812,2.5838,2.5144,2.5344,2.5638,2.601,2.6037,2.6052,2.6239,2.6333,2.6346,2.6253,2.6346,2.6386,2.6386,2.6386,2.6493,2.6694,2.7094,2.8532,-0.8648,-0.7435,-0.6182,-0.5391,-0.4943,-0.4312,-0.2846,-0.2351,-0.2049,-0.1426,-0.1237,-0.1484,-0.232,-0.2435,-0.2875,-0.4118,-0.428,-0.4042,-0.3204,-0.3127,-0.3229,-0.3592,-0.5363,-0.6746,-0.7501,-0.7752,-0.7449,-0.6395,-0.4843,-0.3506,-0.2376,-0.0903,0.0,0.0,0.0,0.0,0.0,0.0,0.0,0.0,0.0,0.0,0.0,0.0,0.0,0.0,0.0,0.0,0.0,0.0,0.2425,0.6131,0.6854,0.9613,1.322,1.3991,1.4299,1.4299,1.4299,1.4299,1.4299,1.4299,1.4156,1.3973,1.3919,1.3838,1.3709,1.3471,1.3403,1.3417,1.3471,1.3661,1.3858,1.3912,1.4116,1.4299,1.4299,1.4299,1.4299,1.4299,1.5897,1.7734,1.9277,2.1766,2.4138,2.5729,2.6133,2.6346,2.6533,2.6306,2.5999,2.5718,2.6106,2.6119,2.5464,2.5678,2.5919,2.6106,2.6119,2.6199,2.6386,2.6386,2.6386,2.6386,2.6386,2.6386,2.6386,2.6493,2.664,2.6841,2.7428,2.8428,0.0,-0.3716,-0.3,-0.0829,-0.0092,0.0,0.0,0.0,0.0,-0.2641,-0.3226,-0.3952,-0.5885,-0.6381,-0.6445,-0.6311,-0.6148,-0.5375,-0.339,-0.2988,-0.2917,-0.2859,-0.3382,-0.4448,-0.6259,-0.693,-0.6238,-0.3692,-0.3567,-0.2536,-0.009,0.0,0.0,0.0,0.0,0.0,0.0,0.0,0.0,0.0,0.0,0.0,0.0,0.0,0.0,0.0,0.0,0.0,0.0,0.0,0.1478,0.3962,0.6192,0.8607,1.1125,1.3445,1.4299,1.4299,1.4299,1.4299,1.4299,1.4278,1.4068,1.3797,1.3654,1.3614,1.3587,1.3451,1.3417,1.3451,1.3607,1.3749,1.3892,1.4041,1.419,1.4299,1.4299,1.4299,1.4299,1.4299,1.5817,1.7157,1.7329,2.082,2.3619,2.3808,2.5539,2.6827,2.6854,2.6587,2.6279,2.609,2.6226,2.6279,2.609,2.6239,2.6386,2.6386,2.6386,2.6386,2.6386,2.6386,2.6386,2.6386,2.6386,2.6386,2.6386,2.668,2.6827,2.6867,2.7442,2.7709,-0.6898,0.0,-0.3259,-0.2874,-0.1336,0.0,0.0,0.0,-0.0175,-0.0698,-0.2059,-0.3293,-0.3778,-0.524,-0.6327,-0.6294,-0.4886,-0.3663,-0.3159,-0.1758,-0.0755,-0.0711,-0.081,-0.1091,-0.1565,-0.1758,-0.1571,-0.0915,-0.0913,-0.0635,0.0,0.0,0.0,0.0,0.0,0.0,0.0,0.0,0.0,0.0,0.0,0.0,0.0,0.0,0.0,0.0,0.0,0.0,0.0,0.0,0.1462,0.392,0.6215,0.8603,1.102,1.3413,1.4299,1.4299,1.4299,1.4299,1.4258,1.4027,1.3824,1.3648,1.3498,1.3458,1.3471,1.3553,1.3573,1.3607,1.3756,1.3905,1.4027,1.4061,1.419,1.4299,1.4299,1.4299,1.4299,1.4299,1.4706,1.5542,1.7347,1.9847,2.2149,2.4225,2.5792,2.6907,2.7134,2.6707,2.636,2.6293,2.6346,2.636,2.6293,2.6346,2.6386,2.6386,2.6386,2.6386,2.6386,2.6386,2.6386,2.6386,2.6386,2.6386,2.6386,2.668,2.6934,2.7175,2.7535,2.7816,-0.732,-0.5998,-0.4696,-0.3804,-0.1757,0.0,0.0,0.0,-0.0257,-0.1283,-0.3189,-0.4944,-0.59,-0.7781,-0.8821,-0.7833,-0.6693,-0.5223,-0.3331,-0.1308,0.0,0.0,0.0,0.0,0.0,0.0,0.0,0.0,0.0,0.0,0.0,0.0,0.0,0.0,0.0,0.0,0.0,0.0,0.0,0.0,0.0,0.0,0.0,0.0,0.0,0.0,0.0,0.0,0.0,0.0,0.1447,0.3789,0.618,0.8575,1.0984,1.3401,1.4299,1.4292,1.4217,1.4197,1.4156,1.3919,1.379,1.3695,1.3553,1.3458,1.3431,1.3587,1.358,1.3587,1.3871,1.3953,1.4,1.4143,1.4238,1.4299,1.4299,1.4299,1.4299,1.4299,1.4299,1.4734,1.5946,1.8026,2.023,2.2761,2.4556,2.5975,2.7173,2.6867,2.6533,2.64,2.6386,2.6386,2.6386,2.6386,2.6386,2.6386,2.6386,2.6453,2.6587,2.6587,2.6587,2.6587,2.6453,2.6453,2.6587,2.6881,2.7175,2.7468,2.7762,2.8073,-0.6994,-0.6911,-0.649,-0.4553,-0.2263,-0.0518,-0.0519,-0.051,-0.1004,-0.2924,-0.5002,-0.7,-0.8744,-1.0933,-1.1753,-0.9632,-0.8962,-0.7488,-0.3716,-0.1344,0.0,0.0,0.0,0.0,0.0,0.0,0.0,0.0,0.0,0.0,0.0,0.0,0.0,0.0,0.0,0.0,0.0,0.0,0.0,0.0,0.0,0.0,0.0,0.0,0.0,0.0,0.0,0.0,0.0,0.036,0.1793,0.3848,0.6611,0.893,1.0984,1.3375,1.4278,1.4278,1.4122,1.4041,1.3987,1.3878,1.381,1.3756,1.3661,1.3519,1.3437,1.3614,1.3553,1.3532,1.396,1.3973,1.3946,1.4231,1.4299,1.4299,1.4299,1.4299,1.4299,1.4299,1.4299,1.4299,1.4299,1.629,1.8453,2.0356,2.2662,2.4819,2.6609,2.6824,2.68,2.6547,2.652,2.652,2.652,2.652,2.652,2.652,2.648,2.6587,2.6881,2.6854,2.6827,2.6827,2.6533,2.6533,2.6827,2.7068,2.7375,2.7709,2.7963,2.8181,-0.7626,-0.6959,-0.6843,-0.6487,-0.4501,-0.2669,-0.2864,-0.2737,-0.2692,-0.3098,-0.4836,-0.6442,-0.6758,-0.9931,-1.1869,-0.9898,-0.807,-0.6107,-0.3853,-0.1468,0.0,0.0,0.0,0.0,0.0,0.0,0.0,0.0,0.0,0.0,0.0,0.0,0.0,0.0,0.0,0.0,0.0,0.0,0.0,0.0,0.0,0.0,0.0,0.0,0.0,0.0,0.0,0.0,0.018,0.2241,0.3224,0.4027,0.8397,1.0357,1.0973,1.3267,1.419,1.4278,1.4122,1.3905,1.3715,1.381,1.3675,1.3492,1.3593,1.3519,1.3458,1.3729,1.3702,1.3668,1.3987,1.4055,1.4082,1.4258,1.4299,1.4299,1.4299,1.4299,1.4299,1.4299,1.4299,1.4299,1.4299,1.629,1.7938,1.8279,2.1724,2.4291,2.4663,2.6198,2.7188,2.7134,2.7134,2.7134,2.7134,2.7134,2.7134,2.7134,2.6894,2.6894,2.7188,2.6961,2.6827,2.6827,2.6533,2.6533,2.6827,2.6867,2.7175,2.7696,2.7749,2.7896,-0.7623,-0.5986,-0.5235,-0.6489,-0.4919,-0.3376,-0.4576,-0.554,-0.625,-0.6329,-0.7873,-0.9259,-0.9557,-1.0136,-1.037,-0.9691,-0.7819,-0.6238,-0.5389,-0.2248,0.0,0.0,0.0,0.0,0.0,0.0,0.0,0.0,0.0,0.0,0.0,0.0,0.0,0.0,0.0,0.0,0.0,0.0,0.0,0.0,0.0,0.0,0.0,0.0,0.0,0.0,0.0,0.0718,0.2061,0.3134,0.5097,0.7684,0.9824,1.1522,1.2756,1.3773,1.4116,1.4143,1.3912,1.3851,1.3865,1.3844,1.3749,1.3668,1.3824,1.3709,1.3566,1.3783,1.3736,1.3715,1.4095,1.4136,1.4109,1.4265,1.4299,1.4299,1.4299,1.4299,1.4299,1.4299,1.4299,1.4299,1.4299,1.5168,1.6378,1.7588,1.9501,2.1542,2.3894,2.5045,2.6084,2.72,2.7268,2.7268,2.7268,2.7268,2.7268,2.7268,2.7281,2.7281,2.7268,2.7281,2.7148,2.6827,2.6854,2.6934,2.7068,2.7215,2.7522,2.7936,2.7936,2.8016,-0.8395,-0.6303,-0.5179,-0.6338,-0.4834,-0.367,-0.5715,-0.774,-0.9361,-0.999,-1.0774,-1.1498,-1.1843,-0.9987,-0.8567,-0.887,-0.7651,-0.6485,-0.6016,-0.2522,0.0,0.0,0.0,0.0,0.0,0.0,0.0,0.0,0.0,0.0,0.0,0.0,0.0,0.0,0.0,0.0,0.0,0.0,0.0,0.0,0.0,0.0,0.0,0.0,0.0,0.0,0.0537,0.1877,0.3669,0.4729,0.7399,1.0717,1.1344,1.2668,1.4238,1.4156,1.4082,1.3987,1.3797,1.3858,1.4007,1.3926,1.3871,1.3871,1.4027,1.3885,1.3709,1.3851,1.3817,1.381,1.4156,1.4156,1.4109,1.4265,1.4299,1.4299,1.4299,1.4299,1.4299,1.4299,1.4299,1.4299,1.4299,1.4299,1.4911,1.6721,1.7413,1.8999,2.2278,2.319,2.4315,2.6478,2.6713,2.6878,2.7468,2.7468,2.7468,2.7468,2.7615,2.7602,2.7375,2.7575,2.7455,2.6934,2.7148,2.7295,2.7362,2.7589,2.7856,2.8221,2.8221,2.8221,-1.0923,-0.9874,-0.8994,-0.7007,-0.4826,-0.3773,-0.6299,-0.8522,-1.073,-1.2888,-1.1706,-1.0291,-1.0363,-0.8558,-0.6992,-0.6905,-0.6867,-0.6153,-0.4095,-0.1609,0.0,0.0,0.0,0.0,0.0,0.0,0.0,0.0,0.0,0.0,0.0,0.0,0.0,0.0,0.0,0.0,0.0,0.0,0.0,0.0,0.0,0.0,0.0,0.0,0.0,0.009,0.2217,0.3282,0.3934,0.8217,1.0268,1.0895,1.3135,1.4035,1.4102,1.4238,1.4102,1.3871,1.4,1.396,1.3878,1.4014,1.396,1.3871,1.4027,1.3953,1.3858,1.4014,1.4048,1.4048,1.4082,1.4082,1.4109,1.4265,1.4299,1.4299,1.4299,1.4299,1.4299,1.4299,1.4299,1.4299,1.4299,1.4299,1.4387,1.4564,1.6378,1.7929,1.8261,2.0077,2.231,2.4632,2.4888,2.575,2.7985,2.8167,2.8167,2.8167,2.7843,2.7682,2.7669,2.7682,2.7549,2.7241,2.7255,2.7402,2.7669,2.7682,2.7856,2.8221,2.8221,2.8221,-1.269,-1.1204,-0.9636,-0.8696,-0.7562,-0.7403,-1.0125,-1.3562,-1.6328,-1.7244,-1.5683,-1.2404,-0.6712,-0.7361,-0.7803,-0.5219,-0.5936,-0.6048,-0.3928,-0.1524,0.0,0.0,0.0,0.0,0.0,0.0,0.0,0.0,0.0,0.0,0.0,0.0,0.0,0.0,0.0,0.0,0.0,0.0,0.0794,0.2218,0.0716,0.0,0.0,0.0,0.0,0.009,0.2498,0.4366,0.5987,0.9246,1.1566,1.3046,1.3938,1.4204,1.4068,1.4027,1.4,1.3953,1.3729,1.3858,1.4102,1.3973,1.3953,1.4014,1.4163,1.4109,1.4014,1.417,1.4211,1.4211,1.4211,1.4211,1.4231,1.4285,1.4299,1.4299,1.4299,1.4299,1.4299,1.4299,1.4299,1.4299,1.4299,1.4299,1.4299,1.4299,1.508,1.6122,1.7588,1.854,2.0009,2.2256,2.3824,2.5641,2.7968,2.8221,2.8221,2.8221,2.8114,2.7896,2.7709,2.7883,2.7749,2.7281,2.7712,2.7776,2.7696,2.7883,2.8114,2.8221,2.8221,2.8221,-1.3566,-1.213,-1.0683,-1.0426,-1.0703,-1.1574,-1.361,-1.6442,-1.873,-1.8952,-1.6105,-1.1103,-0.3426,-0.518,-0.6675,-0.3038,-0.4306,-0.4995,-0.2769,-0.1076,0.0,0.0,0.0,0.0,0.0,0.0,0.0,0.0,0.0,0.0,0.0,0.0,0.0,0.0,0.0,0.0,0.0,0.0696,0.1829,0.3507,0.2562,0.1781,0.1166,0.1166,0.0718,0.0179,0.33,0.5614,0.7324,1.05,1.2738,1.4292,1.4245,1.4163,1.4055,1.3899,1.3905,1.3953,1.3648,1.3844,1.4183,1.3926,1.3946,1.4089,1.4197,1.4156,1.4102,1.4258,1.4299,1.4299,1.4299,1.4299,1.4299,1.4299,1.4299,1.4299,1.4299,1.4299,1.4299,1.4299,1.4299,1.4299,1.4299,1.4299,1.4299,1.4299,1.4299,1.4911,1.6466,1.6729,1.7851,2.0875,2.3298,2.5641,2.7968,2.8221,2.8221,2.8221,2.8221,2.8003,2.7709,2.7989,2.7993,2.7415,2.798,2.8127,2.7843,2.8127,2.8221,2.8221,2.8221,2.8221,-1.3444,-1.3071,-1.2644,-1.2139,-1.3938,-1.5906,-1.6228,-1.6352,-1.6541,-1.74,-1.1914,-0.5578,-0.0825,-0.1947,-0.2824,-0.0419,-0.1986,-0.2742,-0.0358,0.0,0.0,0.0,0.0,0.0,0.0,0.0,0.0,0.0,0.0,0.0,0.0,0.0,0.0,0.0,0.0,0.0,0.0,0.2157,0.3293,0.3379,0.5629,0.5605,0.3668,0.3668,0.2328,0.0359,0.4951,0.6986,0.7499,1.2185,1.4163,1.4285,1.4136,1.4075,1.4055,1.3899,1.3844,1.3838,1.3838,1.3939,1.4048,1.3892,1.3946,1.4075,1.4075,1.4075,1.4102,1.4258,1.4299,1.4299,1.4299,1.4299,1.4299,1.4299,1.4299,1.4299,1.4299,1.4299,1.4299,1.4299,1.4299,1.4299,1.4299,1.4299,1.4299,1.4299,1.4299,1.4299,1.4299,1.4299,1.6034,2.0702,2.3298,2.5641,2.7968,2.8221,2.8221,2.8221,2.8221,2.8003,2.7709,2.7989,2.8003,2.7709,2.7989,2.8221,2.8221,2.8221,2.8221,2.8221,2.8221,2.8221,-1.3573,-1.4113,-1.4735,-1.4891,-1.6214,-1.7232,-1.6621,-1.7999,-1.8247,-1.4055,-0.8597,-0.3636,-0.0587,-0.1818,-0.2549,-0.0336,-0.1791,-0.2523,-0.0268,0.0,0.0,0.0,0.0,0.0,0.0,0.0,0.0,0.0,0.0,0.0,0.0,0.0,0.0,0.0,0.0,0.0,0.0,0.2312,0.428,0.5904,0.8272,0.8074,0.5771,0.5771,0.5443,0.4951,0.6341,0.796,0.9908,1.2997,1.4258,1.4292,1.4251,1.4163,1.4068,1.4021,1.3933,1.3824,1.3729,1.379,1.3899,1.3858,1.3946,1.4089,1.4197,1.4231,1.4245,1.4285,1.4299,1.4299,1.4299,1.4299,1.4299,1.4299,1.4299,1.4299,1.4299,1.4299,1.4299,1.4299,1.4299,1.4299,1.4299,1.4299,1.4299,1.4299,1.4299,1.4299,1.4299,1.4299,1.6034,2.0702,2.1825,2.3898,2.7883,2.8221,2.8221,2.8221,2.8221,2.8181,2.81,2.8181,2.8181,2.8016,2.8181,2.8221,2.8221,2.8221,2.8221,2.8221,2.8221,2.8221,-1.4712,-1.5803,-1.6925,-1.7207,-1.7941,-1.8045,-1.5795,-1.5272,-1.4002,-0.918,-0.4988,-0.1712,-0.0256,-0.1006,-0.1498,-0.017,-0.1028,-0.1388,-0.0178,0.0,0.0,0.0,0.0,0.0,0.0,0.0,0.0,0.0,0.0,0.0,0.0,0.0,0.0,0.0,0.0,0.0,0.0,0.2305,0.4178,0.5537,0.8825,0.909,0.6754,0.7671,0.7641,0.6906,0.7899,0.9814,1.2237,1.3673,1.4299,1.4292,1.4231,1.4116,1.398,1.398,1.3844,1.3661,1.3641,1.3722,1.3831,1.3777,1.3899,1.4089,1.4183,1.4211,1.4224,1.4285,1.4299,1.4299,1.4299,1.4299,1.4299,1.4299,1.4299,1.4319,1.4373,1.434,1.4319,1.4373,1.434,1.4299,1.4299,1.4346,1.4367,1.4306,1.4299,1.4299,1.4299,1.4299,1.569,1.9488,1.9836,2.1739,2.6406,2.5981,2.6236,2.8052,2.7363,2.7194,2.8136,2.8221,2.8221,2.8221,2.8221,2.8221,2.8221,2.8221,2.8221,2.8221,2.8221,2.8221,-1.6473,-1.7743,-1.9044,-1.894,-1.8789,-1.7611,-1.3773,-0.9536,-0.5867,-0.3928,-0.1651,0.0,0.0,0.0,0.0,0.0,0.0,0.0,0.0,0.0,0.0,0.0,0.0,0.0,0.0,0.0,0.0,0.0,0.0,0.0,0.0,0.0,0.0084,0.0256,0.0085,0.0085,0.0256,0.2305,0.3326,0.3495,0.7746,0.8716,0.6791,0.9399,0.932,0.7191,0.972,1.2038,1.4033,1.421,1.4299,1.4285,1.4129,1.3987,1.3858,1.3844,1.3675,1.3458,1.3587,1.3722,1.3817,1.3688,1.3838,1.4075,1.4089,1.4095,1.4122,1.4265,1.4299,1.4299,1.4299,1.4299,1.4306,1.4319,1.4319,1.436,1.4502,1.4421,1.436,1.4489,1.4394,1.4299,1.4299,1.4421,1.4475,1.436,1.4326,1.4319,1.4319,1.4306,1.5168,1.7588,1.7763,1.9575,2.3995,2.2449,2.3052,2.7279,2.5738,2.5665,2.7799,2.8052,2.8221,2.8221,2.8221,2.8221,2.8221,2.8221,2.8221,2.8221,2.8221,2.8221,-1.6473,-1.8109,-1.9502,-1.9765,-1.5953,-1.1572,-0.9079,-0.4895,-0.1875,-0.3188,-0.1593,0.0,0.0,0.0,0.0,0.0,0.0,0.0,0.0,0.0,0.0,0.0,0.0,0.0,0.0,0.0,0.0,0.0,0.0,0.0,0.0,0.0,0.0831,0.2495,0.0922,0.0842,0.2612,0.3228,0.3482,0.3454,0.6274,0.7278,0.6871,1.0853,1.1571,0.9692,1.236,1.275,1.161,1.3496,1.4299,1.4285,1.4129,1.4055,1.4007,1.3885,1.3797,1.3736,1.3654,1.3722,1.3838,1.3804,1.3919,1.4095,1.4217,1.4251,1.4258,1.4292,1.4299,1.4299,1.4299,1.4299,1.4326,1.4441,1.4468,1.4509,1.4658,1.457,1.4475,1.4509,1.4394,1.4299,1.4299,1.4421,1.4543,1.4631,1.4543,1.4468,1.4468,1.4367,1.5168,1.7588,1.7763,1.8976,2.1739,2.1557,2.1762,2.2611,2.408,2.5063,2.547,2.7194,2.8221,2.8221,2.8221,2.8221,2.8221,2.8221,2.8221,2.8221,2.8221,2.8221,-1.6707,-1.9004,-2.0921,-2.0221,-1.516,-0.9814,-0.7577,-0.4295,-0.17,-0.1779,-0.0801,0.0,0.0,0.0,0.0,0.0,0.0,0.0,0.0,0.0,0.0,0.0,0.0,0.0,0.0,0.0,0.0,0.0,0.0,0.0,0.0,0.0,0.0992,0.3218,0.2171,0.2694,0.4902,0.3998,0.3479,0.3358,0.4637,0.5714,0.6815,1.0185,1.1266,1.0553,1.2891,1.3352,1.2413,1.3657,1.419,1.4183,1.4102,1.4027,1.3953,1.3871,1.3749,1.3627,1.3627,1.3722,1.3838,1.3838,1.3994,1.4197,1.4278,1.4299,1.4299,1.4299,1.4299,1.4299,1.4299,1.4299,1.4353,1.457,1.4563,1.457,1.4801,1.4733,1.4618,1.4618,1.4502,1.4401,1.4401,1.4523,1.4672,1.4828,1.4658,1.4509,1.4509,1.4387,1.4734,1.5946,1.6122,1.7104,1.9453,1.8681,1.9088,2.1271,2.2595,2.3685,2.4781,2.7004,2.8221,2.8221,2.8221,2.8221,2.8221,2.8221,2.8221,2.8221,2.8221,2.8221,-1.6935,-1.9357,-2.1524,-1.9878,-1.4765,-0.9535,-0.7591,-0.4919,-0.2419,-0.0449,0.0,0.0,0.0,0.0,0.0,0.0,0.0,0.0,0.0,0.0,0.0,0.0,0.0,0.0,0.0,0.0,0.0,0.0,0.0,0.0,0.0,0.0,0.1153,0.3772,0.349,0.4616,0.7179,0.4649,0.3284,0.3255,0.2927,0.3751,0.5622,0.7853,0.9413,1.0602,1.2787,1.3831,1.4034,1.4061,1.4075,1.4068,1.4041,1.3953,1.3745,1.3783,1.3627,1.3458,1.3553,1.3702,1.3838,1.3838,1.4034,1.4265,1.4292,1.4299,1.4299,1.4299,1.4299,1.4299,1.4299,1.4299,1.4373,1.4672,1.4645,1.4638,1.4943,1.4889,1.4774,1.4746,1.4597,1.4489,1.4543,1.4658,1.4801,1.4984,1.4767,1.459,1.459,1.4468,1.4373,1.4373,1.4373,1.5216,1.7283,1.5643,1.6325,2.0271,2.0771,2.191,2.433,2.6448,2.7865,2.823,2.8261,2.8221,2.8221,2.8221,2.8221,2.8221,2.8221,2.8261,-1.6698,-1.7528,-1.7855,-1.7793,-1.2588,-0.7329,-0.7132,-0.3669,-0.0359,-0.009,0.0,0.0,0.0,0.0,0.0,0.0,0.0,0.0,0.0,0.0,0.0,0.0,0.0,0.0,0.0,0.0,0.0,0.0,0.0,0.0,0.0,0.0,0.1864,0.5915,0.4168,0.51,0.9212,0.5139,0.3101,0.3097,0.1319,0.0583,0.1008,0.322,0.6473,1.0503,1.2952,1.396,1.3878,1.4014,1.4075,1.4055,1.3926,1.3858,1.381,1.3553,1.3519,1.3587,1.3471,1.3607,1.3838,1.3838,1.396,1.4129,1.4258,1.4299,1.4299,1.4299,1.4299,1.4299,1.4299,1.4299,1.4373,1.4672,1.4726,1.4794,1.5092,1.5038,1.4903,1.4767,1.4516,1.4407,1.4665,1.4726,1.4835,1.5113,1.5018,1.4909,1.4909,1.4774,1.4679,1.4679,1.4679,1.4776,1.5063,1.5011,1.5131,1.5643,1.763,1.9879,2.2203,2.4266,2.6327,2.8465,2.8283,2.8221,2.8221,2.8221,2.8221,2.8221,2.8221,2.8283,-1.6604,-1.6339,-1.5754,-1.6922,-1.2085,-0.7017,-0.705,-0.3401,0.0,0.0,0.0,0.0,0.0,0.0,0.0,0.0,0.0,0.0,0.0,0.0,0.0,0.0,0.0,0.0,0.0,0.0,0.0,0.0,0.0,0.0,0.0,0.0,0.2006,0.6363,0.55,0.7077,1.1499,0.8339,0.5506,0.3082,0.098,0.0,0.0083,0.2372,0.5301,0.8595,1.0929,1.273,1.3973,1.4041,1.4075,1.4061,1.3994,1.3919,1.3817,1.3607,1.3519,1.3492,1.3424,1.3593,1.3838,1.3838,1.4,1.4211,1.4278,1.4299,1.4299,1.4299,1.4299,1.4299,1.4299,1.4299,1.4373,1.4672,1.474,1.4821,1.512,1.5133,1.5018,1.4787,1.4631,1.4584,1.4719,1.4808,1.4943,1.5153,1.5065,1.497,1.497,1.4835,1.474,1.474,1.474,1.4774,1.4862,1.493,1.4977,1.4991,1.7149,1.9461,2.1891,2.4085,2.6276,2.8518,2.8297,2.823,2.8404,2.8404,2.8484,2.8644,2.8644,2.8724,-1.5879,0.0,-1.4295,-1.5179,-1.1221,-0.6945,-0.6341,-0.2955,0.0,0.0,0.0,0.0,0.0,0.0,0.0,0.0,0.0,0.0,0.0,0.0,0.0,0.0,0.0,0.0,0.0,0.0,0.0,0.0,0.0,0.0,0.0,0.0,0.1992,0.6336,0.6487,0.8527,1.284,1.011,0.6591,0.2263,0.0731,0.0,0.0083,0.1861,0.394,0.6378,0.9153,1.1376,1.3133,1.3794,1.4048,1.4014,1.4014,1.3919,1.377,1.3627,1.3498,1.3403,1.3444,1.36,1.3797,1.3871,1.4055,1.4251,1.4285,1.4299,1.4299,1.4299,1.4299,1.4299,1.4299,1.4299,1.4373,1.4672,1.474,1.4835,1.5167,1.5181,1.5072,1.4889,1.4794,1.4753,1.4794,1.4896,1.5018,1.516,1.5092,1.5025,1.5025,1.4957,1.4896,1.4855,1.4889,1.4943,1.5018,1.5025,1.5072,1.5174,1.6725,1.8935,2.2111,2.3716,2.5918,2.8745,2.8524,2.8444,2.8604,2.8604,2.8751,2.9045,2.9045,2.9085,-1.4012,-1.4039,0.0,-1.1412,-0.8873,-0.6353,0.0,-0.1793,0.0,0.0,0.0,0.0,0.0,0.0,0.0,0.0,0.0,0.0,0.0,0.0,0.0,0.0,0.0,0.0,0.0,0.0,0.0,0.0,0.0,0.0,0.0,0.0,0.1906,0.6186,0.6336,0.8313,1.2528,0.853,0.4338,0.016,0.0081,0.0,0.0,0.017,0.1538,0.4012,0.8522,1.0467,1.0649,1.3133,1.3987,1.3851,1.3851,1.3763,1.362,1.3471,1.341,1.3424,1.3566,1.3627,1.3688,1.3966,1.4068,1.4109,1.4258,1.4299,1.4299,1.4299,1.4299,1.4299,1.4299,1.4299,1.4373,1.4672,1.474,1.4862,1.5303,1.5181,1.5018,1.5133,1.493,1.4787,1.4936,1.4964,1.5018,1.516,1.5174,1.5174,1.5174,1.5289,1.5323,1.5174,1.5289,1.5323,1.5181,1.5174,1.5174,1.5181,1.5268,1.7476,2.226,2.2313,2.4543,2.9344,2.9138,2.8871,2.8604,2.8604,2.8751,2.9045,2.9045,2.9192,-1.4048,0.0,0.0,-1.1095,-0.8745,-0.6405,-0.4112,-0.2955,-0.1882,-0.0359,-0.1256,-0.1876,-0.0266,0.0,0.0,0.0,0.0,0.0,0.0,0.0,0.0,0.0,0.0,0.0,0.0,0.0,0.0,0.0,0.0,0.0,0.0,0.0,0.1324,0.4178,0.5555,0.769,1.0469,0.7734,0.4878,0.1995,0.0647,0.0,0.0,0.0,0.0512,0.1468,0.4668,0.7815,1.0493,0.9902,1.0497,1.1622,1.0135,1.029,1.1486,1.144,1.2219,1.3424,1.3573,1.3688,1.3797,1.4007,1.4136,1.4231,1.4285,1.4299,1.4299,1.4299,1.4299,1.4299,1.4299,1.4367,1.4509,1.4814,1.4957,1.512,1.5479,1.5398,1.5242,1.5194,1.5099,1.5011,1.4977,1.497,1.5018,1.516,1.5181,1.5181,1.5181,1.5228,1.5282,1.5323,1.5377,1.5391,1.5337,1.533,1.5289,1.5187,1.5181,1.7398,2.2372,2.2485,2.4642,2.9397,2.9379,2.9272,2.9165,2.9165,2.9312,2.9606,2.9606,2.9659,-1.3016,-1.2437,-1.1323,-0.8762,-0.702,-0.5276,-0.2955,-0.3045,-0.2955,-0.0538,-0.1882,-0.2859,-0.0445,0.0,0.0,0.0,0.0,0.0,0.0,0.0,0.0,0.0,0.0,0.0,0.0,0.0,0.0,0.0,0.0,0.0,0.0,0.0,0.093,0.3019,0.52,0.6619,0.7267,0.5942,0.4164,0.2061,0.0646,0.0,0.0,0.0,0.0,0.0086,0.1733,0.4629,0.8224,0.7392,0.7991,0.9223,0.7618,0.7889,0.9157,0.9974,1.121,1.2461,1.3467,1.3838,1.3946,1.4095,1.4217,1.4299,1.4299,1.4299,1.4299,1.4299,1.4299,1.4299,1.4299,1.4441,1.4652,1.4909,1.5079,1.5255,1.5506,1.5486,1.5398,1.5343,1.5296,1.5215,1.5065,1.5038,1.5072,1.5167,1.5181,1.5181,1.5181,1.5269,1.5357,1.5404,1.5499,1.552,1.5418,1.5459,1.5398,1.5194,1.5228,1.746,2.2382,2.2566,2.4776,2.9544,2.9633,2.9633,2.9633,2.9526,2.9633,2.9913,2.9913,2.9913,0.0,0.0,0.0,-0.4206,-0.358,-0.2955,-0.0628,-0.1971,-0.3045,-0.0628,-0.2061,-0.2955,-0.0449,0.0,0.0,0.0,0.0,0.0,0.0,0.0,0.0,0.0,0.0,0.0,0.0,0.0,0.0,0.0,0.0,0.0,0.0,0.0,0.094,0.305,0.51,0.5177,0.313,0.313,0.2037,0.0,0.0,0.0,0.0,0.0,0.0,0.0,0.0,0.1319,0.3669,0.599,0.6836,0.6764,0.6692,0.6666,0.6918,0.9238,1.0199,1.0649,1.314,1.4068,1.4095,1.4251,1.4299,1.4299,1.4299,1.4299,1.4299,1.4299,1.4299,1.4299,1.4312,1.4529,1.4787,1.4943,1.5086,1.5228,1.5384,1.5418,1.5459,1.5601,1.5513,1.5364,1.5208,1.5181,1.5181,1.5181,1.5181,1.5181,1.5187,1.5452,1.5581,1.5438,1.5683,1.5737,1.5445,1.556,1.5513,1.5201,1.5323,1.7585,2.229,2.2464,2.4854,2.9824,2.9913,2.9913,2.9913,2.9633,2.9646,2.9913,2.9913,2.9913,-0.8575,0.0,0.0,0.0,0.0,0.0,-0.2776,-0.4472,-0.5454,-0.3134,-0.4472,-0.4919,-0.0718,0.0,0.0,0.0,0.0,0.0,0.0,0.0,0.0,0.0,0.0,0.0,0.0,0.0,0.0,0.0,0.0,0.0,0.0,0.0,0.0989,0.3014,0.3698,0.3713,0.313,0.313,0.2037,0.0,0.0,0.0,0.0,0.0,0.0,0.0,0.0,0.0352,0.1076,0.1703,0.2937,0.4314,0.2548,0.2882,0.4416,0.5092,0.7421,1.0391,1.1204,1.2655,1.4095,1.4251,1.4299,1.4299,1.4299,1.4299,1.4299,1.4299,1.4299,1.4346,1.4563,1.476,1.497,1.5228,1.5235,1.5255,1.552,1.5574,1.5554,1.5486,1.5438,1.5364,1.5208,1.5181,1.5181,1.5181,1.5181,1.5221,1.5337,1.5418,1.554,1.571,1.5805,1.5778,1.5594,1.571,1.5622,1.5208,1.5323,1.7585,2.229,2.2464,2.4854,2.9824,2.9913,2.9913,2.9913,2.9833,2.9833,2.9913,2.9913,2.9913,-0.6255,-0.4919,-0.3848,-0.2419,0.0,0.0,-0.2138,-0.3924,-0.5001,-0.2583,-0.4014,-0.4472,-0.0718,0.0,0.0,0.0,0.0,0.0,0.0,0.0,0.0,0.0,0.0,0.0,0.0,0.0,0.0,0.0,0.0,0.0,0.0,0.0,0.0522,0.1756,0.1825,0.1831,0.1775,0.1776,0.1162,0.0,0.0,0.0,0.0,0.0,0.0,0.0,0.0,0.0,0.0,0.0,0.0805,0.1952,0.0531,0.0794,0.2109,0.3147,0.5158,0.7808,0.9888,1.15,1.2847,1.3912,1.4299,1.4299,1.4299,1.4299,1.4299,1.4299,1.434,1.4441,1.4679,1.4855,1.5045,1.5343,1.5296,1.5248,1.5493,1.5547,1.552,1.5432,1.5459,1.5459,1.5303,1.5221,1.5201,1.5269,1.5276,1.5309,1.5398,1.552,1.5662,1.5839,1.5913,1.5866,1.5655,1.5771,1.5662,1.5208,1.5323,1.7113,2.0816,2.2093,2.454,2.8524,2.9663,3.0221,3.01,2.998,2.9913,2.9913,2.9913,2.9913,-0.3936,-0.1614,0.0,0.0,0.0,0.0,-0.0355,-0.2047,-0.2947,-0.0886,-0.2136,-0.2866,-0.0449,0.0,0.0,0.0,0.0,0.0,0.0,-0.0254,-0.0249,0.0,-0.0244,-0.0241,0.0,0.0,0.0,0.0,0.0,0.0,0.0,0.0,0.0,0.0,0.0,0.0,0.0,0.0,0.0,0.0,0.0,0.0,0.0,0.0,0.0,0.0,0.0,0.0,0.0,0.0,0.0,0.0,0.0,0.0,0.0269,0.2393,0.3373,0.4206,0.8486,1.0268,1.1072,1.3224,1.4122,1.4299,1.4299,1.4299,1.4299,1.4299,1.4414,1.457,1.4706,1.4869,1.5065,1.5343,1.5296,1.5221,1.5377,1.5425,1.5425,1.5391,1.5506,1.5567,1.5432,1.5282,1.5235,1.5391,1.5411,1.5425,1.5452,1.5689,1.5957,1.5879,1.6001,1.5967,1.5689,1.5778,1.5669,1.5235,1.5337,1.6459,1.8786,2.1561,2.4191,2.6617,2.9412,3.0648,3.0354,3.006,2.9913,2.9913,2.9953,2.9967,-0.1877,-0.0359,0.0,0.0,0.0,0.0,-0.2412,-0.3219,-0.3489,-0.3036,-0.3308,-0.2866,-0.0449,0.0,0.0,0.0,0.0,0.0,0.0,-0.1616,-0.2087,-0.0249,-0.1633,-0.2032,-0.0165,0.0,0.0,0.0,0.0,0.0,0.0,0.0,0.0,0.0,0.0,0.0,0.0,0.0,0.0,0.0,0.0,0.0,0.0,0.0,0.0,0.0,0.0,0.0,0.0,0.0,0.0,0.0,0.0,0.0,0.009,0.0537,0.1968,0.3759,0.4651,0.7506,1.0806,1.125,1.2686,1.4299,1.4299,1.4299,1.4299,1.4299,1.4489,1.4706,1.4733,1.4943,1.5187,1.5371,1.5296,1.5221,1.5377,1.5506,1.552,1.5276,1.535,1.5445,1.5418,1.5282,1.5235,1.5391,1.5411,1.5499,1.5737,1.5818,1.59,1.6022,1.6062,1.6008,1.5825,1.5839,1.5716,1.5384,1.5398,1.6459,1.8786,2.1561,2.4191,2.6617,2.9412,3.0648,3.0354,3.006,2.9913,2.9927,3.0167,3.0274,-0.0984,0.0,0.0,0.0,0.0,0.0,0.0,-0.1786,-0.1789,-0.178,-0.1786,-0.1434,-0.0179,0.0,0.0,0.0,0.0,-0.0446,-0.1667,-0.2759,-0.264,-0.0255,-0.2096,-0.2586,-0.0252,0.0,0.0,0.0,0.0,0.0,0.0,0.0,0.0,0.0,0.0,0.0,0.0,0.0,0.0,0.0,0.0,0.0,0.0,0.0,0.0,0.0,0.0,0.0,0.0,0.0,0.0,0.0,0.0,0.0,0.0,0.0,0.0807,0.1971,0.3224,0.5901,0.9108,1.0268,1.2325,1.4299,1.4299,1.4299,1.4299,1.4299,1.4516,1.474,1.474,1.4957,1.5242,1.5472,1.535,1.5262,1.5567,1.5635,1.5594,1.5438,1.5472,1.5499,1.5425,1.5282,1.5262,1.5493,1.5527,1.5608,1.5825,1.592,1.5995,1.6076,1.6083,1.6022,1.5866,1.5852,1.5723,1.5432,1.5411,1.5934,1.7068,2.1067,2.5136,2.9093,3.0582,3.1089,3.0795,3.0501,3.0207,2.9927,3.0221,3.0354,-0.0624,0.0,0.0,0.0,0.0,0.0,0.0,0.0,0.0,0.0,0.0,0.0,0.0,0.0,0.0,0.0,0.0,-0.0716,-0.2656,-0.3684,-0.3396,-0.0956,-0.2754,-0.3081,-0.0258,0.0,0.0,0.0,0.0,0.0156,0.0611,0.0607,0.0599,0.0586,0.0591,0.0369,0.0,0.0,0.0,0.0,0.0,0.0,0.0,0.0,0.0,0.0,0.0,0.0,0.0,0.0,0.0,0.0,0.0,0.0,0.0,0.0,0.0,0.0269,0.224,0.474,0.7413,0.9375,1.1971,1.4299,1.4299,1.4299,1.4299,1.4299,1.4516,1.474,1.474,1.4957,1.5242,1.5493,1.5364,1.5282,1.5642,1.5655,1.5588,1.5554,1.5574,1.5554,1.5432,1.5282,1.5289,1.5594,1.5642,1.5703,1.5872,1.6001,1.6083,1.6083,1.6083,1.6035,1.5906,1.5872,1.575,1.5513,1.5472,1.5452,1.5452,2.0175,2.5066,3.0179,3.0777,3.0799,3.046,3.0703,3.0608,3.0087,3.0394,3.0528,-0.0617,0.0,0.0,0.0,0.0,0.0,0.0,0.0,0.0,0.0,0.0,0.0,0.0,0.0,0.0,0.0,0.0,-0.009,-0.0358,-0.4015,-0.5836,-0.3474,-0.5189,-0.4841,-0.0434,0.0,0.0,0.0,0.0,0.0793,0.2654,0.2751,0.2777,0.2739,0.2741,0.1844,0.0,0.0,0.0,0.0,0.0,0.0,0.0,0.0,0.0,0.0,0.0,0.0,0.0,0.0,0.0,0.0,0.0,0.0,0.0,0.0,0.0,0.0,0.0269,0.3312,0.7149,0.7413,1.0629,1.4299,1.4299,1.4299,1.4299,1.4299,1.4516,1.474,1.474,1.4957,1.5194,1.5228,1.5208,1.5194,1.5248,1.535,1.5398,1.5262,1.5343,1.5432,1.5411,1.5282,1.5289,1.5594,1.5642,1.5737,1.6022,1.6069,1.6083,1.6083,1.6083,1.6076,1.6056,1.5934,1.5839,1.5805,1.5683,1.5615,1.5615,1.8672,2.1869,2.4861,2.7221,2.8163,2.7771,3.0046,3.1009,3.0702,3.0996,3.1129,-0.1935,-0.1068,-0.0359,-0.1703,-0.1076,0.0,0.0,0.0,0.0,0.0,0.0,0.0,0.0,0.0,0.0,0.0,0.0,-0.0449,-0.1882,0.0,-0.6234,-0.3889,-0.6878,-0.7283,-0.2519,-0.2062,-0.1524,-0.0083,0.0,0.0401,0.1256,0.132,0.1302,0.1277,0.1285,0.0905,0.0,0.0,0.0,0.0,0.0,0.0,0.0,0.0,0.0,0.0,0.0,0.0,0.0,0.0,0.0,0.0,0.0,0.0,0.0,0.0,0.0,0.0,0.0,0.3134,0.7591,1.0357,1.2686,1.4299,1.4299,1.4299,1.4299,1.4299,1.4516,1.474,1.474,1.4957,1.5208,1.5296,1.5248,1.5228,1.5411,1.5499,1.5527,1.5459,1.5499,1.554,1.554,1.5418,1.5391,1.5608,1.571,1.5839,1.6056,1.6083,1.6083,1.6083,1.6083,1.6083,1.6083,1.6022,1.5947,1.5859,1.5879,1.6616,1.8159,1.9675,2.1695,2.4016,2.5324,2.6549,2.7616,2.8677,2.9968,3.1303,3.1249,3.1223,-0.2878,-0.1762,-0.0534,-0.293,-0.1781,0.0,0.0,0.0,0.0,0.0,0.0,0.0,0.0,0.0,0.0,0.0,0.0,-0.0628,-0.233,-0.5186,-0.6433,-0.474,-0.7595,-0.8325,-0.486,-0.3958,-0.2884,-0.1077,-0.0328,0.0242,0.079,0.0865,0.0855,0.0838,0.0844,0.0614,0.0,0.0,0.0,0.0,0.0,0.0,0.0,0.0,0.0,0.0,0.0,0.0,0.0,0.0,0.0,0.0,0.0,0.0,0.0,0.0,0.0,0.0,0.0,0.3134,0.7859,1.2774,1.4299,1.4299,1.4299,1.4299,1.4299,1.4299,1.4516,1.474,1.474,1.4957,1.5208,1.5323,1.5262,1.5242,1.5466,1.5547,1.5574,1.5574,1.5608,1.5642,1.5642,1.5513,1.5479,1.5669,1.5784,1.5906,1.6062,1.6083,1.6083,1.6083,1.6083,1.6083,1.6083,1.6083,1.6049,1.5981,1.6083,1.7121,1.9211,1.9567,2.0468,2.2031,2.2869,2.4523,2.6698,2.7492,2.9135,3.1664,3.145,3.1343,-0.2735,-0.1724,-0.0522,-0.2777,-0.1664,0.0,0.0,0.0,0.0,0.0,0.0,0.0,0.0,0.0,0.0,0.0,0.0,0.0,0.0,-0.4116,-0.7057,-0.6968,-0.7146,-0.7088,-0.6849,-0.4848,-0.3505,-0.3226,-0.1227,0.089,0.2869,0.2993,0.3037,0.3,0.3,0.2002,0.0,0.0,0.0,0.0,0.0,0.0,0.0,0.0,0.0,0.0,0.0,0.0,0.0,0.0,0.0,0.0,0.0,0.0,0.0,0.0,0.0,0.0,0.0,0.3134,0.7859,1.2774,1.4299,1.4299,1.4299,1.4299,1.4299,1.4299,1.4516,1.474,1.474,1.4957,1.5181,1.5187,1.5187,1.5187,1.5194,1.5316,1.5418,1.5418,1.554,1.5642,1.5642,1.5513,1.5513,1.5805,1.595,1.5906,1.6062,1.6083,1.6083,1.6083,1.6083,1.6083,1.6083,1.6083,1.6144,1.6286,1.63,1.6435,1.6824,1.6844,1.6776,1.6714,1.9237,2.165,2.4074,2.6613,2.9135,3.1664,3.1664,3.165,-0.2872,-0.1798,-0.0521,-0.2948,-0.175,0.0,0.0,0.0,0.0,0.0,0.0,0.0,0.0,0.0,0.0,0.0,0.0,-0.0538,0.0,-0.6525,-1.0091,-1.1699,-1.1803,-1.1073,-0.9439,-0.7174,-0.5132,-0.3388,-0.1227,0.0325,0.1051,0.1046,0.1042,0.1039,0.1038,0.0719,0.0,0.0,0.0,0.0,0.0,0.0,0.0,0.0,0.0,0.0,0.0,0.0,0.0,0.0,0.0,0.0,0.0,0.0,0.0,0.0,0.0,0.0449,0.358,0.5722,0.7859,1.2774,1.4299,1.4299,1.4299,1.4299,1.4319,1.4414,1.4584,1.476,1.4869,1.5038,1.5181,1.5181,1.5181,1.5208,1.5309,1.5452,1.5588,1.5683,1.5744,1.5811,1.5913,1.5805,1.5737,1.5839,1.594,1.6022,1.6076,1.6083,1.6083,1.6083,1.6083,1.6083,1.6083,1.6178,1.6293,1.6442,1.6544,1.6693,1.6897,1.6904,1.6829,1.6673,1.7384,1.9025,2.1443,2.2289,2.4851,2.9135,2.9135,3.002,-0.2852,-0.1783,-0.0601,-0.2916,-0.1731,0.0,0.0,0.0,0.0,0.0,0.0,0.0,0.0,0.0,0.0,0.0,-0.0718,-0.2419,0.0,-0.8753,-1.161,-1.4027,-1.4211,-1.3172,-1.0763,0.0,-0.5954,-0.3513,-0.1303,0.0,0.0,0.0,0.0,0.0,0.0,0.0,0.0,0.0,0.0,0.0,0.0,0.0,0.0,0.0,0.0,0.0,0.0,0.0,0.0,0.0,0.0,0.0,0.0,0.0,0.0,0.0,0.0,0.0533,0.4531,0.6399,0.7733,1.1776,1.3584,1.4299,1.4299,1.4299,1.434,1.4536,1.4665,1.4787,1.4991,1.5113,1.5181,1.5181,1.5221,1.5289,1.5391,1.5574,1.5744,1.5839,1.59,1.5967,1.6062,1.6001,1.5934,1.5934,1.6015,1.6083,1.6083,1.613,1.6144,1.609,1.613,1.6144,1.609,1.6225,1.6368,1.651,1.6666,1.6795,1.6897,1.6897,1.6849,1.6754,1.6551,1.7726,2.0259,2.0105,2.2702,2.778,2.778,2.923]}]]